GFSCGP_700_spd_003.txt.gz
Wind_Speed
12 15 14 21 19 8 9 11 13 14 11 9 7 3 3 9 12 10 10 12 13 15 12 12 12 11 11 10 11 13 11 14 15 10 13 13 12 15 17 20 23 25 27 30
14 18 15 16 12 10 8 7 10 13 15 11 8 7 5 10 14 13 14 13 13 14 11 8 6 7 10 9 8 11 12 10 10 14 18 19 15 14 17 20 25 30 34 38
9 10 11 10 7 6 3 2 3 13 18 10 7 4 7 12 16 15 14 12 9 6 7 6 3 5 6 7 6 6 9 15 18 16 15 17 21 22 25 28 32 36 40 43
10 9 7 6 6 6 3 1 1 10 15 7 11 4 9 13 15 14 11 10 10 12 9 5 6 6 6 7 8 11 13 12 11 11 15 21 25 29 32 35 38 41 43 44
10 9 6 4 4 5 7 7 6 13 8 6 11 4 11 16 17 16 14 15 15 13 9 8 6 4 10 17 11 10 8 7 11 17 21 25 30 34 37 38 41 43 44 44
12 10 7 6 3 2 5 10 10 8 5 3 9 13 11 20 23 21 20 18 17 15 10 7 5 8 12 11 10 14 14 13 16 18 25 30 35 38 39 41 43 43 43 42
9 8 6 4 5 6 7 13 3 1 2 3 8 10 19 9 19 23 21 21 19 16 12 9 5 9 10 9 12 16 17 18 19 23 29 34 38 41 43 44 44 44 43 42
9 4 7 10 10 7 11 14 6 5 4 3 7 7 11 13 17 21 19 20 18 15 11 9 10 6 11 15 18 19 21 23 23 27 33 38 43 45 44 44 44 43 43 43
9 6 8 8 12 9 7 11 14 4 2 2 6 9 11 13 16 26 27 24 19 16 12 11 13 13 18 18 20 23 25 27 28 34 37 43 44 42 43 41 41 41 41 41
7 5 9 8 11 11 7 8 5 6 4 3 4 8 13 9 14 26 31 28 22 18 16 15 15 19 22 23 24 28 32 28 33 39 42 39 39 39 39 40 41 41 41 42
11 7 8 9 9 11 10 8 5 4 3 3 2 5 2 5 10 13 18 22 21 19 18 18 20 24 27 29 29 35 35 34 38 40 39 37 37 39 42 42 43 44 44 43
14 8 8 12 8 10 10 8 7 4 4 6 3 8 4 2 11 17 18 17 20 22 22 23 26 29 32 31 35 37 36 39 42 35 35 37 40 42 44 45 46 45 44 43
14 9 7 5 10 13 13 13 11 8 7 7 3 4 2 7 7 15 23 25 25 26 26 27 27 28 31 31 33 36 38 42 32 34 36 39 42 44 45 46 47 46 44 41
15 15 12 16 7 10 17 17 14 12 7 9 17 20 16 15 12 9 17 20 24 28 28 29 28 28 27 30 34 36 40 35 33 35 37 40 43 44 47 47 47 45 43 41
16 16 17 14 11 9 10 11 13 16 17 15 19 22 16 16 14 12 14 20 24 26 27 28 26 24 28 32 38 36 37 34 33 34 38 41 43 45 47 46 44 43 41 39
16 12 16 15 16 13 15 15 16 19 21 23 24 26 17 16 16 16 15 16 18 21 27 26 24 26 28 35 34 34 35 32 33 35 39 42 45 46 47 45 43 41 39 37
15 17 13 9 14 16 15 22 22 22 22 22 24 19 19 20 17 15 16 16 15 18 23 23 22 24 29 33 34 34 31 31 34 37 40 43 46 47 46 43 42 40 37 34
11 14 13 7 9 3 17 19 18 18 15 17 21 21 20 21 19 18 17 14 16 18 20 22 24 28 32 34 34 30 29 32 35 39 42 45 47 47 44 41 41 38 35 32
10 11 8 5 10 17 12 13 17 21 21 16 21 22 23 20 19 17 16 21 20 19 21 24 27 30 32 32 29 28 30 34 38 41 43 46 46 44 41 40 39 37 34 29
12 13 13 9 5 4 6 7 13 20 23 19 12 12 15 17 17 21 24 22 20 20 23 25 28 31 28 28 25 28 33 37 40 42 44 46 44 41 39 39 37 36 31 26
8 9 14 16 13 10 14 18 20 11 13 11 14 13 20 23 26 29 27 24 22 21 23 29 37 24 25 23 25 30 35 39 40 43 45 43 40 38 37 38 35 33 27 24
12 6 8 8 7 7 9 9 10 13 21 23 24 27 26 27 28 27 25 26 23 24 27 30 36 26 23 20 26 32 37 39 41 43 42 40 37 35 36 36 34 30 24 25
14 15 10 9 9 13 21 24 23 24 23 24 28 28 28 28 29 28 29 32 29 29 33 32 28 23 15 21 28 34 37 39 41 41 40 37 35 34 35 34 32 28 25 27
17 15 19 21 22 21 23 25 25 25 27 28 30 29 29 29 30 32 34 32 31 32 34 36 24 14 18 24 31 34 37 39 39 38 35 34 34 33 33 31 29 25 23 25
15 19 24 26 25 23 21 23 24 25 26 27 29 29 30 31 32 34 31 31 31 38 38 23 14 18 21 27 30 33 36 37 36 34 35 34 31 30 30 27 25 23 21 25
20 20 20 21 17 20 23 24 26 28 28 27 29 30 30 30 29 27 29 32 37 35 26 13 17 19 23 27 29 32 35 34 33 35 34 31 29 28 26 23 22 19 20 22

GFSCGP_700_spd_006.txt.gz
Wind_Speed
7 12 15 16 15 6 10 10 14 13 13 10 12 8 13 16 16 16 16 15 15 15 14 14 13 14 15 14 14 13 8 9 6 3 5 2 4 9 13 15 17 19 23 28
5 10 11 17 17 10 6 12 12 16 16 13 11 10 9 13 17 17 15 14 14 14 16 16 17 17 17 16 11 6 8 5 3 4 4 7 12 15 17 19 22 25 29 33
14 13 14 13 11 10 9 10 10 13 20 14 12 7 13 13 16 18 18 16 16 15 13 14 13 13 13 10 4 4 3 0 2 6 9 12 14 17 21 25 29 32 34 36
9 11 12 11 7 7 8 2 1 4 17 12 18 9 10 14 16 20 20 19 17 15 15 15 12 15 12 5 7 4 7 6 8 11 12 14 18 23 26 30 33 36 38 39
9 12 10 8 7 7 7 5 5 7 9 8 11 11 8 14 18 22 22 19 17 16 15 12 18 11 2 4 3 7 11 12 10 10 13 19 24 27 30 33 36 36 37 39
14 13 10 7 7 7 9 8 9 7 6 9 8 11 10 13 17 21 22 20 19 20 19 21 15 7 2 4 5 8 10 11 13 17 21 24 28 30 34 40 39 39 40 39
10 11 10 8 6 7 9 11 6 7 7 9 7 8 20 12 13 19 21 22 21 21 20 17 12 7 4 5 8 10 11 14 19 23 26 28 30 34 39 39 40 40 40 39
14 7 9 10 10 8 11 10 7 5 6 7 5 8 9 16 22 17 17 19 22 22 19 15 13 9 8 10 13 16 17 20 26 28 28 29 35 39 40 40 39 38 39 39
9 5 10 10 13 10 10 11 11 5 3 5 10 12 16 16 17 19 23 27 26 22 19 17 16 13 12 15 18 21 24 27 32 35 32 36 39 40 38 37 37 38 39 40
9 4 9 9 10 12 10 7 4 7 3 5 5 9 11 9 19 19 27 29 28 25 23 21 19 15 17 21 23 26 29 31 36 37 36 41 42 37 35 36 38 40 41 41
8 6 6 9 9 9 12 9 8 5 4 3 3 2 3 4 10 12 20 29 30 28 24 23 21 20 21 26 28 29 31 37 40 39 39 40 35 34 36 38 40 41 42 41
13 9 6 10 12 14 15 10 10 8 5 5 2 8 6 1 4 12 19 25 30 28 26 25 24 25 27 30 31 33 37 40 38 39 36 32 34 36 38 40 42 42 42 41
15 9 6 4 8 12 12 16 15 13 9 8 3 5 6 7 7 9 18 25 27 28 28 28 28 30 33 33 33 34 37 37 37 35 34 34 35 37 39 41 42 43 42 41
12 15 11 13 6 8 14 20 18 13 7 9 15 14 14 15 13 11 15 24 28 32 32 32 32 33 35 33 32 34 35 35 33 36 34 34 36 38 39 41 44 44 42 41
14 13 18 18 14 12 12 13 19 21 17 12 12 15 12 13 14 15 15 17 25 29 30 30 31 34 32 30 32 34 32 32 35 34 32 35 37 38 40 43 44 42 40 40
16 14 17 18 18 17 17 16 17 19 20 23 21 23 17 13 15 17 18 17 19 24 26 27 29 31 31 29 32 31 32 35 34 31 32 35 37 38 42 44 43 41 40 38
17 17 13 8 17 18 15 25 25 24 23 23 20 16 19 17 17 18 17 17 17 19 20 24 28 29 29 30 33 30 33 34 30 29 32 35 37 39 43 44 42 40 38 35
13 16 13 8 7 4 14 18 18 19 18 18 17 20 19 19 19 20 17 16 16 16 20 22 26 29 30 33 31 31 33 29 27 30 34 36 38 42 44 44 40 38 36 33
11 11 8 5 8 15 13 12 13 16 17 15 17 19 23 21 20 19 16 16 21 23 20 22 26 30 33 33 37 33 27 24 27 31 34 36 39 42 43 42 38 34 34 32
14 13 13 8 4 4 7 9 12 14 13 12 9 10 15 14 16 14 20 26 25 23 20 22 26 29 34 38 42 31 24 23 28 31 34 36 39 41 42 39 34 33 33 32
6 8 14 15 11 7 12 15 15 5 6 9 17 22 25 24 20 22 25 27 25 24 23 24 27 31 33 40 35 24 20 24 28 32 34 37 38 40 38 35 32 32 32 31
7 5 6 7 6 6 7 5 5 10 20 26 23 22 25 27 27 26 27 27 27 28 28 28 32 34 37 38 20 18 20 24 29 32 34 35 36 37 35 32 30 31 30 29
10 12 8 7 6 12 18 19 19 21 24 25 26 27 29 30 30 30 30 30 31 31 33 34 35 38 36 34 21 16 18 26 29 31 32 33 35 35 32 30 29 29 28 26
15 13 15 17 17 16 20 23 23 23 23 23 25 26 28 30 31 32 32 32 33 36 34 36 39 42 42 29 13 13 22 27 28 29 30 32 33 32 30 28 27 26 25 23
15 17 19 21 20 20 20 20 21 22 25 27 28 28 28 29 30 31 32 33 33 32 36 40 43 34 26 14 12 19 23 25 26 28 30 31 30 29 27 25 25 25 21 20
16 15 15 16 14 19 21 22 24 24 25 26 29 30 32 32 32 32 32 31 31 33 41 39 25 16 9 10 16 21 23 23 25 28 28 28 28 26 25 25 24 23 20 19

GFSCGP_700_spd_009.txt.gz
Wind_Speed
8 6 16 13 14 6 8 9 14 15 11 11 11 12 15 17 17 17 17 17 16 17 19 17 17 18 18 17 18 17 16 14 13 10 7 6 6 7 8 10 14 17 21 24
11 18 13 10 14 8 6 7 11 9 12 10 13 12 15 17 17 18 18 18 18 18 20 20 19 19 19 19 18 16 13 12 10 8 7 7 8 10 11 15 18 23 25 30
10 15 19 14 12 11 9 11 12 11 13 11 13 14 16 17 18 19 18 17 18 20 20 21 22 22 23 22 19 14 11 11 10 7 7 9 12 12 15 21 26 29 30 34
6 10 10 12 9 7 9 5 10 5 14 21 19 17 16 18 19 19 20 19 19 18 19 20 20 20 18 17 14 10 10 9 7 9 12 14 10 14 22 25 29 33 38 37
9 8 10 10 6 11 8 8 6 5 10 16 17 14 14 22 19 17 21 21 20 20 18 16 17 19 17 15 10 10 8 7 10 13 15 18 19 23 28 31 34 38 38 37
11 13 7 5 7 6 5 6 7 10 13 10 20 18 25 19 18 17 18 22 21 18 17 20 21 21 18 12 9 11 12 12 12 15 19 22 25 28 28 36 38 39 37 37
7 8 11 8 6 6 7 9 14 13 12 10 11 10 18 17 8 15 19 18 22 22 22 25 26 22 18 13 12 15 16 16 17 20 23 27 30 30 31 34 38 37 38 38
17 11 13 12 11 7 12 15 16 7 7 12 5 9 10 11 9 11 20 20 19 21 24 26 25 23 20 16 17 18 20 21 23 26 30 34 33 37 36 38 37 37 37 38
16 6 12 11 10 8 12 13 12 11 6 11 21 21 15 14 10 12 20 22 22 22 25 26 26 26 24 19 19 21 24 25 27 31 33 36 37 38 40 39 36 36 38 39
6 5 6 9 10 12 12 5 7 11 6 11 14 9 10 5 8 13 21 23 23 22 24 26 27 28 25 22 22 26 28 30 31 33 38 41 41 39 36 36 36 37 39 41
12 13 6 8 12 13 10 15 12 7 6 5 4 4 3 5 7 14 19 22 23 24 25 26 29 28 27 27 26 27 32 35 35 36 40 43 41 36 35 36 36 38 40 41
13 10 10 13 11 15 7 11 13 11 8 6 5 15 12 5 1 9 15 21 23 23 24 25 30 30 30 30 30 33 36 38 37 39 43 41 37 35 35 36 38 40 40 41
13 12 11 10 10 10 13 14 13 11 11 11 5 6 4 10 12 7 11 18 22 25 26 27 33 33 33 34 35 39 40 40 39 42 41 38 36 35 35 37 39 40 41 40
14 16 16 16 9 4 13 14 16 16 12 13 16 16 11 9 8 9 10 15 22 25 28 29 35 35 36 37 39 41 41 41 40 41 36 35 36 35 36 38 39 40 41 41
14 12 16 17 11 11 10 12 15 20 21 18 16 13 13 13 13 12 15 15 19 26 30 34 38 40 41 42 43 40 42 39 39 37 33 36 36 34 36 38 38 40 41 41
16 11 15 17 14 18 15 16 17 18 19 21 21 21 18 15 15 14 15 20 20 24 27 30 32 36 39 41 40 40 39 36 40 38 33 35 32 34 36 35 38 39 41 41
13 17 13 10 10 10 15 25 22 21 20 18 21 20 15 12 15 16 15 19 19 22 24 27 29 31 33 37 38 38 37 39 44 35 37 29 31 35 34 36 38 39 39 39
16 15 9 6 3 1 11 12 15 16 19 21 20 18 16 15 15 19 21 18 20 20 21 22 26 30 35 37 39 37 39 42 43 43 37 29 31 34 34 36 38 38 35 30
14 14 8 5 10 11 12 12 9 8 11 8 8 10 11 15 15 17 21 18 18 18 24 26 26 29 33 36 38 39 42 46 44 43 25 28 32 33 35 36 37 35 33 28
13 13 10 8 4 4 4 8 8 9 9 4 11 6 9 19 18 17 16 19 22 28 26 23 23 25 30 34 38 42 47 47 47 30 25 27 33 35 35 36 35 34 32 30
10 13 14 11 8 7 9 13 12 6 3 10 12 17 15 17 14 19 23 26 26 28 27 28 27 29 31 38 40 45 45 41 30 23 22 27 33 34 35 35 34 31 30 30
6 5 6 7 6 7 9 5 2 7 14 19 22 17 18 25 26 26 28 28 28 28 30 33 33 33 35 41 46 50 51 38 23 19 18 26 30 33 34 33 31 30 30 30
5 9 5 7 4 10 10 15 13 21 23 22 23 22 22 23 23 25 22 31 30 29 31 34 38 41 42 42 48 49 42 22 18 16 20 25 30 32 31 30 29 28 28 28
13 12 12 12 5 9 11 17 18 18 17 18 20 22 24 25 26 27 26 34 32 33 36 38 39 39 41 44 46 34 21 15 13 18 21 26 30 30 28 27 27 26 25 25
11 14 12 14 16 13 11 10 12 18 21 23 23 24 26 28 29 31 33 34 32 35 35 38 38 39 40 42 33 21 14 13 15 19 24 27 29 29 28 25 23 23 23 24
15 11 13 10 11 16 12 17 25 24 25 26 26 27 31 32 32 32 33 33 34 33 36 34 39 38 30 26 22 16 14 15 19 23 25 27 28 27 27 26 24 23 23 23

GFSCGP_700_spd_012.txt.gz
Wind_Speed
2 4 7 9 9 8 8 16 16 14 13 12 14 12 15 15 13 16 13 18 16 17 19 16 13 14 15 12 13 15 16 13 14 16 13 12 10 10 9 10 10 12 17 21
4 11 11 8 12 16 12 11 12 11 9 14 13 14 18 17 16 16 15 14 14 14 17 18 17 18 19 20 18 18 18 15 13 15 14 14 11 11 13 13 16 18 23 27
12 8 14 12 14 14 11 6 10 8 7 12 10 8 15 17 16 16 17 19 17 20 26 23 23 24 24 23 22 21 19 13 16 12 11 13 14 18 19 18 19 25 27 30
4 18 18 16 15 14 8 8 10 8 13 17 21 10 8 8 20 23 23 23 22 23 28 26 24 26 28 27 24 21 20 17 11 17 14 14 19 22 20 23 25 28 32 33
9 13 14 11 8 2 5 2 8 11 13 10 7 11 18 23 22 23 24 26 25 28 28 25 21 21 24 24 20 25 23 16 16 15 15 18 18 23 25 26 28 29 31 35
12 7 8 11 7 4 1 7 10 12 16 5 12 21 20 17 27 21 17 23 26 28 27 24 23 18 23 23 26 24 20 18 17 18 18 18 22 28 28 31 33 34 37 35
5 12 8 9 8 5 7 9 13 4 7 8 18 11 14 12 18 27 19 27 25 26 21 18 20 18 25 27 22 20 21 20 19 19 19 22 25 30 32 34 37 42 38 35
17 20 15 14 11 3 12 14 9 6 4 11 7 4 8 2 9 7 19 25 20 21 23 26 29 32 28 24 22 21 23 22 23 22 23 26 29 32 36 36 39 42 38 35
5 7 2 8 8 6 9 14 12 9 14 11 7 18 17 6 5 3 17 20 18 18 21 22 26 27 27 27 25 24 25 28 26 27 29 31 31 35 38 40 42 37 35 35
15 15 19 11 14 9 11 9 5 8 2 5 11 14 6 3 3 3 14 18 19 19 20 23 28 29 29 29 29 28 28 32 31 31 34 35 36 37 39 42 38 37 34 36
11 23 7 6 8 11 9 11 14 12 10 1 4 3 6 2 2 5 11 18 20 23 20 23 27 30 32 33 32 30 32 35 34 34 36 39 39 41 42 39 39 35 34 37
10 7 11 11 10 8 9 8 13 14 10 6 5 15 13 12 5 7 8 16 22 25 24 24 26 28 34 35 33 32 34 38 38 38 39 41 42 45 40 40 37 35 36 39
8 8 11 12 10 11 14 16 12 9 13 9 5 7 9 14 15 14 8 12 19 23 24 25 29 31 37 37 36 36 35 39 41 41 42 43 45 45 42 34 34 34 38 38
14 11 14 14 15 8 17 15 15 16 13 14 20 19 11 17 10 8 11 10 15 23 25 27 30 35 41 43 39 38 39 40 42 44 40 45 48 45 38 35 31 33 37 38
15 13 14 19 19 8 11 9 12 18 19 20 18 16 15 13 7 9 8 14 14 14 25 25 31 35 40 46 45 42 41 42 42 40 39 42 43 44 35 32 33 32 35 37
17 12 12 15 15 16 17 17 17 17 17 20 21 21 15 15 15 14 16 13 18 17 16 26 31 35 41 47 45 39 39 41 41 37 40 45 45 44 40 37 31 30 34 36
12 15 14 12 11 13 15 22 23 21 19 19 19 17 15 15 12 10 12 12 17 21 21 21 28 32 34 35 36 36 38 40 41 37 42 44 50 46 32 27 27 30 34 37
16 14 10 7 5 1 14 9 10 12 13 16 18 18 13 14 13 16 19 15 14 18 20 21 22 23 28 31 35 36 37 41 42 40 41 51 49 39 36 26 28 31 34 34
15 13 9 6 9 12 16 9 5 4 5 6 8 10 8 12 13 9 16 13 17 18 21 21 25 28 26 26 30 33 36 40 42 45 47 48 35 28 20 24 25 30 34 34
13 15 13 7 3 4 4 9 6 5 5 3 7 6 10 13 17 15 17 19 21 18 20 20 22 24 26 27 28 34 39 43 45 39 37 40 25 19 19 22 28 32 35 34
9 12 14 11 7 6 8 11 13 5 5 10 10 14 19 18 15 20 24 25 25 24 23 25 23 24 25 30 34 37 42 44 50 50 53 34 25 19 20 26 30 34 34 30
4 6 7 11 6 8 11 9 4 8 9 14 20 18 22 20 22 21 21 20 21 30 25 23 29 33 34 37 40 45 47 52 52 50 35 25 19 17 22 26 32 33 29 28
5 10 7 8 2 8 8 10 10 13 16 20 19 16 15 16 18 20 22 22 26 30 32 34 34 34 35 38 42 45 50 53 41 35 25 18 17 19 24 30 31 29 28 27
10 12 13 13 7 6 8 11 12 12 9 8 15 19 17 21 24 23 24 28 34 34 36 36 33 32 32 33 38 43 47 38 29 19 17 17 17 23 28 29 27 27 27 28
11 12 9 10 11 11 9 12 12 16 19 21 22 24 26 25 26 28 33 35 34 32 31 32 34 36 35 33 32 29 25 21 17 18 15 19 24 26 28 30 28 25 26 28
15 12 13 12 13 16 16 21 21 25 27 26 25 26 25 27 31 33 31 31 30 29 27 30 29 30 26 22 20 19 17 18 15 17 22 25 27 28 29 30 28 28 27 27

GFSCGP_700_spd_018.txt.gz
Wind_Speed
5 4 5 5 2 7 4 4 9 10 9 10 16 16 19 21 17 13 11 9 13 10 8 7 6 11 13 12 11 10 10 10 10 9 10 9 8 11 12 10 12 13 14 16
1 2 2 3 4 3 3 3 11 14 16 14 11 21 23 23 19 16 7 10 8 11 11 12 10 10 13 11 12 14 15 15 14 14 15 12 12 14 12 11 11 12 16 18
5 4 10 4 14 6 8 11 10 3 6 11 13 23 25 22 20 19 15 14 10 13 13 13 10 10 14 16 17 17 15 15 19 22 20 15 17 14 12 12 13 13 15 16
11 11 11 9 18 11 19 9 13 4 3 6 5 8 24 24 23 23 26 23 21 17 17 18 16 14 16 15 18 19 19 20 22 25 23 17 16 14 11 12 13 17 19 22
10 7 14 24 20 12 15 11 12 8 9 5 6 2 15 26 21 24 25 23 28 21 21 21 20 20 20 20 22 24 27 23 25 23 20 17 17 15 15 15 18 21 24 26
10 8 13 12 15 11 8 7 8 7 8 2 10 11 17 24 27 28 27 27 24 25 24 24 23 23 24 23 23 23 29 25 27 27 17 20 18 18 19 21 25 29 31 33
14 7 6 11 17 13 11 8 3 0 1 4 4 4 16 16 17 21 24 27 23 20 27 27 28 28 28 26 25 31 30 27 29 29 20 21 22 24 27 30 33 35 36 39
13 3 13 7 8 8 14 9 4 4 3 4 6 8 6 11 19 17 17 21 24 24 23 24 25 29 28 27 28 35 24 27 28 29 22 25 28 30 33 35 37 39 41 43
12 11 11 12 4 6 4 13 7 4 4 2 4 6 15 6 7 10 10 17 26 25 22 25 25 31 31 32 33 23 23 25 25 25 26 28 32 36 37 38 42 42 45 45
19 10 15 12 13 7 9 6 3 4 4 2 4 7 4 8 9 7 8 16 21 28 20 20 22 25 27 27 29 28 28 24 24 27 30 32 36 39 41 43 45 45 47 49
28 18 10 14 22 22 10 11 15 12 5 4 1 3 5 3 5 4 5 7 14 16 14 14 13 11 13 19 25 25 26 24 27 30 32 35 39 41 44 45 48 49 49 51
32 22 18 18 6 14 14 15 15 13 6 6 4 8 11 7 5 8 6 3 7 12 12 14 17 17 16 17 19 21 21 20 20 20 23 29 34 37 39 43 47 49 51 52
26 15 11 8 12 19 20 17 20 17 13 15 7 7 11 12 14 16 9 4 5 7 15 19 21 21 23 24 24 27 28 28 28 30 31 33 38 40 37 40 44 47 49 53
23 19 18 18 16 14 12 12 12 16 13 15 21 19 16 19 18 15 13 10 6 9 17 22 23 24 26 28 29 30 31 33 33 35 35 38 39 37 39 42 43 46 50 51
21 21 17 14 15 15 12 12 10 11 12 15 16 20 16 15 13 10 13 11 11 12 14 16 21 25 28 32 34 34 37 38 37 37 37 36 36 38 41 45 47 52 54 53
19 18 21 22 23 20 17 15 16 19 15 11 8 8 15 13 12 10 15 17 17 14 12 11 17 21 22 25 34 34 36 35 32 32 34 33 36 39 45 50 53 58 60 58
19 21 18 17 17 16 16 27 23 21 23 21 22 15 12 15 16 15 13 13 13 13 15 16 19 24 27 26 22 23 27 26 29 31 33 35 40 44 47 52 56 62 58 43
20 21 19 13 14 1 13 14 12 17 18 16 11 10 11 16 15 12 9 9 12 14 16 18 21 22 24 26 25 26 28 29 32 34 37 40 45 48 50 55 59 61 41 35
20 20 16 8 14 11 11 10 12 13 8 8 8 12 13 11 7 7 9 14 16 16 19 22 24 24 24 24 24 26 30 34 37 38 40 44 50 51 53 61 57 41 34 31
19 18 20 11 5 7 14 20 17 16 14 14 10 10 9 9 11 15 18 22 22 21 21 21 19 17 18 20 22 25 29 32 37 41 44 47 54 48 54 51 40 38 35 19
21 20 20 19 12 10 13 11 11 15 12 17 16 14 14 15 18 23 26 26 24 21 19 20 22 24 26 24 22 20 26 32 38 44 43 51 48 54 46 42 41 27 19 20
17 15 18 18 11 11 15 19 20 16 13 14 14 13 15 21 23 22 21 20 20 21 22 24 27 29 30 28 25 20 23 28 33 35 38 42 47 41 37 41 29 21 22 27
15 15 13 13 8 9 8 14 13 12 11 11 12 18 19 16 16 18 20 21 22 24 26 29 31 29 28 26 26 26 28 33 35 34 36 39 40 42 40 28 23 25 28 30
18 15 13 12 12 10 10 12 15 15 15 16 16 18 16 18 21 22 23 24 26 28 31 30 28 27 28 26 27 28 31 32 33 34 32 30 31 31 30 27 28 31 31 31
20 18 16 17 13 15 16 17 18 18 18 18 18 20 20 22 26 25 25 26 28 31 27 27 28 27 24 23 23 23 22 22 24 25 26 27 28 30 29 31 32 33 33 34
21 19 19 22 19 18 19 20 20 21 19 19 20 22 25 28 26 25 25 29 30 27 26 25 23 21 20 19 19 20 21 21 23 24 27 29 31 31 32 34 35 34 35 37

GFSCGP_700_spd_021.txt.gz
Wind_Speed
5 4 6 6 4 4 6 4 3 1 9 18 17 15 13 10 10 12 7 7 11 12 12 12 11 10 11 12 11 8 7 5 5 5 4 4 5 8 11 11 11 12 13 14
1 2 3 2 3 3 5 3 6 6 11 13 12 16 18 15 10 9 7 7 11 11 8 8 11 12 11 10 10 10 11 10 9 10 11 11 11 13 14 12 12 11 12 15
4 3 5 4 8 5 1 5 11 16 4 10 14 16 21 19 17 17 18 13 12 7 6 3 4 6 11 13 13 11 11 12 13 15 19 18 16 16 12 11 12 15 15 16
9 7 9 10 12 7 9 5 13 7 5 6 9 6 24 22 21 22 24 24 16 16 15 16 11 10 7 5 13 14 15 15 16 18 20 19 21 17 14 13 14 15 18 20
11 4 9 14 21 18 11 16 12 8 7 11 11 4 17 27 27 27 25 31 29 23 21 21 16 12 11 10 12 14 15 18 19 22 21 20 17 19 19 18 18 21 24 27
11 6 8 19 15 11 15 15 8 9 7 1 5 6 8 20 21 24 22 24 26 30 25 25 20 19 17 19 18 19 20 20 20 24 22 18 16 19 23 21 23 27 31 34
13 7 9 14 18 17 13 12 3 1 1 4 5 4 11 10 17 21 26 28 29 28 27 31 23 22 19 21 21 20 22 24 24 25 21 26 23 21 25 28 30 33 36 38
16 8 12 9 7 11 8 8 4 3 3 3 7 6 11 8 13 17 19 20 24 23 25 24 24 22 20 19 20 20 23 21 25 24 24 28 30 26 28 31 35 39 41 43
12 14 10 12 5 7 8 6 6 2 2 1 4 9 11 13 11 13 10 11 15 22 21 19 17 23 21 19 20 19 22 24 24 24 27 27 30 29 31 34 37 41 44 46
22 3 15 14 11 9 11 8 4 2 2 3 5 6 9 8 7 5 6 7 12 15 18 18 14 13 14 17 19 19 20 21 24 26 26 25 28 29 31 35 38 39 46 49
23 19 10 17 14 14 17 15 11 7 5 4 1 4 7 8 4 2 2 5 8 14 14 14 13 7 5 7 7 10 14 17 20 22 22 21 19 22 26 31 33 38 42 46
23 22 22 19 20 19 24 24 14 6 5 7 7 13 11 14 11 7 7 7 5 9 12 12 11 10 11 14 16 18 19 21 21 21 23 24 27 27 30 34 34 35 37 41
25 26 18 18 22 20 18 22 18 19 18 16 10 11 8 11 17 15 17 11 11 6 8 9 12 14 16 19 21 23 24 25 26 27 28 28 30 32 35 35 35 39 41 43
20 26 24 25 20 19 20 20 21 21 21 19 24 24 16 16 18 18 16 14 15 13 11 13 15 18 22 25 28 32 32 33 32 32 34 33 37 36 33 35 38 40 42 45
23 25 17 21 17 18 17 16 18 18 17 19 21 20 15 17 15 12 12 14 17 16 14 15 17 20 21 26 28 32 34 34 34 34 35 32 34 34 35 37 40 42 46 49
25 17 23 20 18 19 22 24 19 19 18 18 15 14 11 16 19 15 11 18 20 19 18 17 17 19 21 23 24 23 24 31 34 31 29 30 32 34 35 37 42 48 51 54
26 25 21 22 21 21 22 31 32 29 26 24 22 20 20 19 15 16 16 17 22 19 18 17 17 20 23 23 24 25 25 22 23 25 27 29 32 33 34 41 46 50 54 55
29 25 23 18 17 3 24 24 26 31 33 33 32 26 21 19 20 21 19 17 15 15 15 17 19 22 23 25 26 25 23 21 21 24 29 31 34 38 44 48 50 52 60 48
25 21 17 11 19 16 10 16 15 19 18 17 17 14 14 16 19 18 15 14 14 16 18 19 21 23 25 24 23 24 25 26 27 28 31 34 37 41 48 57 54 53 48 48
22 21 23 13 6 8 25 21 25 16 16 16 13 12 15 17 15 14 12 13 16 17 17 18 19 21 23 24 26 27 27 28 28 29 32 36 43 53 41 46 54 46 43 42
24 24 24 25 14 12 16 14 14 20 17 21 18 15 14 13 12 14 17 20 21 20 20 21 23 25 28 29 29 28 26 25 25 27 32 38 42 41 44 47 39 40 40 43
28 24 21 22 19 14 16 18 22 17 19 10 15 17 16 14 16 20 19 17 19 21 23 24 25 27 30 31 29 28 27 26 27 27 30 30 34 38 37 43 43 42 37 32
22 26 23 17 18 15 11 16 21 22 17 12 10 12 12 16 18 17 17 19 22 23 24 26 28 31 30 29 29 30 28 28 28 30 32 31 33 36 37 35 35 36 36 35
26 19 22 17 17 14 15 13 15 15 14 12 11 13 16 18 17 19 21 23 24 25 26 28 31 29 28 29 29 26 27 27 28 30 28 28 29 32 34 37 39 40 38 39
27 25 22 22 19 17 18 17 16 15 14 14 16 17 18 20 21 23 26 28 26 27 29 32 30 29 28 26 23 22 22 22 23 26 28 30 32 34 36 38 39 39 40 41
27 27 26 24 20 18 13 14 16 18 19 20 21 21 22 23 24 26 29 27 28 29 33 30 29 26 23 21 21 21 22 23 24 26 29 31 33 34 36 37 39 38 40 41

GFSCGP_700_spd_024.txt.gz
Wind_Speed
3 6 10 7 5 2 4 1 5 2 12 13 11 6 11 7 5 5 9 13 14 15 14 12 11 14 16 15 14 11 9 7 6 4 4 6 6 6 6 7 7 7 9 11
2 3 5 5 3 1 3 3 3 5 10 10 9 12 14 14 8 3 4 10 15 13 12 11 9 9 10 8 8 9 8 6 5 5 7 8 11 11 11 11 9 10 12 13
6 4 2 4 5 4 3 1 9 18 7 13 14 16 17 17 15 14 11 10 10 9 7 8 6 5 6 7 7 7 9 9 10 11 11 14 15 15 13 13 12 12 16 17
8 6 9 9 8 10 10 4 15 12 5 2 9 4 16 17 19 18 16 14 13 14 13 14 10 7 4 4 11 12 12 13 15 14 14 15 15 15 17 17 18 17 18 21
5 6 6 10 12 11 16 10 16 9 4 5 7 2 5 19 24 21 19 18 16 17 17 17 13 10 10 10 8 11 13 14 13 13 14 14 18 18 18 22 25 22 23 25
13 12 13 16 15 15 11 12 12 9 5 2 6 7 7 12 15 16 20 21 21 19 19 21 21 17 17 15 16 15 17 18 18 17 14 16 18 17 18 20 23 25 26 28
15 15 12 7 15 18 14 11 4 2 1 4 6 5 8 13 15 17 14 18 20 22 21 20 21 22 19 19 19 19 21 20 23 21 18 18 20 20 24 23 24 25 29 34
15 14 15 10 13 14 12 7 5 3 2 3 4 5 8 16 14 16 18 17 20 20 22 22 20 17 20 19 18 17 17 19 20 22 23 24 25 21 24 28 28 28 30 32
8 17 14 14 9 9 10 6 6 4 2 1 5 11 14 10 15 17 12 6 3 8 15 17 15 16 18 20 17 16 16 16 15 20 24 26 25 25 24 25 28 29 27 28
22 7 17 15 14 10 7 7 4 4 3 3 5 7 10 12 9 3 5 6 6 7 5 9 10 11 12 16 16 16 17 16 15 20 23 22 21 23 21 22 22 26 28 28
23 19 16 15 19 16 12 11 11 8 5 4 1 5 7 11 11 6 4 4 5 7 8 7 7 12 14 15 15 9 7 9 12 17 22 24 24 24 24 24 26 27 27 31
22 12 20 23 14 14 12 13 17 16 7 7 6 16 15 14 15 11 9 10 7 5 7 9 9 9 8 7 7 7 11 15 18 21 23 25 25 26 26 28 28 26 27 32
23 30 19 21 28 24 27 24 23 19 12 15 7 15 14 10 13 13 14 17 12 10 7 5 7 6 10 12 14 17 18 20 25 27 30 32 30 33 30 29 27 26 30 34
21 29 26 27 27 18 18 22 19 19 12 14 22 26 23 21 19 17 17 18 15 14 12 11 11 11 15 16 19 21 22 25 28 31 33 33 33 31 28 28 27 29 33 37
24 22 31 28 30 27 24 21 21 23 25 22 24 23 19 19 19 18 15 14 13 15 15 15 16 19 19 19 22 24 26 28 30 33 33 34 31 29 27 29 32 35 37 44
25 21 22 30 25 21 21 20 21 22 22 24 21 22 19 16 15 19 17 18 15 16 20 20 19 19 20 21 22 24 27 28 31 29 29 30 26 28 28 30 34 37 39 41
28 25 22 22 19 20 23 25 25 29 31 30 28 27 22 22 21 19 17 17 20 21 20 20 20 18 20 23 24 27 31 33 32 28 26 26 27 27 29 33 37 46 51 50
29 30 26 20 18 3 26 27 26 28 31 31 33 34 31 31 25 21 21 19 18 17 15 15 16 20 24 27 29 29 28 25 25 26 26 26 27 29 31 36 41 45 43 47
32 28 22 15 20 23 21 23 21 17 20 20 23 26 26 27 24 19 19 17 14 13 15 19 24 27 27 25 24 24 24 26 27 29 29 28 28 29 33 39 41 46 54 45
27 27 30 14 8 8 26 21 25 22 28 24 16 11 12 17 18 16 13 11 14 17 21 23 23 22 22 22 23 26 28 29 28 27 27 27 25 28 31 41 45 38 36 37
27 28 27 25 17 19 22 19 15 19 28 19 20 15 13 15 15 15 13 15 18 21 22 21 20 21 23 26 28 30 31 28 27 26 25 27 28 31 32 32 33 34 37 41
32 28 26 26 16 16 23 22 26 27 19 17 13 14 17 17 16 15 16 19 21 21 20 21 23 25 27 29 32 32 31 31 29 26 25 26 28 29 31 32 34 36 36 36
34 35 29 27 27 27 18 14 21 22 21 11 9 11 16 17 16 16 18 19 17 18 22 24 25 27 29 33 32 30 31 28 27 28 29 28 28 29 29 30 33 34 36 39
33 28 35 28 29 28 25 21 18 16 17 16 11 12 15 15 17 19 17 18 20 23 26 26 28 30 32 32 30 30 25 24 24 25 25 26 27 28 31 32 35 37 38 39
32 30 33 34 30 23 19 18 17 15 15 15 14 14 15 17 18 18 20 22 25 27 29 28 30 32 33 31 28 23 22 23 24 25 26 27 29 31 33 34 36 38 39 41
30 29 31 32 23 22 16 13 16 18 16 16 15 16 18 20 20 22 24 26 28 30 28 29 31 33 31 26 22 22 23 23 25 26 27 29 31 33 35 37 37 38 41 43

GFSCGP_700_spd_027.txt.gz
Wind_Speed
5 6 8 10 5 2 3 5 3 4 9 12 7 6 4 3 1 4 8 10 13 15 15 16 16 19 18 17 16 15 16 16 15 13 13 13 12 11 10 10 9 8 8 8
5 5 8 8 7 5 3 6 3 1 4 15 12 12 10 7 1 2 6 11 15 15 16 17 18 19 17 15 14 13 11 10 10 10 12 12 13 12 14 11 10 12 13 13
7 9 8 7 7 9 6 5 8 8 5 7 10 13 14 12 10 10 11 11 16 15 14 13 13 14 15 15 15 14 13 13 12 12 13 12 14 14 14 14 13 15 16 18
8 10 6 6 6 10 9 10 8 10 2 3 11 5 11 15 12 15 15 17 16 17 15 14 10 11 9 9 13 12 12 12 12 13 14 14 13 16 14 17 19 18 18 20
10 9 7 5 3 8 11 12 7 8 4 4 7 3 4 3 8 13 15 17 18 19 19 18 18 15 13 12 9 12 14 14 14 16 17 16 14 15 17 20 21 23 24 25
16 9 6 6 9 12 15 9 8 6 3 2 5 7 5 8 7 11 12 16 17 17 19 21 20 20 20 19 19 17 14 15 16 17 18 17 13 15 16 20 19 23 22 25
20 15 10 10 10 14 14 11 3 1 2 3 5 5 11 5 10 14 15 12 12 15 20 21 22 24 25 22 22 20 20 19 17 18 22 20 16 19 18 20 23 28 25 26
19 10 15 10 6 9 12 13 7 3 3 2 6 6 4 9 14 15 14 12 15 18 21 22 23 23 24 24 24 21 23 20 18 19 24 23 26 28 25 28 27 27 27 27
19 15 12 10 9 9 12 13 11 7 3 2 4 8 9 8 11 12 4 8 10 11 14 17 20 20 20 21 22 19 20 20 19 20 21 22 24 23 23 24 23 24 25 26
15 7 16 14 11 11 11 11 6 6 4 3 3 5 6 8 7 8 5 2 4 6 5 7 10 13 13 16 19 21 16 18 20 20 20 22 26 24 26 26 27 22 24 27
28 19 12 13 18 17 15 13 9 7 4 3 3 5 6 7 10 10 3 4 6 6 4 6 9 12 12 14 19 15 18 17 15 15 17 20 23 24 27 27 28 29 30 28
27 18 19 20 16 16 21 17 16 6 5 9 7 13 19 12 12 11 9 11 9 9 6 7 7 11 6 6 9 10 10 11 12 16 19 22 24 24 26 29 31 33 29 27
28 22 17 13 17 18 17 17 15 17 20 17 9 10 9 14 11 12 14 12 13 12 10 4 6 6 6 7 7 9 12 17 20 20 21 24 28 30 31 30 30 28 26 27
25 30 24 24 22 19 23 27 23 22 17 19 25 27 20 14 15 16 18 16 16 17 15 13 11 9 12 13 14 17 20 23 23 24 25 28 32 34 33 32 32 29 28 27
26 23 23 24 28 28 27 27 22 24 24 23 23 27 20 17 14 16 17 17 15 13 14 17 15 17 17 18 20 23 23 23 25 28 31 33 35 38 39 36 34 28 26 30
34 29 25 24 24 29 27 27 27 24 23 24 26 28 22 20 18 16 16 17 18 16 17 19 21 21 21 21 22 24 24 25 27 30 33 35 31 30 31 30 27 26 29 34
29 28 24 21 21 24 26 30 25 26 26 26 30 31 26 24 21 21 21 18 17 18 21 23 23 21 20 20 21 22 25 29 31 30 27 25 25 25 26 25 26 27 32 38
25 30 28 18 19 7 22 23 22 24 27 30 35 33 28 27 26 27 25 23 22 22 21 19 18 17 17 19 22 26 29 28 26 25 25 26 28 28 28 27 27 30 36 46
23 26 21 15 23 22 18 21 25 23 34 28 24 17 22 26 27 25 25 23 20 18 16 16 16 18 20 23 26 26 24 24 26 27 27 27 27 27 28 29 28 30 27 30
26 26 29 15 11 10 23 23 24 22 38 32 25 23 20 17 20 21 21 18 18 16 16 17 19 22 23 22 21 21 23 25 26 25 24 24 25 27 27 29 32 34 33 31
27 29 30 29 17 19 18 18 19 19 37 22 11 17 18 16 13 13 18 17 16 16 17 19 20 19 19 20 21 23 25 26 25 26 24 21 21 22 23 24 24 26 26 27
30 28 24 28 19 16 24 24 28 28 24 19 19 14 14 15 17 18 17 16 15 16 17 16 16 18 20 21 24 26 28 28 28 26 23 22 23 24 25 25 25 26 28 29
31 31 31 28 29 30 24 26 27 24 19 21 16 13 16 17 19 19 17 15 16 15 14 16 18 20 21 23 26 29 29 29 25 23 22 22 23 24 25 26 27 28 31 33
33 29 32 31 32 32 31 29 29 24 19 15 13 12 15 21 21 19 17 16 15 15 17 19 21 23 24 27 29 30 29 26 23 22 22 23 24 25 26 28 29 31 33 35
31 31 33 34 33 33 33 32 30 21 18 17 15 16 18 21 21 18 18 17 17 18 20 22 25 25 27 29 30 29 26 23 22 22 22 23 24 25 27 29 31 33 35 39
34 31 31 31 27 27 25 23 20 20 19 18 16 17 20 21 21 20 20 20 20 21 23 25 27 28 30 31 29 24 22 22 22 22 23 24 26 28 29 30 31 34 38 40

GFSCGP_700_spd_030.txt.gz
Wind_Speed
12 11 14 13 13 6 3 6 7 3 7 5 7 5 4 3 1 4 9 10 13 12 15 17 18 19 18 19 19 18 18 18 19 19 18 19 18 18 17 15 14 14 14 14
12 12 12 15 13 9 7 7 6 5 5 8 9 9 9 7 2 4 7 11 14 17 16 18 20 20 20 18 17 18 17 17 17 16 16 15 15 16 16 17 16 16 16 17
12 7 12 13 13 12 9 10 5 3 5 9 6 10 12 11 10 10 9 11 15 16 16 17 20 19 18 17 17 17 18 18 17 17 17 17 18 18 19 20 19 17 16 19
15 13 10 10 11 11 12 12 2 2 4 6 11 5 7 12 12 16 16 17 16 15 16 16 15 17 16 16 17 17 17 17 17 18 18 18 18 18 18 19 21 19 23 22
15 18 14 12 13 10 11 11 7 5 5 4 5 8 4 4 8 11 18 20 19 19 19 20 19 19 17 17 17 17 18 18 18 18 18 18 19 20 23 22 24 25 25 28
16 15 11 13 11 9 11 10 6 6 5 7 7 8 7 7 6 5 10 13 22 23 22 22 21 21 21 21 20 19 20 21 21 20 19 19 20 24 23 22 23 26 24 26
23 18 13 13 10 12 14 14 14 8 7 7 7 7 12 6 8 7 8 9 15 21 27 27 27 27 26 26 26 24 22 20 19 19 18 18 21 21 24 23 24 23 25 28
26 22 19 16 13 13 21 22 14 6 6 4 5 7 6 7 10 11 11 12 12 18 23 27 29 30 30 30 27 27 24 25 24 21 19 21 23 24 27 28 27 29 27 29
27 24 16 18 14 11 14 19 15 9 5 6 9 8 10 7 6 9 6 6 10 13 20 25 27 30 31 33 31 28 27 26 23 21 22 23 27 26 25 23 25 32 38 30
17 18 19 16 16 16 12 16 10 10 6 7 7 7 6 6 5 6 9 6 6 8 10 12 19 25 26 29 29 27 27 25 23 25 25 25 25 27 26 30 33 28 29 31
24 18 11 22 18 18 16 11 12 9 8 6 5 7 7 7 7 10 9 5 2 4 3 4 9 15 20 24 24 24 28 28 29 26 27 28 28 25 29 28 27 29 30 34
31 21 23 18 15 19 18 19 18 15 10 5 5 13 14 13 9 8 11 9 8 6 8 8 7 9 18 20 21 20 22 24 26 24 22 22 25 26 27 27 29 31 32 34
34 25 21 21 19 20 17 18 19 16 14 13 9 9 10 9 13 11 12 14 13 12 10 11 10 8 11 9 10 13 15 17 19 20 21 23 26 28 29 30 32 33 35 34
26 27 32 23 22 20 19 20 20 21 17 18 19 19 14 13 15 14 15 19 20 17 16 13 14 14 12 12 13 15 17 19 20 23 25 27 29 31 34 35 36 38 38 36
33 32 26 26 23 23 26 23 25 27 25 23 23 20 18 18 17 17 18 17 17 21 18 16 18 18 18 17 19 20 22 21 22 24 26 28 31 33 34 36 36 35 36 37
30 21 24 25 24 26 25 25 26 26 26 26 23 24 20 17 18 19 19 17 16 18 19 17 17 21 20 22 23 24 23 25 25 25 28 31 34 36 35 32 32 33 34 32
30 30 23 23 22 22 16 27 24 25 25 26 26 24 18 21 25 23 23 22 22 18 16 19 21 23 23 22 20 20 20 21 24 28 31 33 31 29 30 31 32 32 32 30
24 28 22 18 19 8 20 19 19 23 26 24 24 24 25 25 25 24 25 25 24 23 20 22 22 21 19 18 18 19 21 25 28 29 28 27 28 30 31 33 33 34 35 32
21 23 16 13 17 19 17 22 20 23 24 22 26 24 26 26 20 24 27 28 28 27 24 22 20 19 18 18 20 22 25 25 25 24 25 26 27 28 29 30 31 31 32 31
22 25 21 18 12 9 19 20 20 19 27 20 22 22 26 24 25 24 23 25 25 24 21 20 18 17 18 19 21 22 22 22 22 23 24 24 25 25 25 25 25 25 24 24
25 26 27 24 12 15 17 16 16 16 29 15 21 17 12 19 22 22 15 21 24 23 20 18 17 18 19 21 21 20 20 21 22 23 23 23 22 22 21 21 22 22 23 24
21 23 21 19 14 15 19 20 22 27 22 20 22 16 16 20 19 18 17 21 23 21 19 18 18 19 19 19 19 19 21 23 24 23 23 22 22 22 22 23 24 24 24 25
23 20 20 26 24 28 23 20 20 19 24 23 21 18 18 18 19 20 20 23 23 20 18 19 19 18 18 18 19 21 23 24 24 23 22 22 22 22 22 22 23 24 26 27
37 25 26 26 29 29 26 24 26 28 27 25 21 19 17 20 21 22 24 24 22 19 19 19 18 18 19 21 22 23 26 25 25 23 23 22 22 22 23 23 24 27 28 30
32 35 29 33 30 26 26 27 26 27 26 26 21 19 20 20 23 26 26 24 22 21 21 20 20 21 22 24 26 29 28 26 24 23 23 22 22 23 24 26 27 29 30 31
35 28 32 37 29 29 23 23 24 24 24 22 21 22 22 24 25 27 27 26 24 24 23 23 24 25 26 27 29 31 30 25 23 23 23 22 22 24 26 28 31 29 31 34

GFSCGP_700_spd_033.txt.gz
Wind_Speed
12 14 18 15 17 16 10 8 11 4 3 8 9 6 4 6 8 10 12 13 11 11 10 12 15 14 14 14 14 16 18 18 19 19 20 19 20 20 19 16 18 18 18 17
15 18 16 16 14 15 12 12 13 7 4 6 9 11 5 6 9 10 12 13 15 14 15 16 17 16 16 16 16 17 18 18 17 17 17 18 19 20 18 19 20 18 18 18
19 8 13 15 16 15 14 16 8 9 7 10 12 15 12 9 10 13 13 13 16 18 18 17 20 18 17 17 16 16 16 16 16 16 18 19 21 23 22 20 20 20 18 17
20 15 12 14 17 17 18 13 8 5 9 9 10 2 13 14 13 15 17 17 17 19 19 19 19 20 19 18 18 18 19 18 18 18 19 19 19 19 18 19 19 21 24 23
23 21 17 18 18 15 11 11 11 12 13 10 9 11 10 11 12 16 18 19 20 20 22 22 17 16 16 17 18 19 20 20 20 21 21 20 20 21 22 23 22 24 25 26
23 17 19 18 17 15 13 9 11 14 15 12 12 18 7 14 13 10 16 18 21 23 22 24 23 21 20 20 21 22 22 21 22 22 21 21 20 21 24 27 22 25 27 28
27 21 21 18 18 16 16 14 17 10 13 10 10 8 14 7 7 7 6 9 19 24 25 25 26 27 26 26 25 24 24 23 24 24 22 20 21 23 25 28 30 25 30 29
31 30 26 20 24 21 20 23 21 5 9 10 8 9 18 9 5 7 9 11 13 18 25 28 29 30 29 30 29 27 25 24 24 25 23 24 23 25 26 25 29 27 35 37
32 31 26 25 20 21 17 24 25 27 11 8 15 10 11 11 9 7 7 7 8 13 19 26 29 30 31 30 33 34 30 29 29 29 30 32 26 26 28 27 29 27 25 46
22 25 20 22 19 19 20 11 21 19 12 11 18 18 7 9 7 8 6 7 6 6 10 16 22 27 30 31 32 36 35 33 31 29 34 26 25 26 28 28 26 27 34 32
36 20 24 20 25 25 19 18 18 16 25 10 10 14 9 7 6 8 9 9 6 4 4 6 10 12 21 27 29 32 32 31 34 33 34 31 27 30 28 28 29 31 32 32
37 26 26 26 25 24 22 22 24 21 17 19 17 19 5 9 11 10 8 11 9 9 9 10 10 10 13 19 21 22 22 24 30 34 33 31 28 29 27 28 29 30 31 32
36 36 22 26 22 20 23 22 20 22 22 10 15 15 8 9 8 10 11 12 12 11 12 13 14 15 16 18 18 20 22 20 21 26 29 29 27 25 26 29 31 33 35 37
37 30 37 27 28 24 26 24 25 24 21 21 25 20 15 13 10 12 13 15 14 16 18 13 15 16 19 19 17 16 16 19 22 21 22 23 24 25 29 31 34 36 36 37
31 39 32 34 27 26 28 29 29 28 28 28 26 24 21 18 17 15 12 15 16 20 19 21 21 20 22 23 21 21 20 22 22 22 22 25 28 30 31 34 36 38 39 35
29 29 29 33 31 29 27 25 26 29 30 30 29 29 23 20 16 15 15 19 21 19 15 19 23 22 24 27 28 26 26 24 24 27 29 30 31 31 33 36 37 35 34 34
24 29 27 30 28 28 32 28 27 27 30 26 29 30 23 23 20 19 18 20 24 23 22 19 21 24 25 28 29 30 28 28 27 27 27 28 31 33 34 33 33 34 35 36
17 22 28 22 19 15 23 21 25 28 27 26 27 25 22 20 21 19 19 22 26 26 25 24 21 21 24 25 25 24 22 22 22 24 27 30 32 31 31 32 33 34 34 34
18 16 19 22 21 20 22 21 20 21 24 22 24 24 21 21 23 29 27 26 27 28 29 28 26 23 23 23 22 21 21 22 25 27 28 28 28 29 30 30 31 31 31 31
17 21 23 16 21 19 23 22 17 18 25 18 18 18 18 21 27 25 25 24 25 26 28 27 27 25 23 22 21 22 23 24 25 26 26 26 27 26 27 27 28 28 28 27
21 24 29 26 16 19 17 16 19 19 24 11 13 14 17 21 22 19 22 25 23 23 25 26 26 24 22 21 22 22 23 24 24 23 24 24 25 25 26 26 26 26 26 26
15 18 18 22 23 20 15 19 21 24 18 15 17 15 18 19 28 22 22 22 21 21 24 26 25 23 22 22 23 24 24 23 23 23 23 24 24 23 24 25 26 26 26 26
26 16 18 18 20 25 21 23 22 17 18 19 17 17 23 24 27 25 23 23 23 23 26 26 25 24 23 24 25 24 23 23 23 24 24 24 23 23 24 24 25 25 25 26
21 26 25 15 17 18 17 19 17 20 19 21 25 24 25 24 24 24 24 24 25 26 27 27 26 26 26 26 26 25 24 24 26 26 24 24 24 24 24 24 24 25 25 27
27 21 27 31 29 26 20 22 20 22 22 23 22 24 25 24 24 24 25 25 26 28 30 28 28 27 27 28 27 27 27 28 28 27 25 25 25 25 24 23 25 27 27 28
25 30 30 32 28 25 20 20 20 24 22 22 24 26 26 25 24 23 25 27 29 31 31 30 28 29 30 30 31 31 31 31 30 28 27 25 25 25 24 26 26 27 29 30

GFSCGP_700_spd_036.txt.gz
Wind_Speed
17 16 20 17 18 18 18 12 17 10 9 9 14 19 7 4 13 15 14 13 12 11 7 5 11 13 13 13 13 12 11 13 15 17 18 22 22 20 20 19 17 20 19 15
18 26 18 18 18 18 20 17 19 8 8 8 9 11 11 5 19 17 16 15 14 13 11 6 10 11 13 11 13 13 12 13 14 15 17 18 18 18 18 17 16 19 17 13
25 21 14 18 19 20 16 18 17 12 8 11 13 14 16 12 18 14 13 12 16 16 12 12 12 10 10 12 12 12 12 13 14 16 17 19 19 21 21 18 16 17 16 17
26 21 17 15 17 17 19 14 11 17 12 13 6 14 9 14 12 14 15 16 14 20 17 11 17 16 13 13 13 13 13 12 13 14 17 16 17 18 16 14 15 18 19 21
30 25 22 18 18 18 17 12 16 14 16 16 11 14 13 14 16 19 18 19 20 19 21 19 14 16 14 14 14 15 15 15 16 17 17 20 18 17 18 20 18 19 19 22
26 23 23 22 18 18 16 11 11 15 18 13 18 14 11 10 12 15 21 15 21 24 20 22 19 16 20 19 19 19 18 18 19 18 19 19 18 20 22 22 24 22 22 24
29 29 24 21 22 20 18 14 14 13 13 8 15 14 18 11 8 15 13 9 28 26 24 25 24 23 22 23 22 22 23 22 22 22 22 22 22 24 25 27 28 24 22 23
30 28 31 24 26 25 21 23 16 7 4 8 20 8 13 8 7 9 5 6 7 24 17 21 26 29 27 23 24 23 23 23 24 25 26 23 25 27 28 32 33 27 24 22
33 33 25 27 24 25 23 27 26 29 8 3 8 24 13 12 10 9 8 8 9 14 21 24 25 28 31 31 29 28 27 26 26 27 25 25 31 31 36 32 30 30 24 23
34 24 29 32 28 24 29 21 19 25 10 7 16 23 14 9 13 10 8 7 7 9 14 16 23 24 31 33 34 36 35 29 31 33 34 33 35 36 40 29 28 29 25 28
37 28 19 27 36 31 25 25 16 24 23 6 5 8 0 7 14 9 7 10 11 10 9 13 19 26 26 31 35 39 34 25 32 37 38 37 34 34 33 23 22 23 26 28
44 32 29 22 25 30 26 26 26 25 15 16 13 16 4 12 9 7 11 10 11 12 9 10 10 9 11 22 32 31 34 34 38 32 35 33 33 32 28 22 22 23 27 28
41 44 23 28 27 30 28 29 26 26 25 23 10 15 15 13 13 11 12 12 16 19 11 13 16 14 14 16 18 28 37 40 33 26 30 29 32 28 25 23 23 25 27 29
33 37 43 27 26 25 28 29 28 30 25 26 21 14 26 15 17 12 15 17 17 14 15 14 16 17 15 17 20 23 24 23 23 23 27 26 24 22 24 24 26 29 31 33
31 36 39 39 32 31 29 28 28 32 32 29 25 27 26 24 25 12 5 9 15 18 16 14 17 23 21 18 20 23 23 21 18 20 23 23 20 23 26 29 31 33 33 35
33 30 33 41 33 34 35 31 34 30 33 32 29 29 23 21 18 14 19 13 20 15 19 18 17 24 25 24 25 26 25 23 24 24 23 24 26 30 31 34 33 35 36 34
25 30 36 35 36 26 38 39 31 29 30 30 32 31 26 25 23 22 18 18 22 20 24 24 23 23 25 26 26 25 29 30 28 27 28 30 33 32 30 32 35 36 35 34
13 26 33 22 20 22 26 31 29 29 28 26 27 30 23 22 23 21 19 16 22 25 26 26 30 28 25 23 24 25 29 30 30 32 27 25 26 29 31 32 31 31 32 33
7 16 24 25 26 25 29 22 27 24 30 27 28 27 25 24 23 25 22 22 26 27 30 26 27 29 27 23 22 24 26 27 25 25 25 26 28 30 30 28 29 29 29 30
12 11 22 18 24 18 22 23 18 25 29 23 21 24 24 24 23 19 18 26 31 30 25 27 28 30 28 25 25 25 25 25 24 25 26 29 29 28 26 27 28 28 28 29
22 16 22 28 15 18 19 20 23 29 24 20 22 23 22 22 19 19 27 30 29 25 24 25 26 27 27 26 26 25 24 24 25 27 27 27 27 25 26 27 28 28 29 28
17 9 13 21 22 18 10 25 29 28 35 24 15 17 15 18 20 24 26 25 24 24 26 25 25 26 27 27 27 26 25 26 26 26 26 26 26 26 27 28 29 30 28 29
16 27 16 8 18 17 19 25 16 23 18 17 18 20 18 21 23 22 22 23 25 27 25 25 25 26 28 28 28 27 27 27 27 27 27 26 27 29 29 29 29 29 28 28
20 20 24 19 17 10 19 27 27 22 19 20 17 18 22 23 24 22 24 24 27 28 26 26 27 29 30 30 30 29 28 28 29 29 29 29 29 29 30 29 30 28 28 27
28 29 17 20 19 18 19 11 12 21 21 22 23 22 22 23 25 24 24 23 25 25 27 28 29 32 32 33 31 29 31 32 32 32 32 31 30 29 30 29 29 27 26 27
24 30 29 29 27 21 24 22 15 19 20 19 24 20 22 26 26 25 23 21 24 27 29 31 34 35 35 34 34 34 35 36 35 35 34 32 31 31 31 29 29 26 25 25

GFSCGP_700_spd_042.txt.gz
Wind_Speed
25 27 31 19 18 18 18 22 27 22 23 14 16 15 18 14 13 12 9 2 2 1 4 5 5 5 4 8 11 10 11 16 22 26 30 31 26 28 32 36 40 42 35 35
23 35 27 16 15 19 18 22 26 28 8 6 15 14 16 16 13 13 9 8 4 3 6 7 8 7 4 4 9 10 14 15 18 24 27 26 26 28 31 32 37 35 35 29
31 27 21 19 17 20 20 23 24 26 16 12 15 12 13 18 17 16 13 11 15 9 5 10 9 8 7 8 8 11 12 13 17 22 27 29 29 30 29 29 28 31 29 25
27 25 25 16 19 18 22 14 21 20 16 13 14 12 16 11 19 21 18 16 12 10 7 11 14 12 10 11 12 12 14 16 17 18 20 22 23 21 20 21 24 24 23 21
30 24 25 27 24 17 26 16 23 19 12 13 14 9 13 9 15 23 21 17 14 9 9 7 11 14 13 15 13 13 14 17 17 18 17 17 19 22 22 23 22 22 23 23
31 26 22 23 23 23 18 21 18 19 17 7 19 12 15 14 15 21 24 22 15 13 9 7 8 13 16 18 18 18 18 18 18 19 18 17 17 20 24 24 22 22 23 25
32 36 31 27 25 24 21 23 6 6 3 6 14 14 18 13 16 20 26 19 23 16 16 14 15 19 20 21 20 18 17 16 16 16 16 16 16 19 21 20 20 23 25 24
30 15 35 31 33 28 25 26 15 6 3 6 13 7 14 15 16 14 18 28 23 17 12 13 17 18 19 21 22 21 21 18 18 18 18 19 20 22 23 23 24 26 25 25
11 20 23 35 29 24 26 33 27 23 8 3 10 16 26 23 20 16 23 25 28 19 17 16 17 14 17 20 22 23 23 22 23 23 22 23 23 24 26 26 28 28 28 27
36 21 13 20 27 33 33 25 20 15 6 4 5 11 17 20 13 16 21 19 22 21 20 21 22 22 19 17 15 20 21 21 21 24 29 29 28 29 30 32 32 32 34 31
35 39 33 30 32 34 26 35 29 22 19 6 2 7 11 13 13 17 21 18 24 24 21 21 23 24 24 25 25 23 24 30 33 32 27 24 30 29 32 36 36 38 39 42
24 29 36 49 36 19 30 36 37 27 7 13 22 22 14 6 7 11 16 26 21 19 21 20 18 22 26 32 32 31 33 33 33 33 34 31 25 30 36 38 42 21 46 40
8 15 23 26 34 43 38 30 32 38 30 31 14 13 17 13 14 20 19 18 17 21 21 21 17 20 24 22 28 33 32 30 26 32 35 40 27 28 31 19 17 25 19 39
23 19 20 22 21 18 27 30 27 38 34 28 35 32 27 22 23 21 23 20 19 20 20 21 20 21 20 19 20 23 25 22 24 28 28 28 28 18 16 17 19 23 17 17
23 22 21 30 34 30 40 24 30 40 40 30 30 29 28 26 24 26 25 23 19 20 23 28 27 25 25 22 21 21 23 24 22 24 24 23 23 21 17 16 19 18 18 19
22 20 25 34 25 36 39 44 34 37 36 37 33 31 28 30 29 32 32 30 28 29 29 28 31 29 31 29 26 27 23 24 25 23 23 26 25 23 20 21 20 20 22 24
18 21 18 17 20 26 27 54 43 35 35 37 35 35 30 29 30 27 29 27 35 29 27 30 33 31 31 32 28 24 25 25 26 25 24 25 27 27 25 23 24 25 25 28
18 14 13 30 39 9 40 32 42 43 41 33 27 32 25 27 32 27 29 30 28 28 33 29 30 31 31 29 29 32 30 27 27 26 28 27 27 28 28 29 28 28 25 27
20 19 13 11 21 29 30 27 26 25 40 43 37 30 29 27 24 23 19 22 23 23 25 26 31 30 29 28 28 33 28 27 27 28 29 30 30 30 31 28 24 25 27 28
17 18 19 14 8 7 14 30 30 18 28 26 51 42 28 29 33 31 30 24 25 25 26 23 30 32 27 29 29 27 26 27 28 28 29 28 27 28 27 25 26 28 30 30
14 19 26 21 14 21 27 13 16 29 27 11 13 24 31 31 31 29 31 29 24 21 21 24 27 25 25 26 26 26 28 29 31 31 30 28 27 26 26 28 29 31 32 31
13 10 14 12 10 15 22 5 7 17 19 24 24 17 14 15 24 26 24 22 21 20 18 18 21 23 26 26 25 29 31 30 29 29 29 28 27 28 29 30 31 32 31 32
23 25 16 20 22 23 21 25 11 8 26 19 20 24 29 22 23 19 17 17 18 15 15 18 21 23 26 26 27 29 29 27 26 28 29 29 30 30 31 32 32 31 32 33
28 27 32 26 24 14 20 27 18 15 15 18 22 19 28 22 13 20 22 25 23 21 22 22 22 24 26 26 27 29 28 27 28 30 32 33 33 33 33 33 33 34 35 36
17 22 28 31 27 25 18 24 26 15 18 24 17 14 25 18 18 18 21 21 21 20 20 22 23 25 27 27 27 28 29 29 32 34 35 35 36 36 37 37 37 37 37 37
32 29 26 27 18 23 18 14 18 19 23 30 34 18 23 21 25 21 15 24 22 20 22 23 24 26 27 28 28 29 30 32 35 37 39 40 41 40 40 40 40 40 39 39

GFSCGP_700_spd_045.txt.gz
Wind_Speed
31 33 40 29 22 20 15 13 15 15 9 20 16 26 18 18 18 16 11 4 7 9 5 5 5 5 7 7 3 5 17 23 23 23 19 23 28 35 45 43 44 38 36 38
31 41 36 25 20 21 21 20 19 15 5 20 10 17 16 17 14 14 13 6 4 7 6 4 3 3 4 4 5 5 7 11 21 22 24 24 30 30 36 45 45 39 40 39
37 28 27 31 24 23 23 23 18 16 17 18 17 17 18 15 17 18 14 12 9 9 6 6 6 4 2 1 3 6 7 9 12 21 26 28 29 30 35 35 36 38 33 38
32 34 12 9 28 22 24 21 18 19 22 20 17 7 19 20 16 16 17 11 10 10 9 7 9 5 4 4 3 4 6 11 15 19 22 23 22 22 26 28 30 35 39 40
30 32 33 31 24 20 23 16 20 22 24 21 13 7 11 13 12 15 17 14 13 10 9 7 5 8 9 9 7 7 7 9 10 14 18 17 18 18 22 25 26 29 30 33
30 22 18 19 22 23 19 19 20 23 20 9 21 18 16 20 20 20 15 15 15 14 13 11 9 12 15 14 13 12 10 10 10 10 11 11 13 15 17 18 20 22 22 25
28 32 30 23 19 22 21 19 4 6 5 7 16 14 20 16 14 14 15 17 17 16 14 15 17 14 17 19 16 15 14 12 11 12 13 13 14 17 17 19 19 20 20 24
27 16 33 29 34 28 25 27 13 6 3 6 15 8 6 5 13 14 17 19 22 19 19 16 15 16 17 18 20 19 18 17 17 16 16 17 18 18 18 21 24 27 29 29
9 15 16 19 25 33 31 33 25 26 17 5 12 14 19 20 19 16 20 14 21 16 21 15 10 16 18 20 18 20 21 21 21 20 20 20 21 22 23 26 30 30 30 28
33 15 11 7 16 23 35 19 11 12 4 5 5 9 14 10 17 20 14 19 18 19 17 15 14 15 14 14 18 19 20 22 22 25 27 28 28 26 25 29 31 32 33 33
24 35 29 26 22 15 21 31 30 27 23 8 8 11 22 20 11 12 13 14 20 19 17 17 15 15 17 20 22 21 21 20 24 26 27 28 22 26 31 29 38 37 37 35
8 15 21 37 38 31 23 18 28 27 14 13 21 26 14 6 8 8 12 15 23 24 22 22 16 15 17 21 26 28 27 27 26 27 28 30 30 32 21 31 31 35 36 35
9 4 11 22 30 24 25 33 33 27 24 36 17 23 30 25 23 15 15 14 23 22 19 21 20 19 17 16 20 24 26 27 28 28 28 31 30 30 29 28 19 24 16 21
12 12 9 5 10 19 24 17 21 32 36 25 40 35 36 27 29 25 22 22 18 20 22 19 19 17 16 16 18 17 17 16 19 24 27 28 28 26 26 26 20 24 22 22
16 17 19 21 17 19 25 32 33 31 37 38 33 38 39 33 29 26 19 25 23 25 22 24 25 23 20 22 19 21 16 13 19 23 25 22 23 24 23 22 23 20 20 20
9 17 28 33 25 20 28 31 41 42 36 37 34 41 34 27 21 24 24 27 31 25 25 28 24 26 24 25 23 23 23 21 18 22 26 25 22 23 22 22 22 22 22 23
10 10 11 18 18 19 25 23 23 41 44 38 38 34 31 35 34 28 27 30 29 36 31 29 28 32 29 28 25 26 27 27 27 28 25 24 25 25 27 26 27 26 25 27
16 13 11 15 17 3 36 33 25 30 36 45 43 38 27 31 27 28 26 30 29 29 28 28 34 26 29 30 30 29 29 30 32 31 26 24 24 26 26 28 30 29 30 31
17 15 10 7 5 20 42 34 30 25 34 21 44 45 37 33 34 37 29 24 28 30 29 32 30 27 29 31 30 32 30 28 33 31 26 26 25 26 29 30 31 33 34 34
21 19 18 11 4 7 48 35 23 36 48 18 20 31 38 35 46 44 30 26 28 23 23 23 24 28 27 28 29 30 30 35 32 26 25 25 26 26 28 29 32 34 34 30
12 13 21 20 10 19 25 23 23 15 19 22 26 21 16 38 54 46 36 29 31 31 31 27 26 30 29 28 28 29 33 32 28 27 27 28 30 31 28 27 28 27 27 28
17 13 15 14 9 14 10 16 13 22 11 11 23 22 26 18 21 28 31 30 30 27 30 26 29 28 25 26 29 30 29 26 26 29 31 31 31 29 27 26 26 27 29 29
24 23 11 17 16 19 22 28 30 27 31 5 12 20 28 22 17 17 20 11 22 24 24 24 23 21 23 24 24 26 26 26 28 31 32 31 29 28 28 29 31 32 32 32
29 33 35 32 34 24 28 17 23 22 29 5 11 14 22 26 29 26 27 17 16 18 19 18 18 18 19 19 22 24 26 28 30 31 31 30 29 30 32 33 34 35 35 35
21 25 28 38 39 32 25 27 21 18 20 21 13 13 19 20 24 24 25 25 23 18 16 17 19 18 19 20 21 24 27 29 31 31 31 31 32 34 35 37 37 38 39 38
32 33 28 26 23 25 23 22 18 17 17 19 11 11 14 19 22 26 29 30 26 24 23 21 21 20 22 22 23 25 27 30 30 30 30 32 35 37 38 39 40 41 41 42

GFSCGP_700_spd_048.txt.gz
Wind_Speed
30 33 40 36 31 24 18 9 12 16 13 15 13 18 10 14 15 15 13 13 10 8 7 6 5 6 7 7 4 12 26 19 22 24 22 21 30 35 38 42 43 41 38 34
30 41 36 30 26 25 22 21 22 18 16 11 15 16 12 13 15 13 13 13 9 9 6 5 4 5 6 6 6 4 18 23 21 24 24 23 30 29 39 39 42 43 40 35
37 26 36 31 31 29 26 25 22 19 17 20 18 19 18 16 17 15 15 14 14 12 9 6 4 2 4 5 4 3 4 16 26 23 27 18 29 31 34 39 42 40 40 41
33 39 21 24 36 32 29 25 19 19 18 12 20 9 18 19 20 20 15 13 10 10 9 9 7 3 1 1 4 5 5 4 10 20 27 24 26 28 30 30 34 41 38 39
24 30 32 20 23 31 33 20 18 16 18 21 23 9 15 17 22 18 19 14 12 11 11 10 7 7 7 5 3 1 5 7 7 10 12 14 14 19 26 27 31 37 35 33
21 23 24 38 32 26 19 17 14 17 19 7 20 18 18 22 20 24 22 20 11 12 12 11 12 13 13 10 7 5 4 5 7 10 12 12 12 14 17 18 20 24 29 32
23 26 18 17 12 16 22 18 2 2 4 6 10 15 26 21 20 21 17 15 14 9 15 16 14 11 13 14 12 10 8 8 9 9 10 11 12 14 15 17 18 20 22 25
26 14 31 29 27 14 25 24 8 6 4 3 6 8 8 7 5 15 16 15 16 16 13 17 17 15 10 10 12 13 12 12 11 11 11 12 14 16 17 17 18 20 21 22
15 16 15 15 22 30 25 17 23 21 11 3 9 17 15 14 18 17 19 17 18 20 18 17 18 17 17 14 10 9 14 15 15 14 14 14 15 16 17 19 22 23 25 26
15 5 4 9 13 15 26 17 13 13 4 5 5 7 10 2 9 12 17 23 16 15 16 20 19 16 17 16 15 14 13 13 17 20 20 20 20 22 23 25 26 27 29 31
30 30 24 19 8 8 9 25 24 14 11 4 2 6 7 13 20 18 12 16 13 13 14 17 16 16 15 17 15 14 15 16 15 18 20 22 23 25 29 31 29 34 34 37
10 7 14 29 27 18 9 15 13 22 10 12 12 16 19 8 4 8 10 12 12 14 16 16 16 17 17 17 18 19 20 22 21 22 23 23 23 30 31 30 34 18 27 26
1 4 3 6 12 13 13 11 11 18 28 28 9 4 3 13 20 22 22 17 14 14 20 23 25 23 20 21 19 19 22 24 24 25 28 27 27 27 27 26 33 22 25 17
5 3 3 1 3 9 13 12 12 16 12 19 30 29 30 27 27 26 24 22 22 21 21 24 22 22 21 19 16 14 10 12 18 19 21 24 26 25 25 24 26 33 27 24
8 12 12 15 15 15 18 19 21 23 29 27 31 31 23 23 26 26 29 25 22 19 22 21 23 24 22 20 13 16 14 11 13 12 11 11 18 22 23 26 28 26 29 25
7 7 9 12 14 22 27 26 25 27 24 32 34 38 31 24 19 23 23 24 22 19 21 26 24 23 25 25 22 18 18 17 15 18 20 19 22 22 25 24 26 26 25 25
8 8 7 5 6 8 17 29 24 26 28 28 33 35 30 33 28 23 23 24 24 24 25 29 26 24 27 28 25 24 19 20 21 21 23 26 28 27 25 26 26 27 27 26
16 11 12 9 7 3 19 13 15 23 31 30 35 41 34 37 35 35 27 25 26 26 27 27 29 32 32 31 30 24 22 22 24 25 27 28 31 30 25 25 27 27 28 29
23 17 12 8 8 20 35 24 17 27 36 33 36 40 25 25 37 45 37 30 25 23 25 27 25 24 27 27 29 26 27 28 29 29 28 26 30 29 27 26 27 30 31 34
23 21 20 7 2 5 19 14 16 12 30 19 23 26 23 14 28 41 41 37 33 27 23 20 19 25 28 30 30 30 29 31 30 30 29 29 32 29 28 28 29 31 33 35
24 23 26 17 10 17 21 14 16 5 15 23 24 28 30 23 19 22 27 42 44 36 33 24 23 24 25 26 30 31 31 28 27 28 31 32 32 30 29 31 33 33 33 34
18 15 13 16 10 13 1 11 10 21 26 33 26 24 29 32 25 21 16 21 32 42 36 30 25 28 31 34 34 33 30 26 27 30 32 34 33 32 32 32 31 29 30 32
19 23 16 17 15 12 17 23 21 23 28 30 30 22 25 20 15 20 18 14 16 21 28 28 33 33 35 36 33 24 24 26 28 33 34 34 32 31 30 29 27 30 32 32
18 17 23 27 32 30 31 30 30 30 27 25 24 31 19 9 10 15 18 22 20 19 21 24 24 18 15 14 16 20 24 28 31 32 33 33 31 31 30 29 31 32 33 34
19 22 27 31 33 29 26 29 35 32 24 32 25 26 18 10 9 15 18 18 20 23 21 20 17 19 18 21 24 26 28 28 27 29 31 31 31 30 28 28 29 31 33 34
22 31 29 33 28 28 26 24 24 24 26 28 22 23 19 16 17 12 17 19 22 26 26 26 23 21 22 25 27 26 25 24 27 28 29 29 28 27 27 28 30 31 33 34

GFSCGP_700_spd_051.txt.gz
Wind_Speed
33 32 39 39 35 29 21 17 15 16 14 13 13 16 14 12 10 8 9 10 11 11 7 6 1 5 6 5 5 24 18 14 21 25 18 26 30 32 34 40 42 40 36 33
32 38 34 32 30 29 26 23 20 18 15 13 14 15 16 12 9 10 11 13 12 13 9 7 2 2 3 3 2 5 24 19 18 30 19 26 14 38 33 37 43 42 41 37
39 27 36 31 30 30 29 28 21 19 15 14 17 17 15 17 16 11 11 14 13 13 13 8 6 2 2 3 2 4 7 23 19 24 24 23 20 37 37 40 45 48 46 42
35 39 16 26 35 28 32 27 22 20 15 8 9 8 19 21 18 16 14 13 10 11 12 9 8 5 3 3 4 3 5 8 28 28 23 33 20 24 29 23 33 47 48 47
23 30 38 24 18 23 31 24 17 18 19 17 13 10 13 13 18 14 13 11 13 12 13 12 8 11 9 6 5 4 5 7 8 18 27 29 28 21 23 25 24 37 43 36
19 19 19 27 32 26 14 17 17 11 13 9 16 14 15 17 18 14 14 14 13 12 13 14 12 16 13 11 8 6 6 8 7 7 10 17 22 23 24 25 28 35 40 35
27 26 16 15 28 21 22 14 3 5 6 8 10 12 25 16 19 18 16 10 9 9 11 18 17 12 13 11 10 8 7 7 8 9 9 8 10 13 14 16 18 23 28 30
21 12 26 21 20 23 28 25 10 7 5 3 7 8 10 3 7 9 9 10 11 13 12 17 19 16 11 12 13 12 11 10 8 8 8 10 11 11 11 13 15 17 19 23
18 17 14 21 27 22 12 21 26 5 5 3 6 7 7 9 12 14 14 11 14 14 16 15 21 19 16 14 11 12 13 13 13 13 12 12 12 12 13 15 16 16 18 21
10 4 10 13 19 26 25 14 11 10 5 8 4 7 10 4 15 12 10 11 14 16 15 17 21 21 19 17 16 14 13 14 15 16 16 16 17 17 16 18 18 19 21 24
15 12 11 9 5 15 18 20 15 8 11 4 3 5 6 5 8 12 10 4 8 11 14 15 14 20 21 21 20 18 17 17 16 16 18 20 20 21 21 20 20 20 24 26
20 13 19 22 9 10 10 10 12 17 9 5 4 11 8 7 3 2 9 13 13 14 11 13 15 22 22 20 22 19 20 19 17 18 19 18 19 22 24 23 25 29 29 38
7 5 7 6 10 19 14 9 8 8 12 13 6 6 11 9 11 15 17 18 14 15 11 13 16 20 20 20 21 23 23 22 23 25 25 26 26 23 22 23 23 24 28 35
1 3 3 5 4 6 6 8 5 4 3 6 13 15 14 23 28 26 21 16 20 20 18 19 20 21 25 24 23 24 23 23 26 27 25 26 26 24 23 23 25 26 27 30
7 5 5 8 9 10 10 8 10 13 12 10 11 18 17 19 20 19 18 20 21 23 19 20 22 20 21 21 26 24 24 19 18 23 23 20 15 14 15 22 25 28 31 32
7 5 7 8 9 12 16 15 15 16 20 25 22 26 20 19 21 25 17 20 18 19 23 20 19 21 21 20 23 23 22 22 20 19 22 19 21 19 16 18 22 30 31 29
9 9 6 5 8 8 14 19 20 21 21 24 26 28 26 26 25 22 29 23 21 18 21 22 20 25 27 25 24 27 26 21 22 24 21 21 23 23 24 22 22 27 31 29
12 9 8 5 4 5 9 12 16 15 19 23 29 26 26 30 30 29 25 34 30 27 24 26 25 28 29 28 29 28 32 26 24 25 27 25 24 26 27 29 27 25 30 32
23 17 6 4 8 15 22 13 14 14 19 17 18 17 21 22 27 23 25 36 39 32 27 25 23 24 29 32 33 37 36 35 30 28 28 28 28 29 31 35 31 28 29 33
20 21 17 8 4 5 6 9 6 7 14 7 22 23 25 24 24 22 18 26 41 42 37 33 28 22 20 27 29 33 33 33 35 31 32 32 33 32 35 34 33 32 32 33
21 20 23 12 9 12 12 3 4 1 5 19 18 25 24 28 26 26 23 18 27 35 42 38 33 31 24 25 28 26 33 34 37 36 32 33 36 36 34 33 34 33 33 34
14 15 15 17 10 12 4 7 4 9 15 17 22 25 26 28 28 27 23 27 23 24 27 33 44 37 34 30 30 30 32 35 36 37 36 35 36 36 34 34 35 34 35 36
14 19 16 18 13 9 6 8 16 22 25 26 25 25 28 34 33 30 22 25 32 26 17 20 26 40 40 38 34 31 34 37 36 36 35 32 31 31 34 34 34 35 34 30
16 18 26 24 28 25 25 28 30 32 35 36 27 27 30 34 36 36 18 18 24 25 18 17 15 24 34 37 40 46 43 34 27 26 28 29 31 33 34 36 34 32 29 27
14 17 23 30 29 26 25 29 26 17 19 23 25 24 28 35 40 25 19 9 8 13 17 16 13 16 19 20 20 21 22 21 21 25 27 29 31 30 33 33 31 28 28 33
20 21 24 29 28 29 29 28 27 26 28 31 29 26 30 36 27 25 29 19 8 9 10 15 14 11 12 18 20 21 23 23 23 26 28 29 31 32 30 28 26 26 27 29

GFSCGP_700_spd_054.txt.gz
Wind_Speed
30 27 33 33 30 25 18 16 16 12 12 14 16 18 16 15 12 11 10 10 11 11 10 12 10 7 7 6 4 10 15 17 18 18 20 20 27 32 35 40 37 42 38 38
23 32 29 23 25 27 26 19 16 12 11 14 16 19 17 16 14 10 11 11 10 12 10 11 11 7 5 5 3 3 13 16 19 14 18 19 21 20 22 34 42 44 44 38
31 19 27 25 23 25 28 25 18 15 8 11 14 21 21 18 18 18 14 10 12 12 10 10 12 9 5 3 3 3 5 21 16 22 21 19 26 29 36 33 48 50 46 42
23 28 18 21 29 24 26 22 22 17 13 17 14 20 20 18 19 19 18 15 12 9 8 10 10 11 8 4 2 2 2 13 18 19 29 21 28 24 37 36 43 50 49 46
26 21 28 25 22 24 23 15 15 17 18 17 19 14 20 17 19 18 18 17 12 11 11 12 9 12 13 8 5 4 2 4 12 23 21 19 32 18 23 37 41 45 48 46
19 16 18 24 21 17 8 9 8 10 12 15 21 17 16 20 16 11 12 14 11 13 12 13 14 14 15 13 9 7 7 6 7 9 17 22 23 27 20 25 34 36 47 49
17 18 13 14 22 20 21 15 10 11 11 10 8 15 24 10 13 14 11 11 13 12 8 12 17 13 12 14 12 10 9 9 11 13 12 13 17 22 23 23 27 32 34 41
23 13 22 18 20 13 27 26 9 6 9 9 11 10 18 9 7 9 10 10 11 11 9 9 15 18 13 14 16 14 12 11 11 12 14 14 14 15 16 19 21 28 32 31
18 18 16 19 24 21 19 30 21 14 3 4 11 7 11 10 8 7 8 8 9 13 14 11 14 20 19 16 16 16 15 14 13 13 13 14 14 14 12 13 14 15 15 17
12 8 14 17 19 22 16 15 13 17 10 13 12 12 9 3 8 9 11 8 6 10 14 15 15 21 22 19 18 19 21 19 17 16 15 15 14 14 15 15 13 12 13 14
9 7 6 16 20 24 26 21 13 13 18 8 8 6 9 8 7 6 4 5 6 6 6 11 14 17 24 25 21 20 21 22 22 21 21 21 19 19 20 19 18 18 17 19
19 10 12 15 6 14 19 23 26 19 13 12 9 10 4 6 7 5 7 9 5 3 5 7 9 14 21 25 25 23 24 25 22 22 24 24 25 26 25 23 22 23 25 26
8 12 15 14 11 12 9 8 12 12 10 15 11 5 9 17 22 18 21 16 13 10 8 8 5 10 17 25 25 25 24 23 24 24 25 25 26 27 26 26 27 29 29 28
5 7 13 14 11 11 12 8 7 9 11 14 17 14 12 15 20 20 19 20 19 19 17 15 14 13 15 16 24 23 24 26 27 28 29 31 31 30 29 27 28 30 31 33
4 4 5 4 3 4 8 11 9 10 10 10 13 13 13 13 13 19 22 23 26 28 24 21 18 19 20 21 23 29 28 29 30 30 30 32 32 32 33 32 29 30 33 34
13 7 6 7 6 8 10 11 12 14 14 16 19 22 17 16 14 15 15 22 22 22 27 25 26 24 21 21 24 20 26 30 34 31 27 26 26 29 29 28 25 23 28 32
12 9 9 12 10 8 12 19 18 16 15 14 15 14 15 17 17 20 18 20 26 29 28 28 28 28 25 23 28 25 24 29 30 28 29 28 29 29 28 28 27 26 26 27
11 11 11 7 7 7 8 11 14 14 13 11 12 14 12 13 16 22 20 26 27 32 34 32 31 31 31 29 30 29 32 31 35 32 27 31 32 34 32 32 32 30 31 32
21 11 9 8 18 12 13 11 12 9 8 7 1 6 10 14 20 13 15 21 27 29 36 41 37 37 37 35 36 34 37 35 32 37 33 32 37 37 37 37 39 37 34 33
19 19 15 9 10 6 6 14 11 13 4 6 8 9 13 16 14 13 18 23 32 31 29 35 42 43 39 38 37 41 40 42 42 40 38 39 37 41 43 43 44 40 37 33
20 19 24 21 11 7 14 9 9 7 5 6 9 12 16 17 16 24 21 24 28 32 32 26 29 46 45 40 39 31 33 38 42 42 44 43 45 41 41 44 47 45 38 34
20 17 18 19 11 8 9 15 9 9 8 13 17 18 23 23 26 30 33 29 28 34 36 34 30 29 44 51 47 40 33 30 37 41 43 43 41 45 44 45 48 42 35 36
12 16 15 14 12 7 9 8 14 13 19 24 29 29 31 30 30 32 35 37 37 35 39 37 31 32 32 42 54 52 42 37 34 34 35 39 45 44 46 43 41 40 43 41
16 14 18 12 14 12 15 18 24 25 26 25 20 19 21 24 27 29 33 37 41 35 37 30 21 26 28 31 43 53 49 41 43 46 43 40 41 39 37 36 39 39 41 40
15 14 18 19 19 18 19 27 27 25 25 22 23 26 31 29 28 33 32 36 39 31 25 13 11 15 18 17 27 37 44 44 45 42 41 38 34 33 34 39 39 38 35 32
16 17 18 17 18 19 18 24 27 28 30 32 32 32 30 27 26 30 28 25 33 32 34 22 12 12 17 12 12 17 21 22 24 26 29 34 38 40 35 34 33 32 33 32

GFSCGP_700_spd_057.txt.gz
Wind_Speed
23 26 36 31 30 28 23 19 18 15 13 16 17 19 19 18 17 16 16 16 15 13 14 15 12 9 8 10 8 5 14 16 15 9 6 14 35 35 31 39 46 45 46 47
23 34 28 26 29 28 29 29 21 15 11 13 16 19 19 19 18 17 17 16 16 14 13 14 13 10 7 8 7 6 10 14 14 10 11 12 20 25 33 35 40 51 50 47
29 24 25 26 26 28 29 30 25 20 11 13 15 22 22 21 19 18 17 16 16 16 14 13 12 12 8 7 9 4 6 12 16 15 16 17 20 33 33 32 30 42 52 51
21 26 20 20 29 26 29 24 23 21 19 21 14 21 20 19 19 21 18 19 18 17 12 12 12 11 9 8 9 5 3 8 17 16 20 24 20 25 24 23 24 32 49 48
24 14 27 30 25 27 30 19 20 21 23 21 22 14 17 15 18 20 20 19 17 17 17 13 13 12 12 11 8 7 3 4 14 21 20 25 20 20 19 23 25 37 42 48
19 15 21 23 24 22 19 19 16 17 20 20 24 22 17 18 17 12 12 14 17 17 17 14 15 16 14 11 11 8 6 3 6 14 17 25 21 21 21 24 34 33 38 40
22 26 17 17 21 21 21 20 12 14 16 15 18 18 23 5 4 7 10 10 14 15 15 16 14 15 14 9 11 10 7 6 5 7 12 17 22 21 27 19 21 33 39 35
27 22 24 16 23 24 26 27 15 14 11 15 23 11 21 11 10 8 11 14 11 12 14 9 9 12 16 12 11 12 11 9 8 7 9 12 15 18 24 25 20 24 31 32
17 29 11 22 20 22 22 36 31 24 12 9 11 16 14 10 9 5 6 8 8 10 13 11 12 13 16 17 14 13 14 13 11 12 12 13 14 16 17 20 21 21 23 26
16 14 20 19 19 27 27 17 28 24 12 12 13 14 11 8 11 4 5 8 6 6 10 14 16 17 18 19 18 16 17 17 15 14 14 15 14 14 16 17 16 16 18 22
18 16 16 16 26 26 25 29 21 25 25 9 12 13 12 9 5 3 2 6 3 2 5 7 13 17 19 22 23 21 20 20 21 20 19 17 16 17 18 18 18 17 18 19
19 8 20 21 23 22 23 28 26 20 12 23 13 2 9 7 5 5 1 3 3 3 6 6 7 11 16 20 28 25 23 24 23 23 23 22 22 22 21 19 18 19 20 22
7 14 15 19 14 15 21 28 28 29 21 17 12 10 11 6 3 5 4 5 7 8 7 8 13 11 9 15 22 28 27 25 26 26 26 26 26 27 26 24 24 25 25 26
3 14 20 17 16 18 20 14 18 16 20 21 23 16 14 8 12 10 12 11 11 12 12 12 11 13 17 13 13 22 28 28 28 28 29 28 27 25 24 26 29 31 32 33
5 8 12 17 9 8 12 19 14 16 18 15 17 14 14 12 12 14 14 16 23 18 17 18 11 11 11 21 20 20 23 32 27 30 31 28 29 31 33 33 33 34 32 33
9 5 5 8 8 7 9 13 17 17 17 18 19 19 18 17 14 12 15 16 19 23 26 26 25 24 21 12 22 24 25 28 36 35 34 32 34 32 34 37 39 40 40 36
11 12 7 6 8 8 12 19 18 17 17 15 17 12 6 7 10 13 17 18 18 21 26 31 30 29 27 27 19 23 25 29 29 32 38 40 39 34 33 32 36 37 37 35
15 13 16 8 6 4 7 3 9 17 16 15 13 10 7 8 10 13 12 11 16 28 31 33 39 39 34 31 32 32 29 31 35 32 33 38 39 35 35 35 36 34 35 34
22 14 11 11 12 11 8 5 11 10 8 9 7 5 4 5 8 5 7 17 20 23 30 36 37 43 46 41 35 34 34 33 33 37 34 36 39 39 41 40 39 39 40 41
23 19 16 9 14 11 11 8 11 8 10 10 5 3 4 6 5 9 17 18 16 20 26 35 39 41 37 48 47 43 38 36 34 35 38 39 42 44 42 40 43 45 48 50
27 23 24 20 14 11 13 10 4 14 8 7 2 2 6 7 10 15 17 20 24 25 28 31 34 41 44 39 44 49 49 43 40 37 34 43 45 45 47 47 45 46 50 53
25 20 19 24 16 16 8 13 10 9 4 1 3 9 17 15 15 15 21 25 28 31 33 29 32 38 44 45 41 41 51 57 52 44 40 39 44 50 52 53 52 50 46 48
17 22 16 18 19 5 5 11 11 14 11 14 18 20 22 17 13 16 18 22 27 33 35 39 41 35 39 43 43 44 41 48 57 53 51 46 42 43 46 47 52 53 50 55
15 17 12 13 16 15 10 4 15 15 19 22 25 24 23 24 23 25 25 26 28 30 33 36 35 41 38 41 39 41 43 40 48 57 55 54 48 43 39 43 47 48 49 47
11 5 14 13 11 9 5 11 23 22 25 27 27 27 29 29 29 31 29 27 27 29 31 31 34 41 41 37 35 31 35 37 42 45 46 54 46 43 36 37 35 36 40 42
10 11 12 9 14 15 9 15 21 22 25 26 29 31 33 35 33 31 29 29 29 34 32 31 33 36 33 30 29 24 24 26 25 32 34 35 47 38 34 39 39 41 41 42

GFSCGP_700_spd_060.txt.gz
Wind_Speed
36 20 29 27 25 25 28 26 26 22 17 19 23 21 19 21 21 19 15 16 16 17 15 20 12 11 12 8 12 10 8 13 16 17 12 15 7 14 26 37 39 33 44 47
24 33 24 22 21 24 26 27 28 25 16 12 14 19 19 19 21 19 18 17 14 18 18 23 11 10 11 8 10 10 8 11 12 13 10 5 11 17 35 35 32 31 44 48
26 14 21 21 24 27 29 32 28 27 20 17 12 21 24 21 21 20 20 17 15 18 20 22 11 8 9 8 8 8 8 7 12 15 14 10 15 26 36 36 30 34 49 53
23 31 19 18 29 26 32 26 26 26 23 25 18 18 19 19 20 22 22 18 17 16 19 22 14 7 9 8 6 8 8 8 8 16 15 14 14 20 24 26 21 26 37 48
8 13 22 29 22 27 30 23 22 21 24 25 26 20 18 13 17 25 24 23 19 20 20 22 21 11 9 8 6 5 7 8 7 10 15 16 18 15 19 21 21 23 29 42
20 15 16 19 26 28 21 23 21 19 22 20 26 25 20 22 16 15 14 12 18 19 18 20 23 17 12 8 5 5 6 6 7 7 13 16 18 20 20 26 26 22 26 35
22 23 19 18 19 29 23 17 14 10 14 11 22 21 24 20 9 2 7 9 10 17 15 18 22 21 12 8 4 5 5 6 6 6 8 13 21 20 19 21 22 23 26 32
8 16 23 20 21 22 30 22 13 8 7 15 28 14 26 18 13 11 11 9 8 13 11 14 20 21 12 9 8 8 6 6 7 6 6 9 15 24 19 24 18 22 22 23
5 11 12 17 18 20 27 29 27 26 11 7 14 26 17 11 11 6 5 11 12 8 10 14 17 19 12 13 11 9 10 9 8 8 8 7 9 15 18 20 23 21 20 26
8 9 9 18 17 20 23 21 19 14 5 6 8 10 17 15 11 11 7 9 7 5 9 12 12 17 17 16 15 14 13 13 11 11 11 10 9 10 12 14 17 18 20 25
19 19 10 18 21 21 23 26 19 17 22 5 2 6 3 11 17 14 9 14 9 7 2 4 6 10 16 22 19 16 18 16 17 15 14 14 14 13 13 12 14 16 18 20
12 12 20 22 20 20 29 24 25 17 12 27 14 2 8 12 8 16 11 10 6 7 5 4 5 8 15 22 22 21 20 22 19 18 18 18 18 18 18 16 15 17 18 19
1 10 17 13 16 21 25 28 23 27 23 10 7 7 11 12 4 3 12 10 6 3 2 3 4 9 13 11 16 18 16 21 24 22 21 21 23 23 22 21 21 22 22 22
11 12 13 14 8 3 14 27 22 27 16 11 13 9 11 8 3 4 2 4 6 5 5 9 10 6 6 9 18 18 18 16 23 28 27 25 25 25 24 24 26 27 27 27
11 9 12 19 17 16 17 23 21 22 24 16 19 19 17 11 3 8 7 5 7 7 9 17 16 16 14 10 12 14 25 24 20 26 34 31 29 27 28 28 28 29 31 33
8 9 10 12 9 8 11 10 21 18 21 11 12 15 7 10 15 9 7 10 11 10 14 21 19 23 23 25 22 17 16 26 32 27 29 33 37 35 33 34 35 36 35 36
8 4 10 5 6 9 12 15 15 13 11 10 14 10 7 4 3 4 6 12 9 16 22 25 25 26 25 23 20 27 28 28 21 33 29 30 37 41 39 38 40 39 38 40
16 12 9 9 7 5 7 4 12 16 12 15 15 11 5 6 3 3 7 8 15 20 24 26 27 28 31 33 33 27 26 29 29 25 34 32 32 34 40 46 46 42 40 39
24 19 11 6 8 8 5 7 4 7 11 14 10 10 7 3 2 1 1 11 14 17 22 24 24 25 28 35 37 37 34 34 32 34 29 34 37 37 36 41 46 42 43 42
25 25 24 10 5 3 7 6 12 8 4 11 11 10 6 3 5 0 5 10 16 17 20 19 23 27 29 32 36 39 39 38 37 39 40 36 34 42 40 39 39 43 47 47
30 28 28 24 14 8 10 6 10 8 6 12 10 8 8 9 5 10 11 14 19 22 20 22 23 24 27 30 34 39 42 41 41 37 37 41 40 42 44 41 43 44 50 49
26 21 20 21 16 15 9 6 7 11 15 14 8 5 11 5 6 8 9 14 26 24 25 25 26 28 28 29 32 36 41 43 43 42 41 39 42 45 46 45 42 49 50 50
13 24 17 16 21 4 7 12 13 13 14 6 3 5 8 10 13 14 14 21 21 24 25 26 28 29 31 33 35 36 39 44 43 39 41 44 39 46 47 49 47 44 45 52
13 18 21 16 12 15 10 10 15 14 12 12 14 16 17 18 20 23 25 26 27 26 26 28 29 32 33 35 38 41 42 41 44 42 39 44 46 43 48 48 49 47 49 49
14 9 17 11 12 12 23 9 14 9 9 12 18 20 22 24 27 30 31 29 26 25 27 29 32 36 36 34 37 41 43 39 40 43 39 40 40 39 42 45 47 49 47 41
10 2 6 6 7 8 7 6 1 9 12 16 20 22 23 24 27 29 29 27 26 25 27 29 33 35 36 36 37 40 37 34 32 36 29 33 31 31 32 38 44 47 47 45

GFSCGP_700_spd_063.txt.gz
Wind_Speed
26 29 35 34 31 24 23 22 26 30 19 24 25 33 32 27 23 21 27 22 25 21 23 22 20 14 10 10 7 10 10 9 11 16 18 17 23 26 22 27 31 28 29 33
24 25 31 30 19 24 27 29 34 25 19 11 19 22 28 22 22 25 27 25 19 19 24 25 18 12 9 9 7 8 9 9 10 14 16 16 16 15 24 28 30 34 29 38
14 23 22 23 20 27 28 28 28 25 17 26 26 26 20 23 27 23 25 21 23 21 25 25 21 11 9 8 7 6 9 8 9 11 12 14 10 18 24 22 34 28 32 40
15 10 15 26 21 25 29 27 24 22 30 27 24 12 23 18 21 24 22 25 23 20 23 22 19 14 10 6 8 5 7 8 8 7 8 13 10 2 10 27 37 32 29 33
11 9 20 22 21 22 20 22 23 26 31 29 31 21 28 22 25 23 26 29 30 27 26 23 21 17 13 6 7 6 5 7 7 5 6 12 11 7 10 21 31 14 20 37
20 15 15 32 18 12 15 13 19 24 27 16 25 19 16 28 23 16 20 32 33 28 25 24 20 19 16 10 6 7 3 5 6 6 4 7 10 11 12 20 31 23 21 30
22 20 17 16 19 11 20 14 5 7 8 5 18 20 28 29 22 8 9 20 27 25 26 25 22 16 12 8 7 7 5 3 5 5 4 5 7 13 14 14 19 23 19 25
10 6 13 17 23 13 17 24 10 3 2 5 25 11 18 20 15 11 13 12 11 22 25 19 17 14 10 5 9 7 6 4 3 4 3 3 6 13 15 15 15 15 20 17
5 7 6 9 21 18 13 28 29 14 17 6 5 7 25 15 21 18 15 10 11 21 18 12 13 14 12 7 4 9 7 7 5 4 5 4 4 6 12 13 16 19 19 22
8 12 9 2 14 14 22 15 15 6 3 3 6 11 3 11 18 14 13 15 15 12 10 11 8 8 6 6 7 7 11 9 10 9 7 7 6 5 7 11 12 15 17 19
13 17 13 6 11 26 15 16 13 10 12 2 0 2 6 18 22 20 22 18 19 21 13 7 13 11 10 10 7 10 9 14 14 14 10 10 9 8 8 8 10 12 16 16
9 7 13 25 17 14 15 25 25 6 3 11 10 7 6 8 16 22 26 23 22 21 18 16 12 13 10 11 13 13 10 10 17 16 17 14 13 13 13 12 12 14 15 16
8 6 7 6 9 19 18 20 18 22 18 14 5 4 4 15 8 1 13 15 16 18 18 12 13 8 10 17 9 11 12 10 10 16 18 20 19 18 16 16 17 18 19 20
14 14 8 8 13 11 18 21 24 26 13 15 19 12 12 9 11 8 9 7 9 15 19 14 12 8 11 12 16 16 17 17 10 11 18 21 23 23 23 22 23 24 24 25
12 12 17 19 18 13 14 12 18 22 25 17 14 21 10 25 8 9 11 8 11 14 19 18 14 11 10 14 16 17 19 21 20 19 17 20 24 27 28 29 28 29 30 30
10 6 11 18 14 13 11 13 17 21 17 31 17 13 11 12 25 14 9 15 16 14 10 13 19 20 21 18 15 15 14 22 26 28 25 23 21 26 29 32 35 35 35 35
5 4 12 4 10 11 11 12 17 16 21 15 20 8 4 9 10 10 9 10 11 14 19 21 19 19 18 21 23 25 24 18 17 24 31 31 26 28 28 32 36 37 39 42
17 7 8 11 15 3 8 4 17 20 15 8 13 8 13 16 14 13 6 4 12 18 20 17 18 18 17 20 21 24 24 25 28 26 25 30 37 33 30 34 35 37 42 45
25 23 12 7 6 18 17 7 3 15 10 10 13 11 17 17 14 9 5 10 16 17 17 19 21 20 20 17 17 18 20 24 27 28 33 34 37 39 39 41 41 37 38 42
29 27 23 9 5 4 5 7 7 1 7 10 14 18 15 15 12 8 4 15 18 19 15 20 25 25 25 23 22 20 21 21 21 24 28 31 35 39 42 45 47 47 41 41
20 28 32 27 11 8 11 11 8 8 8 9 18 19 17 16 11 11 14 13 17 15 17 19 23 26 27 26 26 26 27 27 26 28 28 30 34 38 41 42 44 46 47 46
18 20 22 26 14 14 12 14 9 11 15 19 19 20 20 17 14 16 17 16 17 19 21 22 23 24 25 26 28 30 31 33 35 37 36 35 33 37 42 43 42 48 50 50
5 17 14 21 25 7 13 19 15 20 19 24 23 17 17 15 14 15 15 16 20 23 24 26 27 28 28 29 31 33 35 35 35 36 37 39 42 39 39 43 43 42 52 51
7 11 23 16 14 22 16 20 18 22 23 21 17 10 12 13 14 15 18 21 23 25 26 27 28 29 29 30 33 34 34 35 36 38 40 40 42 42 44 41 42 46 47 51
9 12 23 16 12 16 16 15 21 20 15 13 8 6 7 10 13 16 18 22 24 25 26 26 27 28 29 29 30 31 30 31 33 35 37 37 36 40 36 34 38 42 47 49
8 14 9 8 2 25 16 9 7 2 3 5 9 10 12 15 17 19 21 23 26 27 27 28 30 32 34 34 34 33 32 32 31 31 32 26 27 28 30 30 31 31 33 39

GFSCGP_700_spd_066.txt.gz
Wind_Speed
13 23 35 35 32 33 29 22 22 28 28 23 18 25 29 27 37 30 30 27 24 27 21 22 20 14 15 13 13 14 12 8 3 9 14 18 19 23 22 26 23 22 34 32
11 24 26 29 30 28 31 27 35 33 30 17 23 26 24 25 28 32 32 26 26 27 23 22 13 12 14 12 12 11 12 8 5 9 13 18 19 21 24 28 24 30 34 28
13 13 14 26 25 28 25 29 29 30 28 23 24 25 19 18 17 21 25 20 31 33 26 20 12 10 11 10 11 10 11 7 6 6 12 15 19 20 26 32 33 31 37 30
10 4 16 20 24 24 21 25 25 24 21 15 12 10 34 25 22 25 29 30 25 37 30 22 13 13 10 10 11 10 11 7 5 2 11 12 13 11 17 29 31 29 33 34
10 10 19 17 24 21 18 16 22 15 14 18 19 19 36 27 27 24 19 21 31 33 33 24 12 12 11 11 12 11 10 8 5 4 3 11 12 10 21 29 36 38 38 31
21 21 19 12 21 19 13 17 19 18 15 6 24 16 25 21 26 25 21 10 28 32 34 25 14 15 15 12 12 12 9 8 6 5 2 3 7 9 12 23 30 31 29 28
22 30 25 17 15 26 18 8 2 4 5 5 14 15 30 25 27 23 14 17 21 36 34 27 20 20 12 9 10 11 7 6 5 5 4 2 2 5 8 8 18 30 29 25
5 6 7 17 22 22 33 16 8 5 1 3 19 10 17 29 27 25 15 14 16 35 34 26 20 19 14 8 9 11 7 5 5 4 5 3 2 1 6 7 10 24 23 18
3 4 2 9 9 17 13 18 24 3 5 2 6 12 22 23 20 14 11 13 10 32 31 23 20 16 12 8 5 9 9 7 5 4 4 4 1 1 2 7 11 16 22 20
9 10 9 10 12 17 14 3 9 8 3 4 5 4 9 12 9 14 16 18 18 21 26 24 16 12 8 6 6 3 7 10 10 7 5 5 4 2 3 8 12 13 18 19
20 15 7 7 11 13 15 13 9 10 5 1 1 4 9 21 22 17 22 23 22 27 28 21 19 15 10 7 2 3 4 5 11 12 10 8 7 7 6 5 8 12 14 18
9 6 9 13 12 10 14 14 17 6 7 8 4 5 11 18 28 27 26 24 27 31 30 29 27 25 18 13 9 5 1 2 3 10 14 12 12 11 10 9 9 10 11 14
3 3 5 8 8 10 13 14 20 20 12 14 3 4 17 11 15 25 18 22 23 24 25 25 21 23 25 22 20 16 12 9 5 4 6 13 16 16 15 15 15 15 15 15
10 5 5 7 6 8 9 9 15 18 9 10 19 11 4 19 10 10 7 9 14 21 22 19 18 18 20 22 21 18 16 14 11 10 10 13 9 11 17 21 21 21 21 22
12 13 13 13 17 20 16 19 20 26 30 16 17 24 17 12 13 15 9 8 4 8 14 15 14 12 13 15 16 17 18 17 17 18 18 17 15 14 14 17 23 26 28 29
9 7 8 11 5 10 19 15 17 17 22 28 28 27 23 21 14 8 13 13 16 7 10 7 6 8 8 9 11 14 17 21 23 21 23 24 23 24 25 25 24 22 24 30
11 4 7 5 11 17 12 18 17 18 20 23 18 21 20 10 26 12 15 12 13 11 8 9 7 6 13 16 14 15 18 19 22 25 26 29 32 32 31 30 32 33 31 30
14 10 4 8 16 3 4 6 14 18 11 12 23 21 17 10 14 23 8 11 12 9 9 14 14 11 12 10 11 14 18 17 20 23 25 28 31 33 35 38 39 37 35 37
19 19 10 6 9 17 26 8 10 5 9 13 10 16 20 29 26 18 15 12 10 8 8 11 10 10 12 12 11 11 10 13 16 18 21 27 31 34 37 39 43 43 42 42
12 23 21 8 4 4 4 5 9 7 3 10 13 29 27 30 29 21 13 10 9 8 11 11 14 14 14 14 15 14 14 14 16 16 19 22 23 27 36 41 45 43 43 44
10 12 27 23 12 12 16 17 17 4 5 21 23 37 39 32 21 19 16 11 9 12 17 18 17 18 19 18 19 20 19 20 21 22 24 25 25 26 29 30 37 46 51 51
12 8 12 20 10 11 16 8 9 5 14 14 23 25 25 24 20 15 10 9 12 13 16 20 22 22 22 23 24 25 27 28 30 30 30 29 30 32 32 31 32 35 40 48
11 27 12 11 11 9 9 19 18 13 11 19 16 17 12 12 11 11 12 12 12 14 17 21 23 25 25 25 26 27 29 30 31 33 34 35 35 36 37 38 38 37 36 40
5 4 6 15 16 15 19 11 19 20 22 21 16 13 14 15 14 14 15 18 20 19 21 23 24 24 25 25 26 28 30 31 31 31 33 34 35 36 37 38 40 41 40 38
4 7 10 14 17 16 20 18 21 25 22 21 18 12 11 15 14 13 14 16 18 21 21 22 23 24 25 26 28 29 30 32 33 33 33 34 35 37 38 38 36 36 37 33
3 9 11 12 15 8 18 16 13 5 17 14 9 3 4 8 10 13 15 17 19 20 21 22 22 23 23 25 25 25 25 26 27 28 29 30 30 31 31 29 25 24 24 26

GFSCGP_700_spd_069.txt.gz
Wind_Speed
20 25 31 30 34 34 29 31 26 28 20 23 31 31 37 29 25 31 27 30 31 32 23 26 26 23 19 13 16 16 13 13 12 15 12 17 17 17 16 16 16 16 27 23
21 23 18 23 27 29 28 28 33 34 24 26 29 31 33 25 24 24 29 30 28 28 29 24 25 19 12 12 15 14 12 11 11 12 13 15 15 15 19 16 17 21 26 27
20 14 13 15 18 24 29 28 26 31 27 34 28 35 34 25 22 24 23 27 30 26 24 25 22 16 16 11 12 13 11 9 9 12 12 14 18 21 23 25 31 22 29 29
18 19 11 12 18 19 27 28 21 26 23 18 8 9 28 30 25 21 18 15 25 23 27 29 25 17 14 10 9 10 11 9 8 9 8 12 13 16 16 19 21 33 25 30
9 10 13 16 13 15 16 16 18 18 19 11 23 13 32 30 31 27 21 15 19 21 25 26 29 22 13 11 11 10 10 8 7 6 4 11 13 13 12 15 23 28 39 27
23 21 20 14 13 13 18 16 15 17 19 11 25 17 20 30 26 28 24 21 21 19 31 30 29 26 18 16 13 10 11 8 5 5 2 6 13 13 13 14 17 33 36 31
15 19 20 23 19 13 15 9 3 6 7 7 10 16 27 9 11 18 24 27 23 18 21 30 29 27 20 17 9 10 9 7 5 4 2 2 8 11 10 9 16 24 31 36
5 5 2 2 12 11 24 20 5 4 3 2 13 7 8 10 18 23 27 27 23 21 24 30 29 27 20 12 9 9 8 6 4 4 2 1 2 6 9 8 11 22 24 22
5 5 3 5 7 12 12 29 20 2 3 2 4 13 19 24 29 30 25 23 21 17 29 25 30 25 18 14 8 7 9 7 5 4 4 3 1 1 5 8 11 15 20 27
5 7 6 9 9 7 10 19 13 7 3 3 5 3 6 6 18 29 24 22 21 14 18 24 27 25 17 13 10 7 5 6 7 5 4 4 3 3 2 5 6 11 14 18
16 13 6 3 12 11 12 10 7 12 5 2 1 4 13 14 1 8 19 19 21 19 21 27 29 26 21 18 15 11 6 4 5 7 7 6 4 3 3 4 5 7 12 18
7 5 10 16 13 11 15 17 14 5 5 5 1 5 9 18 17 12 9 21 23 25 28 32 33 30 28 24 19 14 12 9 8 8 8 9 9 7 5 5 7 8 10 13
1 2 5 8 1 4 15 16 13 14 10 13 4 3 14 8 15 20 17 8 20 27 30 36 33 33 30 27 24 20 18 15 13 12 12 12 11 11 10 9 9 10 13 15
5 1 2 5 11 12 10 8 8 18 8 6 16 7 14 8 13 14 20 15 12 21 28 33 33 34 32 28 23 19 18 15 10 9 10 12 11 14 15 15 15 15 15 17
7 6 10 12 13 16 19 20 18 14 16 9 19 18 22 23 23 9 8 9 8 16 14 19 26 26 27 26 23 22 20 17 16 18 17 16 16 17 16 18 19 21 21 22
4 6 9 15 11 9 17 16 19 18 15 22 30 26 14 14 6 14 12 8 8 6 10 16 12 9 11 10 10 10 13 16 18 18 21 21 22 22 22 23 25 24 24 26
8 8 7 6 10 22 15 3 9 17 22 20 23 27 25 23 22 15 19 16 14 11 7 8 9 1 3 3 5 9 15 19 22 25 26 28 28 28 28 28 29 29 29 32
11 9 8 8 15 3 6 12 11 12 13 17 15 16 17 13 18 17 21 17 10 4 4 8 8 7 5 6 12 16 19 16 18 21 23 25 28 29 29 31 33 34 34 34
16 16 10 5 8 15 21 6 10 13 12 15 16 18 20 23 23 23 21 15 12 7 4 2 0 1 3 7 11 11 12 13 14 16 19 21 22 24 28 32 34 35 36 37
13 19 15 7 4 4 3 10 11 20 19 14 19 7 20 24 33 27 18 14 12 10 1 2 2 4 4 5 8 11 12 14 16 16 18 20 21 23 24 27 29 31 36 40
5 8 21 24 11 12 21 19 12 10 11 13 17 18 16 19 18 26 20 13 11 7 8 6 6 8 10 11 11 13 15 16 17 19 20 21 22 24 26 28 29 30 32 36
5 5 8 12 9 11 19 16 14 13 15 11 10 23 33 23 26 25 19 12 8 7 8 10 12 15 16 17 18 18 17 18 19 20 21 22 24 25 26 27 29 31 33 35
7 10 9 9 7 11 7 3 8 14 11 10 20 29 27 31 24 20 14 7 7 9 10 13 17 20 20 21 20 20 21 21 23 24 26 27 27 28 29 30 31 32 33 35
9 10 2 9 14 13 14 16 11 13 14 14 14 13 5 8 10 3 1 6 11 16 19 22 21 20 19 19 21 22 22 23 24 25 27 28 29 30 31 32 32 33 33 34
6 4 5 7 10 10 10 10 11 18 18 19 14 8 5 5 6 8 8 10 12 15 17 20 19 18 19 19 18 20 21 21 21 22 23 25 26 27 28 28 28 29 31 31
8 8 4 9 9 12 11 14 15 17 23 20 16 11 6 7 8 10 12 13 15 16 17 18 19 19 18 18 19 18 18 19 19 20 22 23 24 25 26 27 27 27 28 28

GFSCGP_700_spd_072.txt.gz
Wind_Speed
22 27 32 24 25 28 31 34 36 34 24 26 24 29 32 28 29 30 30 27 30 27 23 21 24 26 24 22 17 15 17 18 16 16 14 10 16 15 15 11 9 12 18 35
22 27 21 18 21 24 27 32 37 35 30 29 30 35 35 33 29 25 26 28 31 29 29 25 23 23 24 21 16 14 15 16 15 14 12 9 14 15 14 12 7 3 17 30
23 15 10 11 15 22 24 31 33 31 29 29 30 41 38 38 31 26 26 27 26 26 28 23 24 21 19 18 11 12 13 14 13 13 11 9 15 18 18 18 13 13 12 17
16 20 24 17 12 11 20 20 23 20 19 14 11 10 25 24 27 28 26 21 20 24 25 24 22 20 17 14 12 11 10 12 11 11 10 6 12 17 16 17 16 14 17 19
8 7 10 18 15 10 14 11 10 17 16 18 18 15 11 17 23 28 26 20 15 27 29 28 22 19 18 14 15 14 9 10 9 9 9 6 11 14 15 18 22 20 21 26
20 18 18 19 14 13 13 14 15 15 14 10 18 18 9 15 19 21 24 20 18 16 22 24 23 21 24 17 17 15 11 9 6 7 7 7 7 11 13 15 18 17 22 27
12 13 15 19 24 18 16 12 3 4 5 4 4 15 23 12 9 17 21 21 18 21 23 20 23 26 20 22 20 16 12 9 5 4 4 3 5 9 11 12 14 17 24 31
5 4 2 1 7 10 10 14 5 3 3 2 10 6 10 11 13 15 20 20 22 25 25 21 18 23 21 22 20 14 12 9 7 5 3 0 1 4 7 8 9 11 11 28
4 5 1 2 5 6 4 15 20 6 8 2 5 13 15 16 20 26 26 23 28 27 26 25 21 24 22 24 19 15 13 12 9 8 5 4 3 1 3 5 4 3 10 18
9 8 7 8 11 10 12 7 6 13 3 4 7 5 5 8 12 21 26 24 23 25 24 25 26 26 28 27 23 17 16 15 13 9 7 6 5 5 3 2 2 3 7 18
22 13 9 5 8 12 7 6 8 6 10 3 2 2 10 8 9 10 16 22 22 22 19 24 32 29 32 28 26 19 15 13 14 13 11 9 8 6 4 4 5 5 5 8
16 10 9 24 16 11 13 12 9 6 3 11 2 4 7 8 6 5 8 13 21 25 22 24 29 34 32 29 26 22 19 15 15 14 14 12 10 8 6 5 5 6 7 8
0 2 2 1 7 4 4 10 14 14 15 6 3 3 8 9 14 12 9 1 9 20 18 23 31 33 34 32 31 30 26 20 14 12 11 11 11 11 10 9 8 7 8 9
1 5 3 1 5 10 13 14 15 17 6 3 10 8 14 4 12 18 20 18 7 4 11 19 27 31 33 32 31 27 21 17 14 12 11 10 11 14 14 14 13 12 12 12
4 3 5 7 7 10 10 12 15 17 19 10 5 8 14 13 21 12 6 13 15 13 13 14 19 22 33 31 30 25 19 15 15 16 14 12 11 13 12 13 14 15 16 16
7 5 4 8 7 10 18 17 18 18 20 24 18 24 20 12 12 10 10 15 7 16 20 19 16 14 10 11 11 19 23 15 20 15 15 14 13 14 16 17 17 18 19 20
7 4 2 2 10 18 12 2 12 12 14 18 22 20 19 17 23 22 20 18 15 11 13 17 19 16 11 8 4 3 3 6 8 11 14 17 19 20 19 20 20 21 22 24
7 5 3 3 10 1 5 9 13 15 15 14 14 17 6 9 18 18 14 16 22 18 14 13 15 16 9 9 4 3 7 9 11 15 17 19 21 23 24 26 28 29 29 28
14 11 4 2 4 13 19 2 6 10 16 15 13 16 18 19 13 21 16 18 15 11 10 15 13 9 8 4 1 5 9 10 11 12 14 15 17 18 19 21 22 24 27 30
13 15 9 5 2 4 4 5 9 15 21 9 10 16 20 19 21 24 24 24 18 11 13 15 13 8 1 3 3 6 9 11 13 15 15 16 17 18 19 21 22 22 24 25
4 7 17 19 9 11 22 23 21 10 10 19 17 13 14 22 22 23 13 18 18 12 11 9 6 2 2 6 8 10 12 15 16 17 18 19 21 22 23 24 24 25 26 25
3 4 9 11 7 10 12 9 10 12 19 19 11 8 13 17 14 28 25 23 18 12 11 5 4 4 5 8 11 14 14 15 15 17 18 19 20 21 21 23 25 26 28 29
5 10 7 10 7 11 8 3 2 8 15 18 11 12 26 20 19 27 23 19 15 11 4 3 5 8 12 13 13 13 14 15 15 16 17 18 18 19 20 21 23 24 25 27
9 13 14 9 20 19 17 12 8 9 15 13 13 6 5 13 6 2 1 4 5 4 5 10 10 10 13 14 14 15 14 14 14 15 15 16 16 17 18 20 21 21 22 22
13 14 5 4 3 8 9 8 8 9 12 11 7 11 15 5 9 9 7 5 4 7 10 11 11 12 13 15 16 16 16 16 16 17 17 17 17 17 17 17 18 19 21 21
5 1 3 7 9 9 8 7 8 8 7 6 10 7 5 3 5 4 4 4 9 11 10 11 11 13 15 16 16 17 17 17 17 18 18 18 18 17 17 18 18 19 20 20

GFSCGP_700_spd_075.txt.gz
Wind_Speed
15 20 28 24 23 22 23 27 26 28 28 28 32 35 27 23 28 28 25 25 28 32 26 26 24 23 21 23 20 19 17 18 18 16 15 13 9 14 17 14 13 16 26 34
18 24 20 19 20 21 20 24 29 28 23 22 29 35 33 34 33 27 26 25 26 28 30 28 27 26 22 19 19 16 18 18 16 14 13 12 9 14 16 15 14 12 14 32
19 17 16 13 17 15 16 22 26 26 27 28 30 39 36 34 32 31 30 24 23 23 24 31 31 27 23 18 14 15 17 18 15 13 12 12 10 17 18 18 15 8 3 22
18 18 20 17 13 13 13 11 11 13 11 9 5 11 10 10 20 27 26 26 22 22 23 31 32 29 22 19 17 17 18 16 14 12 10 9 8 13 15 16 15 12 4 7
8 7 7 17 24 18 12 11 11 10 13 18 16 14 8 4 12 18 21 21 19 20 21 25 28 25 21 17 20 18 16 13 11 10 7 7 7 12 16 16 17 13 15 13
14 15 14 12 11 14 10 14 11 12 10 8 17 19 7 6 8 7 15 24 22 22 19 26 27 27 22 20 21 19 18 13 11 9 6 5 5 10 14 16 17 16 16 21
8 8 11 15 19 18 15 9 3 2 4 5 6 12 22 13 17 11 14 23 22 20 19 20 29 26 22 24 21 20 18 15 13 10 7 5 4 10 13 15 16 16 17 25
6 2 2 3 2 4 2 10 4 3 3 4 5 8 6 13 18 18 11 16 19 19 23 23 21 24 24 25 26 22 17 13 13 12 9 5 4 6 10 11 12 13 14 23
5 3 2 3 4 2 3 8 9 7 12 6 8 12 10 10 10 12 14 15 17 21 22 28 27 23 25 28 30 25 18 16 15 13 10 7 5 4 7 7 7 8 8 12
8 8 10 6 7 9 10 8 4 8 3 5 7 9 5 12 14 20 22 23 23 21 25 23 31 27 27 28 31 25 19 18 19 16 13 11 7 5 5 6 5 5 7 11
17 11 6 6 6 6 8 8 4 4 6 3 4 2 4 6 11 12 12 15 18 23 23 26 30 30 30 29 33 27 23 22 19 19 16 13 11 8 5 3 3 3 5 10
14 8 13 18 17 8 6 9 11 4 3 8 5 5 5 12 4 10 12 9 11 18 22 30 29 25 25 35 36 30 26 25 24 21 18 15 12 11 9 8 6 4 4 5
3 7 4 9 6 10 10 8 4 9 12 10 4 1 6 6 13 13 5 3 6 11 14 19 26 30 27 40 38 37 33 31 24 17 16 15 14 13 12 11 9 9 8 8
10 9 8 2 4 3 2 3 9 10 7 13 13 8 12 8 10 15 19 6 4 5 6 15 26 21 32 37 38 37 34 28 19 16 16 15 15 14 14 12 11 10 9 8
11 8 11 7 4 4 4 8 9 13 16 11 13 17 11 14 16 12 5 14 13 14 10 8 13 20 24 29 35 36 32 25 18 17 16 13 12 12 11 11 11 12 11 12
4 6 9 4 2 3 9 9 9 8 7 18 19 21 12 13 17 15 9 5 4 15 21 21 19 16 18 20 27 28 28 24 22 20 17 14 16 14 12 12 13 13 12 13
5 3 4 1 2 8 8 8 6 9 7 11 15 16 17 21 11 15 17 15 9 11 22 22 20 21 22 22 20 19 22 24 23 26 22 19 14 12 12 12 14 15 16 17
2 3 3 3 4 3 3 5 8 7 8 12 14 14 15 13 18 20 14 12 13 17 16 15 22 19 16 15 15 14 11 10 11 13 13 11 11 13 14 16 18 20 22 23
10 11 4 1 3 12 11 3 1 6 11 13 10 10 13 17 14 14 16 18 21 22 26 25 21 12 18 17 12 8 9 7 6 5 5 7 8 11 12 12 13 16 18 19
16 16 10 4 2 4 3 6 3 11 13 2 13 18 14 16 19 20 17 20 17 15 21 25 24 21 14 10 9 8 4 6 6 8 9 10 12 13 15 15 16 17 18 19
11 12 15 14 7 8 13 15 18 9 10 15 15 15 12 13 17 22 28 28 19 18 19 19 17 16 13 11 5 1 3 6 8 10 11 13 14 16 17 18 20 20 21 21
4 5 7 8 7 7 5 3 3 7 12 15 15 17 10 12 16 18 21 18 21 22 19 16 11 8 7 7 7 4 7 9 10 11 13 15 15 16 18 19 20 21 22 22
3 6 4 7 5 10 9 4 5 9 8 9 11 13 17 17 16 19 21 20 20 18 18 11 9 7 6 6 7 7 9 11 12 12 13 14 15 15 16 18 19 20 21 22
4 9 12 13 19 27 18 15 9 7 9 10 10 9 11 6 8 5 4 5 10 14 10 5 5 5 6 7 9 9 10 11 12 13 13 14 15 15 16 17 18 19 19 20
11 10 11 4 2 4 8 5 4 5 7 7 4 7 6 5 8 9 7 6 6 5 3 5 8 7 8 9 10 10 10 11 11 13 15 16 16 17 18 19 19 19 20 19
10 8 5 6 6 5 4 4 3 1 2 4 1 4 5 3 4 5 6 7 8 6 4 7 8 9 10 10 11 11 11 12 12 13 15 15 15 15 16 16 17 17 18 18

GFSCGP_700_spd_078.txt.gz
Wind_Speed
12 16 22 20 20 21 21 19 21 22 22 26 28 29 26 26 23 23 23 23 22 24 23 29 31 31 29 29 27 22 21 21 17 16 19 18 17 17 17 18 18 19 19 33
12 19 16 16 17 19 18 19 21 21 16 17 24 30 25 25 29 29 27 25 24 23 25 35 33 32 31 31 27 24 20 22 18 17 18 18 18 16 16 18 15 13 13 19
17 11 12 13 15 16 16 17 15 16 17 22 23 30 19 20 30 31 30 28 26 24 24 32 37 34 32 30 26 22 20 20 19 17 18 18 17 14 16 18 17 18 16 18
14 17 21 13 14 12 13 9 8 10 11 13 9 9 17 19 15 22 26 27 25 25 24 30 36 36 33 30 26 22 20 19 19 17 17 17 15 10 14 18 18 18 18 11
7 8 8 13 19 14 12 9 10 12 15 19 16 13 6 9 9 15 18 21 24 23 24 26 31 38 37 33 29 23 22 19 17 16 16 15 12 11 16 19 19 19 14 10
13 13 14 10 9 11 10 11 14 15 12 10 15 15 6 4 1 3 6 12 19 25 28 29 29 35 41 34 29 27 24 20 17 15 15 13 10 10 14 16 17 17 15 14
6 11 12 15 13 12 13 10 6 8 5 6 3 8 18 12 16 12 9 10 21 27 25 25 25 30 32 31 25 27 25 21 19 15 14 12 9 9 14 16 17 17 18 17
8 6 3 1 12 6 11 13 8 6 4 6 7 8 1 8 14 13 17 10 16 23 23 22 23 27 31 31 27 28 26 22 21 17 15 12 9 9 12 14 16 16 18 19
6 6 6 5 3 7 6 9 7 10 16 10 11 12 10 6 7 10 16 17 15 23 24 25 23 25 29 27 28 30 25 23 22 18 15 13 10 8 10 12 13 14 15 19
8 12 11 13 9 12 10 7 4 8 4 5 4 9 2 9 11 14 18 19 17 19 24 27 29 26 22 23 30 33 30 27 23 20 17 14 11 9 9 10 10 10 10 12
10 13 8 10 11 11 10 11 6 6 7 4 5 2 2 9 15 12 14 15 24 23 21 24 28 29 39 27 26 35 34 30 27 22 19 16 13 11 9 9 8 7 6 8
11 10 17 20 14 12 13 11 11 6 4 4 5 3 4 4 10 8 10 8 9 15 21 25 30 33 35 29 27 34 35 32 30 24 20 18 15 13 11 10 9 8 7 6
9 10 12 11 12 14 18 14 12 10 8 5 5 2 7 6 3 12 14 6 6 8 14 23 29 31 36 32 31 36 38 37 33 25 21 21 19 17 15 13 11 10 10 9
5 16 15 12 3 5 13 12 8 6 5 7 10 17 15 17 18 14 17 13 6 7 8 15 25 32 31 24 32 41 41 40 31 22 20 20 20 20 19 17 16 13 12 12
21 14 16 12 10 6 7 9 9 10 11 10 11 15 17 17 17 18 14 12 4 11 12 11 17 22 19 24 35 41 42 38 28 23 20 18 18 18 18 18 17 17 17 17
13 12 14 10 10 12 11 10 9 8 6 10 13 15 12 13 15 16 12 9 13 7 19 17 14 16 22 25 32 32 36 33 28 25 23 19 18 18 17 16 16 16 16 16
21 14 16 8 9 7 12 12 7 5 5 6 9 12 13 13 18 15 15 15 12 10 17 25 27 25 23 22 25 26 27 26 24 24 25 23 19 17 19 19 19 19 18 18
17 14 4 6 3 6 5 1 3 3 3 5 8 10 11 12 14 16 14 11 11 9 8 16 25 25 27 27 29 26 26 27 28 30 27 28 30 27 19 18 17 18 18 18
15 14 2 2 5 5 3 1 1 1 3 7 2 10 12 12 17 8 12 12 18 15 12 13 22 26 22 19 20 21 21 20 21 20 21 27 28 19 18 17 16 16 17 18
14 15 11 3 1 1 3 7 5 5 6 8 5 11 14 12 17 18 20 15 20 23 24 16 18 19 22 28 24 20 20 18 17 15 11 13 13 12 13 13 13 14 15 16
8 11 13 8 4 4 10 11 12 8 5 9 15 15 14 11 16 20 22 22 21 18 18 22 26 23 18 13 9 11 8 6 7 4 7 8 9 14 16 15 16 16 17 19
8 8 6 6 4 3 4 2 3 5 9 10 11 9 11 8 12 16 16 19 16 17 20 19 19 17 13 11 12 12 10 9 6 6 7 8 11 14 15 16 17 17 18 19
3 2 2 2 2 7 8 6 7 10 8 8 9 9 8 7 8 10 13 16 16 19 18 14 11 10 9 8 9 10 10 11 11 12 14 13 13 14 14 15 15 16 16 17
3 4 4 6 12 16 20 20 17 12 5 6 5 1 11 3 4 2 5 7 8 10 17 8 6 4 5 6 6 6 7 8 9 9 10 10 11 11 11 12 15 16 16 17
7 8 6 8 7 4 6 5 4 4 3 3 3 4 5 6 8 9 8 8 9 11 17 14 10 3 5 5 6 7 7 8 9 11 11 11 12 13 13 14 15 16 17 18
10 8 6 8 10 6 1 1 3 3 3 5 4 1 0 1 2 3 3 4 5 9 11 5 4 6 6 7 8 8 9 10 10 12 13 13 14 15 15 16 17 18 19 19

GFSCGP_700_spd_081.txt.gz
Wind_Speed
10 15 21 20 23 24 23 23 27 25 24 25 29 31 30 29 30 29 26 25 25 23 22 24 26 25 27 31 32 31 31 28 24 22 20 18 18 20 21 21 20 22 22 24
15 20 18 18 21 21 23 24 27 24 22 21 27 29 27 29 32 32 31 29 26 25 24 25 27 26 35 36 34 33 31 27 24 22 21 19 21 21 20 20 19 20 18 22
20 16 12 14 19 21 22 23 23 23 21 24 29 32 28 25 26 30 32 30 29 27 25 25 28 28 34 37 37 35 32 27 25 22 22 19 23 20 19 18 21 18 15 14
23 22 23 23 22 19 23 18 19 18 18 20 16 20 25 21 21 22 23 30 27 29 26 24 25 30 36 35 36 33 30 28 25 22 20 20 23 18 18 17 20 20 20 18
17 13 13 16 18 15 19 13 16 18 22 24 27 22 24 11 14 13 15 15 22 23 24 24 26 30 36 38 37 32 28 26 24 21 18 20 21 16 18 18 21 20 21 19
19 16 16 16 14 14 16 14 19 22 22 19 28 25 19 9 0 1 4 2 9 15 20 22 23 28 27 40 40 33 28 26 25 20 18 18 18 15 16 16 19 20 20 21
14 16 18 14 15 11 10 12 9 12 12 11 8 6 17 4 3 5 5 6 4 9 14 17 25 27 29 39 41 36 31 27 27 21 20 17 15 15 15 15 16 18 18 19
19 14 14 14 17 14 14 16 12 7 6 12 6 7 6 4 3 3 1 2 5 9 9 13 20 27 27 31 40 40 33 30 29 23 21 17 14 14 14 12 13 15 16 16
18 17 10 9 8 13 9 15 17 20 25 17 15 16 7 5 4 5 6 5 8 11 19 11 13 23 28 33 32 34 32 32 28 25 24 17 14 14 12 11 12 14 13 14
21 24 17 12 11 14 17 9 7 11 5 9 14 18 9 8 7 11 13 13 13 13 13 23 8 14 21 27 30 31 34 32 30 27 24 17 15 13 11 9 10 12 13 15
15 22 23 19 19 19 15 17 14 10 10 4 6 5 7 9 20 12 12 13 14 17 16 16 18 16 23 25 26 30 33 35 33 30 25 18 16 13 12 9 9 11 11 11
12 11 23 30 21 18 16 17 18 11 9 10 8 2 2 11 7 10 10 14 11 12 18 19 20 26 27 24 22 23 34 38 36 33 26 19 18 15 13 12 11 10 9 8
10 11 16 21 21 22 21 22 19 13 11 15 8 2 12 18 15 19 20 17 12 8 12 18 21 25 28 30 27 27 32 39 39 35 28 21 19 17 16 15 13 12 10 8
23 18 18 21 10 6 14 26 21 18 9 10 13 14 11 12 17 19 17 20 18 8 11 13 18 22 26 27 31 34 34 41 41 38 31 25 21 21 19 18 17 16 14 12
17 17 18 24 28 13 12 15 22 19 13 11 13 15 15 11 10 14 18 14 14 14 12 16 16 20 24 29 30 31 35 39 40 38 32 24 21 20 19 19 17 17 16 16
17 20 17 27 23 18 12 8 10 11 11 12 11 10 6 10 14 15 15 12 12 13 11 17 20 20 21 22 27 28 31 35 37 37 30 25 22 19 18 19 19 19 19 19
18 12 11 21 21 12 8 17 15 10 7 7 9 11 11 10 11 15 19 14 17 14 14 16 22 25 25 24 23 29 32 35 34 30 28 26 24 22 20 18 17 19 19 20
24 17 16 27 23 11 8 4 7 6 5 1 4 9 11 11 9 12 17 12 14 17 14 12 18 25 28 30 30 30 31 32 36 35 31 29 27 26 24 19 20 22 21 20
22 17 12 10 17 10 11 7 5 2 6 2 4 7 15 13 13 13 6 9 13 14 13 10 10 16 25 32 32 35 36 35 34 34 34 33 31 32 30 29 33 21 21 24
18 16 16 17 4 5 12 4 0 2 7 9 8 7 11 16 16 15 15 16 20 16 14 13 13 12 12 17 25 24 24 21 22 31 29 20 28 33 33 32 35 18 20 19
14 14 18 11 4 8 5 8 4 6 3 11 11 15 14 13 14 16 16 20 15 14 14 12 14 14 14 11 12 13 18 21 17 12 8 8 20 13 12 17 18 16 15 17
8 7 6 7 3 2 4 3 1 2 6 11 12 13 12 12 10 12 16 14 10 10 9 12 14 12 11 8 4 4 3 10 10 9 5 3 4 6 10 11 14 15 15 17
3 2 1 3 6 2 4 8 7 7 12 12 12 12 7 2 3 4 4 5 9 11 9 11 15 10 3 3 4 3 3 1 2 2 2 5 6 7 8 8 10 12 16 19
3 3 2 3 5 9 11 13 10 13 13 9 8 6 4 8 6 3 4 5 7 9 9 8 4 1 2 3 4 5 7 7 7 8 9 10 9 9 9 10 12 14 14 15
9 8 5 8 8 7 10 7 4 2 6 4 1 3 5 6 4 5 4 3 4 6 9 12 7 4 2 4 4 4 5 5 6 6 7 7 7 8 9 10 11 12 12 13
11 12 5 6 6 9 6 4 2 3 3 4 2 2 3 2 1 2 2 2 2 3 6 11 13 5 5 5 5 5 6 7 8 8 8 9 10 10 10 11 13 14 15 16

GFSCGP_700_spd_084.txt.gz
Wind_Speed
13 14 20 18 20 22 24 25 27 28 25 25 29 33 36 33 31 34 33 29 29 26 22 22 24 25 31 31 35 40 35 30 30 32 26 23 22 23 21 21 21 21 21 24
14 21 16 17 18 21 22 25 27 27 27 27 30 36 35 34 34 34 33 30 31 27 25 22 24 26 31 36 36 41 32 31 31 29 24 24 23 24 21 24 22 22 21 26
21 19 16 13 17 20 23 24 24 28 26 27 29 37 36 34 29 26 21 32 29 31 24 24 25 28 34 34 34 38 33 30 30 28 25 24 24 24 22 24 23 17 15 18
21 20 22 23 24 20 24 21 24 24 24 25 22 22 33 29 22 21 22 19 19 26 26 26 25 30 30 33 38 40 33 32 29 28 27 24 23 21 23 23 20 14 15 17
14 12 15 18 18 19 26 19 20 19 24 28 30 27 30 31 29 25 19 13 14 19 24 27 27 27 36 37 34 36 34 35 30 29 26 24 22 20 23 21 16 14 18 22
21 19 18 18 16 17 17 18 20 22 25 18 37 28 32 31 7 4 12 11 6 13 21 23 25 28 28 39 33 33 34 32 26 25 24 23 21 20 21 19 12 14 18 22
18 20 22 20 16 13 14 13 12 15 13 13 14 14 30 3 4 3 3 4 8 11 17 22 23 26 26 37 34 31 35 31 26 22 23 22 20 18 20 17 11 13 18 20
23 22 19 21 19 12 17 16 13 9 7 12 18 8 2 13 10 10 12 13 19 16 14 16 18 22 23 40 35 29 33 33 29 23 24 23 21 17 19 16 10 10 14 18
18 24 6 7 13 13 12 20 20 27 30 21 20 26 3 8 9 4 5 11 15 23 20 19 13 18 13 26 31 34 31 34 31 25 26 25 21 18 18 14 10 9 12 17
12 20 22 19 15 17 22 12 10 9 4 8 10 9 8 7 9 14 12 7 7 11 20 20 19 20 21 22 30 34 31 34 34 28 29 28 21 19 16 12 11 10 9 10
14 13 23 23 20 19 21 23 22 13 12 3 4 4 7 15 15 12 12 12 11 6 11 18 23 20 25 28 32 27 30 31 32 31 33 27 22 19 16 13 10 11 8 8
17 18 21 25 26 22 21 24 23 19 9 13 17 7 6 12 10 11 9 12 16 10 9 17 22 25 24 23 25 28 37 35 31 35 33 28 22 18 16 14 12 11 9 7
17 10 15 20 23 22 22 21 25 18 15 15 7 7 17 12 9 11 13 15 13 11 9 12 18 23 24 27 23 25 31 31 29 35 35 29 23 19 18 17 15 13 11 8
17 18 17 21 15 19 20 18 22 17 17 9 14 12 14 8 4 11 15 18 12 11 10 9 12 18 23 26 27 24 26 29 31 35 34 32 27 23 21 21 18 16 15 12
19 24 25 28 31 22 24 28 18 22 21 15 11 10 8 9 5 8 12 19 13 10 11 10 11 15 18 20 20 25 24 26 29 35 38 36 33 26 22 22 18 17 16 15
18 23 24 30 25 22 28 25 12 16 20 10 13 7 9 4 2 12 14 15 12 13 14 13 11 15 17 20 24 25 29 28 28 30 36 37 32 27 25 23 20 19 20 19
21 19 11 22 19 21 18 23 15 11 9 11 5 2 5 10 10 14 13 15 9 11 16 13 11 13 20 23 22 24 31 29 29 28 29 33 31 30 27 25 24 19 20 20
23 21 15 14 13 7 18 12 14 11 5 4 10 8 8 8 9 9 10 8 10 13 14 16 16 11 19 26 29 29 30 30 31 30 32 31 30 28 25 24 22 18 18 18
21 20 12 6 10 25 21 13 11 9 7 2 7 5 12 10 13 11 12 10 11 16 16 14 14 10 13 19 26 30 33 34 32 35 36 33 32 33 31 30 28 26 19 25
17 17 14 10 3 4 7 8 3 6 7 8 10 10 10 15 15 12 12 13 13 14 12 13 12 11 7 6 2 17 25 29 33 35 36 42 36 41 39 35 33 33 33 35
16 14 17 20 14 6 12 9 9 2 4 10 12 13 13 15 16 13 11 12 12 12 8 7 11 11 9 8 12 4 9 5 9 17 17 23 17 31 16 22 23 30 32 33
11 10 10 13 9 6 13 7 8 6 3 10 15 16 17 12 10 9 9 8 6 6 9 9 7 7 7 6 7 9 7 9 4 2 1 5 5 4 14 4 7 7 6 9
1 9 10 10 7 10 15 11 6 4 9 14 14 12 12 7 3 1 1 0 2 3 3 5 8 9 4 2 2 2 3 4 5 4 4 3 0 4 7 6 4 4 4 7
9 14 8 8 9 11 15 14 8 6 8 9 9 7 7 7 7 6 3 0 2 4 4 5 6 6 5 4 4 5 5 4 4 3 1 2 2 1 1 3 3 5 6 8
15 12 7 5 6 8 11 12 7 5 3 4 5 7 8 8 9 9 7 4 2 0 1 3 4 5 3 1 2 0 2 3 3 3 3 3 3 3 2 4 6 9 10 12
16 19 10 4 6 7 7 8 5 4 6 5 5 6 5 5 6 6 5 5 5 4 2 2 3 4 4 1 2 3 3 3 4 4 5 6 6 7 8 8 9 9 10 11

GFSCGP_700_spd_087.txt.gz
Wind_Speed
10 13 18 14 13 14 18 21 26 30 31 31 34 35 32 28 30 34 40 32 39 39 34 26 23 26 26 32 44 38 41 34 33 28 29 30 27 22 21 22 21 24 22 22
14 22 11 8 12 22 28 28 28 32 30 27 33 37 34 31 34 36 39 38 39 32 36 34 31 28 30 34 40 38 37 36 32 28 30 28 27 23 23 24 22 26 23 22
17 19 16 20 19 21 24 23 26 30 31 32 30 41 34 30 30 31 32 33 29 34 30 30 33 24 27 33 40 37 38 35 34 31 29 30 28 25 25 23 25 26 23 20
18 20 21 22 25 20 27 22 25 27 29 26 23 24 34 38 33 25 32 30 22 20 28 28 31 26 25 28 34 35 34 32 34 33 30 28 26 23 24 23 25 23 21 17
19 14 13 19 27 25 29 24 26 25 28 31 31 25 38 37 37 31 24 26 32 16 17 26 23 28 25 26 32 36 35 33 37 33 29 27 25 25 25 22 23 20 19 17
23 20 21 24 19 19 22 20 20 24 25 15 39 17 18 18 21 20 20 6 11 26 28 29 29 31 31 29 31 32 30 31 33 34 29 26 26 25 24 20 20 18 16 17
20 24 23 24 24 20 16 15 5 4 5 9 14 14 14 22 13 6 14 5 11 16 25 28 28 31 36 31 35 36 34 31 30 32 26 26 27 26 21 19 16 16 14 14
23 26 19 22 31 23 12 19 9 4 3 11 34 6 10 32 19 5 7 22 12 12 20 23 26 31 36 32 36 35 31 28 29 31 26 24 26 25 21 17 14 14 12 12
11 18 16 5 21 23 19 21 27 28 26 15 13 21 5 17 28 19 7 7 14 14 19 17 23 26 30 27 34 36 31 28 28 31 29 23 25 24 20 15 13 14 10 11
11 18 17 16 11 18 20 18 9 9 4 5 7 3 3 24 25 14 11 11 8 12 19 21 22 19 17 25 36 36 33 31 28 31 31 24 25 26 19 16 13 12 9 10
13 10 22 19 13 15 20 24 22 19 13 3 4 4 7 17 15 14 13 14 11 8 13 19 26 24 17 21 28 24 24 29 26 29 26 24 26 27 19 16 13 12 9 8
15 12 19 30 32 22 21 25 23 22 10 14 9 6 9 11 12 8 12 16 14 10 10 17 25 24 20 21 18 17 17 22 20 25 28 28 27 26 21 17 14 12 9 8
14 6 13 19 24 20 12 17 18 18 21 22 10 5 10 19 8 12 12 16 13 12 9 14 21 25 25 22 21 23 24 25 24 26 25 29 29 28 23 19 16 13 12 10
15 19 21 14 22 23 27 29 19 20 9 13 17 8 6 3 11 9 9 13 11 9 9 4 11 22 25 27 28 27 26 25 30 33 28 33 32 31 27 21 19 17 14 12
12 20 21 26 30 31 28 29 25 25 25 10 10 8 4 4 5 7 9 14 14 8 12 8 7 13 14 19 22 21 22 20 23 34 29 33 34 33 27 23 20 18 16 13
14 17 21 29 23 31 28 28 28 28 17 19 18 14 3 5 7 7 13 13 11 5 11 9 9 8 14 13 15 16 19 21 24 25 28 32 32 32 27 23 23 20 20 17
29 22 17 18 22 15 18 27 23 25 15 11 9 7 1 3 2 4 7 7 8 11 12 12 8 6 10 17 16 18 17 22 24 24 26 27 27 30 29 28 25 24 23 22
26 23 19 21 24 6 8 13 17 15 9 14 15 6 6 7 7 7 7 6 7 12 15 15 13 9 12 15 20 25 15 25 29 26 27 24 23 30 31 33 31 28 27 25
29 28 15 8 12 19 16 4 4 17 11 7 8 8 7 8 9 8 7 6 9 9 13 14 12 11 12 11 14 21 26 28 26 27 33 31 28 30 32 34 35 33 30 28
10 17 22 9 4 4 19 24 6 9 10 7 7 6 8 9 11 9 10 5 9 11 13 12 11 9 8 7 6 11 17 20 28 28 33 33 40 40 38 34 34 34 34 30
11 14 22 20 6 7 17 17 6 6 4 6 10 10 11 12 10 11 9 8 9 8 11 7 5 8 6 6 6 5 4 7 7 9 15 15 19 22 31 27 37 37 37 34
10 7 11 14 7 2 15 15 15 9 3 7 12 13 13 12 7 5 5 6 6 7 5 6 5 4 3 1 2 3 2 1 3 4 2 1 1 3 6 10 12 21 21 19
3 10 12 8 6 5 12 12 8 3 4 7 10 10 10 10 7 4 3 2 2 3 3 3 3 4 3 4 4 5 6 7 8 7 8 7 4 4 1 3 3 3 7 6
15 12 8 5 9 10 16 13 10 7 5 6 7 8 9 9 10 9 9 7 5 3 2 2 3 6 4 3 3 4 5 7 7 6 6 6 5 5 3 1 4 4 3 3
19 15 11 11 9 7 9 10 10 7 7 8 9 9 9 9 10 9 8 7 6 5 2 2 2 2 2 3 3 3 4 3 3 3 2 2 2 2 2 2 2 4 7 9
20 19 11 4 4 3 5 7 7 8 7 6 7 7 8 7 7 6 6 6 6 6 5 3 1 2 3 3 2 1 2 2 3 3 4 4 4 5 5 5 4 6 8 9

GFSCGP_700_spd_090.txt.gz
Wind_Speed
10 14 21 13 18 19 18 21 27 27 23 27 33 40 38 34 35 37 35 36 35 44 38 37 32 27 34 32 35 42 42 36 39 37 31 31 31 30 28 24 21 21 21 22
16 22 6 6 9 13 16 24 30 32 27 28 37 41 39 36 36 35 37 35 40 34 32 33 41 38 30 34 35 39 42 36 41 37 34 24 30 27 29 26 24 23 22 24
22 13 5 16 15 16 20 23 26 32 32 35 34 42 43 36 35 37 36 39 40 42 36 32 33 41 36 33 36 44 41 37 41 37 32 27 26 29 31 31 25 22 23 24
17 16 16 15 22 19 25 21 25 26 27 28 22 18 38 35 43 38 32 37 35 35 37 30 26 32 43 38 34 38 39 39 41 35 35 28 25 31 30 24 22 23 22 24
12 11 11 16 18 14 22 22 26 24 27 30 43 18 31 34 21 25 12 23 23 31 31 26 27 31 34 39 31 30 34 39 35 34 35 27 26 29 27 28 24 21 21 23
18 13 13 18 17 18 20 23 24 27 26 15 36 18 14 12 21 27 20 16 21 22 17 28 26 30 31 35 27 21 34 36 33 34 29 29 29 29 30 29 23 19 20 22
14 18 17 19 25 22 24 21 5 4 1 7 13 11 17 29 27 29 48 31 14 18 9 24 25 30 30 32 30 25 27 32 31 28 28 26 28 29 30 29 23 19 19 20
11 10 14 12 15 19 25 26 10 6 4 11 24 9 9 16 14 25 25 20 18 18 11 14 21 28 25 25 27 33 33 34 29 27 28 26 29 31 32 27 22 18 19 17
7 10 13 13 11 12 20 22 21 25 28 12 11 13 15 17 26 38 22 12 11 8 17 22 21 26 23 21 22 28 30 30 32 30 26 29 30 29 29 26 21 18 19 12
6 13 10 21 18 8 8 15 9 8 3 5 6 8 10 11 15 16 18 8 19 14 10 18 22 21 21 22 25 29 33 35 32 29 29 29 30 25 26 25 21 17 18 10
11 11 17 19 7 8 15 15 15 19 17 4 4 5 11 14 17 14 15 21 21 16 10 11 17 21 17 19 24 28 35 35 33 32 30 32 30 25 24 23 20 18 16 10
11 10 17 23 29 27 21 16 12 7 6 16 19 21 22 14 18 19 13 18 19 16 15 8 11 17 16 16 17 23 28 39 28 33 30 30 28 27 22 23 22 19 13 10
11 4 10 20 11 9 8 9 12 20 10 15 6 8 19 17 19 12 13 15 17 14 15 16 11 14 15 17 10 13 16 23 7 33 26 24 28 25 21 24 24 18 16 13
11 9 10 8 19 23 35 27 23 19 12 16 22 24 18 15 13 6 14 14 15 11 12 11 13 14 16 14 10 13 10 16 15 21 23 22 23 26 25 26 26 21 18 14
11 14 12 18 23 26 30 30 30 22 21 19 19 23 23 12 7 3 4 14 14 9 8 9 8 11 13 12 12 11 12 11 16 21 33 22 25 23 22 27 26 21 17 15
17 16 14 27 26 22 24 33 29 25 26 27 29 20 12 7 7 5 10 14 11 7 6 8 8 6 11 12 10 9 9 12 16 19 23 17 19 21 24 27 26 24 20 18
28 24 24 23 15 22 21 19 18 17 19 22 23 17 10 8 9 7 5 5 6 9 10 10 8 9 8 12 14 12 8 11 17 18 21 22 22 22 21 27 30 30 27 22
27 25 17 16 18 4 2 7 7 8 9 5 16 12 9 5 0 6 5 4 8 11 12 14 10 12 14 5 11 16 12 17 16 24 24 21 23 25 25 26 24 29 32 27
18 21 13 6 8 21 19 9 17 4 6 4 4 6 4 4 3 2 4 6 6 10 11 12 10 10 12 14 9 6 16 21 21 28 26 25 31 35 29 26 25 26 27 30
8 18 22 6 4 4 9 24 21 7 6 7 2 2 1 2 4 5 6 7 4 8 10 11 7 6 7 9 11 10 8 11 19 24 24 31 37 32 34 35 32 30 35 33
3 8 22 20 10 7 16 18 1 8 3 6 8 5 5 3 4 2 1 2 4 6 9 9 6 5 4 7 10 5 7 6 4 8 15 18 23 24 29 32 30 40 44 38
2 5 10 13 4 4 11 17 14 10 4 6 10 10 11 12 10 8 6 4 3 4 6 7 7 5 5 4 4 2 1 1 3 3 4 4 2 9 9 16 17 16 21 17
12 6 4 4 4 5 6 9 8 6 4 8 11 11 12 12 11 10 8 6 5 5 5 6 4 2 1 2 2 1 2 5 4 4 4 5 7 7 4 5 6 6 8 12
11 7 4 2 6 11 9 7 8 8 10 13 12 13 14 13 12 12 10 9 7 6 5 4 3 3 3 3 3 3 5 6 5 4 5 4 5 6 7 7 3 6 4 3
13 5 4 4 6 5 6 7 10 11 12 11 10 9 9 10 10 10 9 9 8 7 5 4 3 3 4 3 2 1 2 3 3 2 1 1 1 1 2 3 5 4 3 4
13 9 1 2 1 3 4 6 9 10 9 9 10 9 9 9 9 9 8 8 8 8 7 6 4 3 4 4 3 2 3 3 1 1 2 3 3 2 3 3 3 3 5 7

GFSCGP_700_spd_093.txt.gz
Wind_Speed
21 21 26 26 23 21 23 24 26 19 14 24 25 36 38 35 36 35 34 34 34 35 39 40 40 39 39 36 36 37 44 48 44 41 42 39 41 36 35 34 33 27 23 20
21 26 18 13 12 11 13 18 22 22 17 21 27 42 39 38 34 31 31 38 39 36 38 42 49 38 39 40 37 35 38 43 43 42 38 40 41 35 37 31 29 28 25 22
26 14 14 14 13 13 14 18 21 26 25 27 34 42 39 36 35 31 33 29 37 36 36 36 40 44 35 38 43 38 36 37 37 41 41 36 37 35 35 29 27 30 25 23
18 20 22 16 15 13 22 14 20 24 24 22 15 15 43 26 14 30 23 30 29 27 27 30 36 37 37 35 43 45 34 36 38 39 40 37 36 34 22 29 28 28 25 23
12 7 10 15 16 10 15 11 14 17 22 32 11 8 35 31 18 16 27 34 29 29 33 26 30 32 30 34 36 42 35 33 34 39 36 37 35 36 32 28 26 28 27 23
17 14 14 12 15 16 17 16 13 18 21 10 30 10 16 13 23 30 28 31 40 43 33 24 26 28 24 28 28 39 38 32 34 35 36 37 35 35 28 27 28 30 28 24
11 13 12 14 17 16 14 16 3 4 1 6 10 11 11 29 17 23 35 35 38 32 22 21 20 23 19 22 28 30 37 30 32 33 32 33 34 33 33 27 29 29 27 25
8 4 7 10 3 8 13 14 11 6 4 7 18 8 10 22 20 23 26 35 29 18 17 23 16 12 16 20 21 26 28 27 31 32 29 33 33 32 29 28 28 29 27 26
5 7 11 9 7 9 5 10 18 26 22 8 8 17 24 15 13 20 35 28 25 22 19 19 23 11 13 13 14 22 29 28 24 31 33 35 31 32 28 28 28 27 29 24
5 6 10 15 14 10 3 4 3 3 3 4 6 8 10 16 15 25 27 34 27 26 19 13 17 16 16 14 13 21 26 31 28 33 43 29 31 28 29 28 25 28 27 23
8 9 8 12 8 14 18 13 10 7 9 3 3 6 10 19 29 28 26 35 28 29 20 16 12 13 17 18 22 23 23 30 32 33 34 31 29 27 30 27 26 27 24 22
12 8 6 16 13 15 17 11 5 3 4 7 8 8 9 16 18 20 27 29 22 25 22 17 11 10 7 18 17 22 22 27 32 38 37 29 29 30 29 28 27 25 25 20
5 3 5 3 7 6 5 2 10 15 11 15 7 6 9 23 18 23 22 19 25 22 19 17 14 9 7 9 14 16 20 26 28 32 30 31 28 32 30 25 26 25 24 20
11 7 6 6 11 15 21 23 22 16 13 14 21 26 19 24 23 18 17 20 18 18 15 16 16 10 4 7 9 17 18 23 27 34 37 46 35 32 31 28 27 24 23 21
11 10 13 15 16 19 22 26 26 28 27 28 30 27 27 24 18 23 12 14 15 11 11 13 13 11 7 2 8 8 11 13 10 17 27 29 37 27 27 26 25 23 20 20
12 10 12 22 20 22 27 32 31 29 29 30 29 34 29 16 10 13 12 17 14 7 9 12 13 14 7 3 3 4 8 14 11 17 19 5 28 19 21 22 24 16 13 17
19 17 13 14 14 17 23 15 22 27 29 25 27 25 25 19 18 11 9 17 15 10 9 11 10 11 14 3 6 8 6 10 12 14 15 16 13 24 19 21 21 20 20 22
21 18 10 10 10 5 11 14 26 6 12 17 21 25 22 18 14 9 8 7 10 11 11 11 11 10 11 12 3 8 8 11 14 16 24 18 27 27 20 23 24 23 28 26
10 16 10 5 9 19 24 7 22 13 5 9 11 14 14 12 10 10 6 5 7 7 12 12 11 9 9 12 13 7 9 11 14 15 15 24 20 19 23 23 23 22 28 28
6 10 19 9 4 4 6 16 27 11 4 3 7 7 7 9 10 10 8 7 5 7 10 11 11 10 9 10 9 9 9 3 12 10 16 21 23 29 30 28 26 28 29 27
0 8 18 18 7 10 18 23 3 7 0 3 9 6 8 4 8 6 1 2 4 6 8 9 8 7 8 10 9 7 7 7 4 3 4 8 12 17 20 25 33 37 34 34
1 4 8 11 9 4 12 7 7 7 6 4 5 8 9 7 7 7 5 4 3 3 4 6 7 7 8 9 10 8 5 5 5 4 4 2 2 3 7 11 19 25 26 24
5 5 0 2 3 5 7 6 7 8 6 7 7 10 13 10 9 8 6 6 4 4 5 5 6 6 7 8 8 7 4 4 3 1 2 1 1 1 1 4 7 8 11 14
5 3 4 2 1 6 7 5 8 10 9 12 13 13 12 12 11 11 10 9 8 7 6 6 6 6 7 7 8 7 6 2 1 1 1 1 0 2 3 4 3 1 2 4
7 2 3 1 3 4 6 6 8 9 10 11 10 10 11 10 9 9 9 10 10 10 9 8 7 7 7 7 6 6 6 5 3 3 2 1 2 2 1 1 2 0 0 1
7 6 2 2 3 2 3 5 7 7 8 8 8 9 9 8 8 8 8 8 8 8 8 8 8 7 8 8 7 6 5 6 6 4 5 4 4 3 3 3 3 3 3 4

GFSCGP_700_spd_096.txt.gz
Wind_Speed
31 32 34 28 29 28 25 26 26 22 12 22 26 31 25 22 24 28 27 27 28 30 33 36 38 44 45 40 37 37 37 34 36 47 47 45 45 36 29 31 33 35 33 28
27 34 28 23 18 17 17 19 20 15 8 19 26 36 29 22 23 26 24 25 30 31 31 37 32 40 46 47 43 37 40 37 33 35 49 48 44 38 34 34 34 37 36 31
29 3 17 27 20 18 17 16 15 16 15 18 23 34 20 23 19 20 19 24 30 32 39 37 32 31 37 45 47 44 39 40 35 35 38 47 42 39 40 38 39 39 39 30
23 26 27 15 15 16 18 12 13 14 15 9 14 11 19 14 21 16 18 27 32 34 39 42 36 32 32 32 37 43 39 40 36 32 35 43 45 43 37 35 43 41 34 32
20 12 13 24 22 17 16 8 9 11 14 15 12 8 6 25 17 15 22 25 30 33 43 39 38 33 31 29 29 34 34 38 41 35 30 34 37 42 35 36 30 18 19 23
20 8 7 5 8 10 9 11 15 14 13 5 13 15 11 16 20 23 23 26 34 37 41 38 31 24 24 20 25 25 28 31 36 39 30 32 36 35 35 34 29 27 23 27
16 14 12 13 12 10 11 11 2 3 1 5 11 9 18 22 19 23 23 25 30 36 36 34 23 19 23 20 19 21 27 30 34 36 28 28 33 36 32 29 34 24 28 28
11 4 12 9 10 8 6 10 6 5 3 4 6 7 9 19 20 20 21 29 30 30 36 28 23 19 14 15 15 19 25 29 27 32 29 32 34 37 30 36 35 29 30 29
9 6 9 5 5 5 4 6 7 8 13 5 6 15 22 12 12 18 24 31 30 39 34 29 19 11 9 13 10 15 19 23 28 31 33 33 34 31 36 39 39 31 31 30
7 3 8 5 5 4 5 5 3 2 2 5 4 5 5 12 9 18 28 28 31 33 30 29 28 15 12 8 10 12 16 21 25 21 22 32 33 33 37 44 25 30 30 32
7 7 6 9 3 9 11 9 8 4 4 3 2 2 6 9 15 20 22 28 34 32 25 31 28 20 13 11 10 10 13 18 24 22 18 21 30 34 33 33 27 31 31 29
7 4 5 6 11 12 11 5 7 6 3 4 3 7 9 13 17 23 28 29 29 29 28 24 29 23 11 9 11 13 16 17 19 25 24 24 27 29 37 28 28 30 29 29
3 3 6 4 5 6 3 6 3 5 7 12 3 8 14 19 23 26 26 27 30 28 26 21 23 22 15 5 7 17 15 18 22 23 27 31 41 35 39 29 31 32 30 29
5 3 4 5 4 8 11 11 10 10 8 15 29 35 26 28 28 25 24 24 30 25 22 19 19 19 14 8 4 10 18 20 20 24 23 25 29 33 31 31 31 29 32 30
7 3 5 8 10 13 14 14 14 20 27 20 38 36 33 29 27 26 21 16 20 20 17 17 16 14 11 10 12 11 6 13 17 12 13 25 34 42 30 39 31 30 33 30
9 6 10 14 15 15 19 21 23 22 20 28 37 40 28 28 26 23 17 16 14 16 16 15 16 14 13 8 6 8 8 9 11 14 14 13 24 24 33 44 34 33 28 23
10 8 6 3 3 12 16 16 13 16 26 31 34 29 28 29 24 21 21 15 13 15 13 11 12 11 12 10 6 6 9 7 11 14 12 18 17 9 28 37 32 28 23 21
8 7 6 5 8 1 5 6 17 22 29 17 19 23 17 23 20 20 15 17 10 10 9 10 9 9 9 13 12 7 6 10 11 15 10 11 8 8 26 36 23 20 21 21
4 8 5 3 2 13 19 16 12 21 25 14 12 15 22 21 20 16 12 9 11 6 8 9 7 7 7 10 12 12 8 8 7 8 14 14 20 22 25 26 25 20 16 15
5 9 11 5 2 4 7 9 21 25 14 9 8 10 14 10 5 6 8 11 6 4 5 9 8 9 10 10 9 10 11 11 7 6 9 9 12 13 16 18 23 23 21 18
1 5 13 14 5 7 12 19 18 3 6 8 3 3 6 6 6 7 5 2 1 2 5 6 8 9 10 11 12 11 11 12 12 11 8 7 7 12 17 15 18 19 23 27
2 4 5 5 5 5 12 10 2 3 8 6 6 9 5 5 6 5 4 3 4 5 6 6 7 8 10 11 12 11 11 10 11 10 9 8 7 4 7 14 13 18 26 19
1 2 2 3 2 7 8 7 6 5 6 5 7 7 8 8 8 7 8 7 7 6 7 8 8 9 10 10 10 11 10 8 7 8 9 9 8 6 4 4 8 9 11 11
1 4 2 1 2 5 6 5 5 6 9 10 11 10 12 12 10 10 11 10 9 8 8 7 8 10 10 11 10 10 9 9 7 7 7 7 7 7 6 5 3 1 1 3
3 2 3 2 4 4 5 5 6 7 7 8 9 8 8 9 10 10 11 10 10 10 11 11 10 9 8 9 10 10 9 8 8 7 6 5 5 5 4 4 3 2 2 2
6 2 3 4 3 2 3 4 6 7 7 7 6 5 6 7 7 8 8 8 8 8 9 10 11 12 12 11 10 10 9 9 9 8 7 6 6 6 6 6 6 4 3 3

GFSCGP_700_spd_099.txt.gz
Wind_Speed
36 39 43 38 30 29 17 18 22 23 17 23 22 21 20 17 19 19 16 16 17 19 21 24 26 31 37 37 39 42 40 39 39 39 38 54 53 50 48 46 36 32 32 37
37 45 40 31 25 26 25 25 25 19 10 15 19 25 23 17 11 8 7 9 12 18 21 24 26 29 32 36 37 43 45 44 44 44 43 41 51 53 51 47 39 33 33 39
39 20 26 32 28 23 19 19 17 12 11 16 20 21 7 8 1 6 7 13 16 19 24 29 33 35 35 37 35 37 42 45 46 44 44 40 43 51 54 49 42 39 38 36
22 29 8 17 29 24 21 20 12 12 10 5 6 7 8 3 7 5 10 11 15 20 28 35 39 36 32 31 33 34 36 42 44 45 41 42 39 43 52 51 47 46 44 41
25 15 25 32 28 16 22 13 10 9 12 12 10 8 4 8 3 6 11 12 17 22 34 38 42 45 32 30 37 35 32 32 37 47 43 40 40 41 44 49 46 42 42 41
27 20 11 6 11 26 13 12 9 10 10 7 16 17 5 4 7 10 13 16 20 26 35 38 43 40 32 28 21 22 28 33 35 41 42 40 38 36 38 43 44 39 40 36
16 21 13 14 9 11 17 13 5 4 5 5 11 12 16 14 11 15 13 16 21 30 30 40 39 32 29 25 22 25 25 29 34 35 38 38 41 35 33 37 40 41 40 27
14 6 16 14 14 14 18 21 8 5 5 2 9 7 4 6 15 14 14 17 25 27 31 33 35 31 29 22 21 22 20 22 28 30 32 37 35 31 36 37 37 38 36 39
12 5 12 12 12 14 12 12 14 5 5 4 9 10 9 13 10 8 12 20 25 26 32 29 30 32 34 17 15 14 15 19 23 26 29 32 33 31 32 37 37 37 39 37
8 6 10 10 9 8 9 11 4 4 4 7 5 7 7 8 6 9 15 18 23 28 33 30 31 30 32 20 12 12 10 15 19 27 27 29 28 31 34 39 38 36 39 42
7 6 5 8 8 10 7 6 6 5 3 3 4 4 7 2 5 10 15 22 28 31 33 32 33 28 29 21 16 14 9 13 18 20 22 23 27 30 33 37 39 38 40 39
14 8 8 7 10 12 14 12 13 6 5 3 3 7 13 12 12 15 20 24 26 30 28 29 33 29 25 20 14 13 16 12 14 18 21 18 21 17 25 28 30 34 34 35
11 7 5 2 4 7 5 9 10 9 6 6 5 4 11 16 23 27 31 30 28 26 22 34 32 27 23 18 15 11 10 8 13 18 16 21 19 23 20 25 24 25 26 34
6 11 7 6 4 9 8 11 8 8 5 8 19 24 27 28 34 37 33 33 28 26 26 30 27 24 22 16 15 17 6 10 15 18 23 17 17 19 19 26 27 29 32 42
5 7 10 11 11 12 13 15 14 13 13 13 18 26 33 32 33 34 24 23 25 20 19 17 20 21 20 18 13 14 15 13 14 15 25 28 25 23 34 38 37 39 37 38
6 6 7 9 9 12 16 15 16 17 20 24 24 32 32 32 26 25 26 20 18 18 16 18 18 16 16 16 12 12 13 14 16 12 12 18 22 23 22 32 31 31 35 33
7 6 5 3 3 4 10 10 10 10 9 16 22 26 18 19 22 23 23 17 19 15 17 15 16 12 11 12 14 11 12 8 11 10 9 14 19 17 18 21 31 33 31 31
4 4 2 2 3 3 2 4 5 11 10 16 23 21 18 19 17 16 18 15 9 9 12 11 11 8 9 11 14 13 12 11 9 11 17 12 8 10 12 14 28 43 37 30
4 6 3 1 2 6 7 11 8 14 18 22 16 16 12 14 15 16 13 8 6 6 8 9 8 7 8 11 11 12 14 14 12 6 4 7 10 13 14 10 25 30 34 27
5 6 6 4 2 2 5 5 15 16 11 8 13 12 9 12 7 8 5 2 2 1 4 7 5 8 11 11 12 14 14 16 14 9 9 7 5 5 6 10 18 28 25 25
1 3 5 6 3 5 8 14 15 2 7 15 13 8 11 13 8 4 3 4 3 3 2 3 7 9 10 12 13 14 16 13 15 15 16 14 10 8 3 5 9 16 18 22
2 3 2 3 4 3 10 10 3 5 9 9 4 6 5 7 6 6 4 5 6 6 5 5 7 8 10 11 12 13 13 15 16 16 17 17 14 11 9 5 1 3 6 13
1 3 3 5 3 3 8 7 7 5 5 4 7 9 10 9 8 8 8 10 10 9 8 8 8 9 10 11 12 13 13 14 14 15 15 15 15 14 13 12 9 6 4 4
3 4 2 3 0 4 6 6 6 7 8 11 11 11 12 11 11 12 12 12 13 13 13 12 12 12 12 11 12 12 13 13 13 13 13 13 13 13 12 10 10 9 7 5
1 5 5 4 1 3 4 5 7 8 10 12 12 12 11 11 11 11 11 12 12 12 13 13 13 12 12 12 13 13 13 13 13 13 13 12 11 10 10 9 8 6 5 5
3 2 5 5 3 3 4 5 6 8 9 10 11 10 10 8 8 9 9 9 10 11 11 11 11 12 13 13 12 12 11 11 11 12 12 12 13 12 11 10 9 8 7 5

GFSCGP_700_spd_102.txt.gz
Wind_Speed
39 32 43 34 31 30 19 20 18 15 15 15 21 23 20 19 18 17 15 17 17 17 16 17 20 23 27 31 34 36 37 38 44 47 49 50 54 58 57 56 52 54 51 41
27 41 34 27 28 28 28 25 26 22 21 19 18 20 18 19 19 16 13 13 10 9 11 13 16 19 23 32 37 38 38 42 42 52 53 51 48 47 55 58 56 56 52 45
30 28 22 30 29 27 28 29 23 20 11 14 16 22 18 12 14 15 13 10 8 8 10 14 18 23 27 29 35 40 39 46 49 46 56 55 50 49 48 52 60 56 56 47
33 39 33 22 29 28 31 23 19 15 13 15 10 5 12 10 11 11 8 7 8 9 14 21 25 27 31 32 34 35 39 40 42 43 50 57 54 52 48 40 44 57 58 52
28 21 30 25 17 21 25 16 16 16 17 17 18 11 10 16 12 12 7 7 7 12 16 21 24 29 33 35 35 33 36 38 42 38 43 53 53 48 41 41 40 51 58 51
25 15 20 17 19 25 15 11 12 14 15 17 21 17 13 18 13 12 6 8 9 11 16 23 26 30 32 31 38 39 30 27 29 35 38 43 49 44 40 40 41 41 51 53
13 17 15 13 12 14 28 17 8 10 10 13 6 14 9 14 7 8 8 11 12 14 16 23 28 25 32 30 34 36 28 24 25 31 37 39 44 43 43 42 44 43 46 48
13 9 21 15 18 14 28 28 16 10 11 11 7 9 7 10 15 12 12 12 12 16 18 26 32 30 33 33 33 30 23 21 26 28 31 33 40 43 43 44 44 38 39 41
18 12 19 18 19 18 21 30 26 14 8 7 12 9 4 8 11 12 11 11 14 15 21 28 30 31 32 32 32 28 22 19 19 20 26 31 36 43 41 44 37 43 40 45
6 7 12 12 16 20 12 18 12 15 12 15 15 13 6 7 5 7 7 8 12 17 22 27 29 31 28 30 29 29 21 18 11 15 18 23 25 30 36 35 35 36 42 42
10 9 9 11 6 6 8 10 9 6 8 7 11 4 9 6 7 5 8 11 16 20 22 26 30 33 29 29 27 23 16 16 12 16 20 24 25 30 35 34 37 36 32 40
14 9 7 6 9 11 11 6 6 10 10 8 9 11 7 12 14 14 19 22 25 25 28 29 33 32 31 30 26 26 17 23 14 15 20 25 28 33 32 33 33 36 35 36
10 5 4 4 9 14 7 13 16 15 13 13 12 8 5 8 13 24 29 31 32 32 33 36 32 29 28 28 28 26 25 14 16 19 21 23 21 22 27 25 26 31 32 36
12 13 9 7 3 6 6 9 8 10 6 8 15 16 11 16 21 20 26 31 27 25 24 25 24 24 23 27 28 26 22 20 16 9 24 24 25 21 22 23 19 23 25 34
14 7 11 5 7 7 6 8 10 13 14 10 13 14 19 23 24 25 31 27 22 22 21 20 21 20 21 24 25 26 20 15 19 17 16 19 26 28 13 20 20 22 26 26
10 6 10 7 7 7 11 12 13 16 17 19 19 21 15 22 23 22 23 21 19 18 19 20 21 21 18 20 18 19 17 15 10 7 10 14 26 27 24 19 19 31 28 27
8 7 6 3 2 2 8 8 13 13 11 11 16 16 23 20 22 21 21 19 16 15 18 17 16 15 13 14 13 14 14 11 11 9 14 9 6 11 23 27 27 30 32 38
6 9 6 4 3 4 2 4 5 8 11 18 18 24 25 16 19 20 20 16 14 14 12 10 12 10 10 10 10 11 14 16 13 9 8 8 7 5 10 10 15 21 27 28
10 7 4 4 7 1 5 7 10 10 13 22 22 18 16 13 13 17 15 12 10 8 6 7 5 6 7 8 9 11 14 17 15 11 8 7 6 6 9 11 14 15 25 31
8 7 4 4 3 4 7 7 10 12 12 16 14 17 14 6 5 8 8 8 5 2 1 2 7 9 9 9 11 14 15 15 13 16 16 15 12 10 7 7 6 9 24 32
7 5 7 7 4 3 5 7 10 5 5 13 15 11 10 17 6 7 5 4 3 3 4 7 9 8 9 11 12 12 13 12 16 19 20 19 18 15 12 11 7 4 8 15
6 7 5 5 4 2 5 7 4 8 9 10 6 4 5 8 6 4 3 4 6 6 7 8 9 9 11 12 12 13 12 15 17 19 18 18 18 18 17 15 13 9 6 2
4 8 5 5 3 4 5 3 2 3 3 3 5 7 7 6 7 8 10 10 9 8 8 8 9 11 12 12 13 14 15 16 17 18 17 17 18 17 17 17 16 15 12 8
7 4 4 4 4 2 2 4 6 7 8 9 11 12 13 13 14 14 14 13 12 11 10 10 12 12 12 12 13 13 15 16 16 16 16 16 16 16 15 15 14 13 13 12
5 6 6 6 4 1 3 6 7 8 10 13 14 13 13 14 13 12 11 10 9 9 9 10 10 10 10 11 12 13 14 14 15 15 15 15 15 14 14 14 13 13 12 11
4 5 7 9 6 4 5 7 9 9 10 11 12 12 11 10 9 7 8 8 8 9 9 10 11 11 11 11 12 12 13 13 13 14 14 15 15 15 14 13 12 11 11 10

GFSCGP_700_spd_105.txt.gz
Wind_Speed
24 26 40 35 37 39 39 37 37 31 27 27 25 25 25 23 23 21 20 17 18 16 15 9 19 22 23 26 28 29 31 34 37 39 44 50 55 57 59 59 57 57 53 53
28 33 38 32 31 32 36 39 39 34 23 23 26 29 25 26 26 23 19 18 17 14 10 11 17 19 20 24 27 29 30 31 35 41 45 49 54 55 57 58 62 59 58 57
36 39 22 30 28 28 29 35 36 33 26 27 28 33 27 25 23 21 19 19 18 13 10 15 16 19 22 25 28 29 32 35 35 37 45 51 55 55 59 59 58 56 59 59
32 37 35 22 28 32 32 26 30 31 28 29 27 23 23 27 21 21 21 18 14 10 14 15 15 16 19 23 26 28 30 31 34 35 43 51 54 57 58 58 47 52 49 51
34 25 31 41 40 20 28 23 25 31 30 28 25 15 19 19 21 21 20 17 13 11 12 12 12 14 19 22 24 27 32 33 32 38 39 44 48 46 48 55 47 51 50 44
29 21 16 31 29 29 18 14 20 22 27 23 29 26 21 22 23 22 21 15 11 12 12 13 15 18 22 24 28 32 34 35 37 35 34 36 39 43 43 45 52 50 50 46
23 28 19 13 16 19 23 10 5 7 10 11 20 17 29 14 15 23 20 13 8 12 13 15 17 21 23 26 28 33 36 34 35 30 30 30 34 37 43 40 48 46 46 46
15 8 22 19 21 18 30 32 10 5 5 9 16 8 8 12 16 17 16 12 10 13 14 16 19 21 25 28 28 30 32 33 34 26 26 29 31 35 36 35 43 44 44 46
7 12 10 14 17 21 11 37 28 20 21 13 10 12 13 19 19 16 9 4 10 14 15 16 19 22 27 30 30 31 30 30 28 22 25 25 28 29 31 34 41 43 43 42
6 6 10 15 13 19 22 20 25 16 5 10 13 21 11 17 12 9 6 8 12 14 17 21 25 29 34 33 31 30 29 30 26 22 22 19 20 22 23 27 37 41 41 39
6 5 7 8 12 16 21 14 15 10 13 6 11 2 7 17 15 9 4 10 15 17 20 25 29 35 41 34 32 31 29 28 27 23 20 19 21 18 21 26 31 37 36 39
16 7 10 15 8 8 8 10 7 6 8 11 14 3 11 9 8 1 11 17 21 24 28 32 36 38 35 30 31 30 28 28 28 29 24 20 22 23 23 28 31 33 35 37
13 10 12 10 10 11 12 13 12 9 8 16 12 3 5 3 3 7 15 17 24 27 29 30 30 30 28 26 28 27 27 27 27 23 27 23 24 24 25 30 29 31 33 35
17 9 12 7 3 5 12 13 11 10 9 16 18 14 2 10 12 13 12 20 29 30 27 25 24 24 25 26 27 26 25 26 26 26 22 31 25 30 27 28 30 32 34 38
8 7 9 6 2 2 5 8 10 11 12 10 13 14 11 12 12 16 18 24 27 25 22 22 21 22 24 25 23 23 23 23 22 21 16 21 14 22 26 27 23 33 33 39
17 8 8 11 8 8 10 12 14 15 15 17 17 15 9 10 12 21 29 23 23 21 20 19 19 22 23 20 18 18 18 19 17 15 13 13 14 18 18 31 20 24 24 18
9 9 6 9 4 6 11 10 12 14 13 13 13 8 14 21 26 26 22 23 23 21 17 16 17 18 17 13 11 11 13 16 16 13 12 11 12 10 6 18 23 27 18 22
7 7 6 3 4 5 3 1 2 5 5 10 11 14 21 24 21 17 19 21 21 15 13 12 12 14 9 6 8 9 13 14 15 14 12 8 7 9 9 7 9 20 22 26
7 7 5 5 10 3 1 4 6 10 6 18 18 18 18 15 15 13 15 17 16 12 8 7 7 2 4 8 8 12 13 13 13 13 14 15 16 12 9 9 6 10 17 17
8 6 6 7 4 4 8 1 5 11 9 17 14 12 17 14 2 16 14 11 8 6 4 1 1 4 7 8 9 12 11 11 13 16 18 21 20 18 17 15 14 10 8 8
8 7 9 9 7 2 5 8 11 5 4 10 15 15 12 14 14 10 11 7 5 3 2 3 5 8 10 10 11 11 11 11 15 19 20 20 20 21 20 21 20 19 14 6
8 9 9 8 6 4 5 9 6 10 13 14 8 4 3 9 12 7 4 1 3 4 5 6 8 10 10 10 11 11 11 14 16 17 18 19 20 22 22 22 21 19 19 17
5 9 5 6 5 3 5 6 6 6 4 1 2 3 5 4 5 3 4 5 6 6 7 9 10 10 9 10 11 11 13 14 15 16 16 17 19 20 20 20 20 19 19 17
8 11 7 6 6 3 3 2 2 3 5 6 8 10 10 9 8 8 8 9 10 9 9 9 9 9 9 9 11 12 14 14 15 15 16 16 16 16 16 17 17 17 17 17
6 9 10 9 7 3 4 4 6 7 8 11 12 13 13 12 11 10 10 9 8 7 7 7 8 8 9 10 11 11 12 12 13 14 15 15 15 16 16 15 14 14 13 13
9 12 10 7 7 5 6 7 8 9 10 11 11 12 10 10 9 8 7 6 5 5 5 6 6 7 7 9 10 11 13 13 14 15 14 15 16 16 15 15 15 15 14 14

GFSCGP_700_spd_108.txt.gz
Wind_Speed
18 23 30 25 28 33 37 40 44 45 40 38 42 30 34 30 30 24 21 21 22 20 22 21 22 25 24 21 23 24 26 28 29 31 34 38 43 46 49 50 49 49 51 52
22 39 30 29 30 33 34 37 38 36 34 34 40 38 28 32 32 33 29 25 25 24 22 18 15 26 17 19 21 23 24 26 27 30 32 34 38 43 49 51 56 59 57 57
31 32 27 33 30 29 34 35 35 34 31 35 30 32 35 28 32 32 33 29 28 30 22 14 17 18 14 21 21 23 25 27 29 31 33 35 38 41 44 49 53 55 58 59
30 30 30 31 34 24 30 29 34 31 24 22 13 11 38 36 32 37 33 29 30 28 21 17 19 12 15 17 19 20 21 22 26 29 31 35 37 39 42 48 51 54 55 61
36 19 22 28 31 28 33 26 23 27 25 22 34 19 34 35 35 31 27 26 23 22 20 21 12 13 14 14 16 18 20 23 25 28 29 33 36 37 39 43 48 52 57 59
35 34 33 25 21 24 28 29 21 18 19 13 38 25 24 24 18 31 27 28 27 18 21 14 11 13 14 14 17 21 22 24 27 30 32 33 35 35 35 36 39 45 46 57
27 35 38 35 22 17 20 20 5 8 8 11 11 19 34 14 16 30 32 26 19 22 20 13 14 14 16 19 21 23 24 26 28 31 32 34 33 33 31 28 32 36 43 52
15 13 24 27 26 18 22 24 7 5 4 6 7 6 6 10 16 29 31 19 18 13 13 15 16 17 20 22 26 27 29 28 28 30 30 28 28 30 29 30 30 31 38 44
10 14 10 12 14 23 14 26 23 22 24 8 10 7 6 7 20 26 19 13 6 8 12 13 17 20 23 27 32 33 33 28 28 29 30 26 27 28 27 27 29 32 34 35
10 9 6 15 15 21 19 8 11 16 4 4 6 16 1 18 17 12 14 11 9 7 8 15 21 25 29 33 36 38 33 29 28 29 29 27 25 26 22 22 25 25 27 33
26 9 5 7 17 18 21 24 10 9 13 4 4 2 9 12 19 15 6 7 13 12 12 18 25 31 36 37 39 34 32 28 27 27 27 28 25 25 22 20 23 23 23 27
19 8 11 15 15 13 13 11 14 8 4 3 2 4 2 11 17 6 5 13 15 19 21 26 30 34 37 36 35 29 28 27 26 25 24 27 26 27 25 23 23 26 30 31
18 8 13 6 10 10 16 17 12 9 7 8 4 6 10 4 3 5 8 2 17 23 26 27 29 30 32 30 30 28 29 28 26 25 23 24 26 26 26 27 26 28 27 28
20 14 14 10 6 3 18 15 13 9 5 9 10 4 5 4 5 7 7 15 23 25 27 26 26 27 28 27 27 25 26 25 24 24 23 24 23 23 28 30 35 32 27 29
20 13 13 11 6 2 3 7 9 12 13 13 12 10 5 7 5 10 18 24 28 27 27 26 24 23 23 24 23 22 22 22 21 21 21 20 20 22 20 22 27 30 33 29
13 5 10 13 12 9 9 9 10 12 14 15 13 11 8 13 18 20 23 28 30 26 24 23 19 19 20 20 19 18 17 17 17 18 20 20 20 18 18 20 24 25 32 35
9 10 7 12 11 5 9 12 11 11 10 11 13 6 8 17 21 23 25 25 23 20 21 18 14 14 16 14 12 11 11 13 16 18 19 19 17 15 13 13 13 18 25 27
10 9 7 3 5 4 5 8 8 11 7 9 11 10 20 23 23 21 18 16 16 16 16 14 11 12 11 6 5 6 9 12 14 17 17 16 16 14 11 9 10 9 14 17
9 10 6 6 11 6 6 5 7 8 12 15 15 19 22 22 18 13 9 11 12 12 11 10 8 6 3 2 4 8 10 12 16 14 16 17 20 20 21 19 17 15 15 9
10 11 10 9 6 6 10 4 5 5 6 15 10 10 12 17 10 12 11 12 12 10 8 5 3 2 2 3 7 10 10 13 12 15 18 19 22 23 24 26 26 25 20 16
11 10 12 11 8 3 7 7 7 4 7 8 14 17 16 15 15 12 12 11 9 5 2 2 3 3 5 7 11 10 11 11 15 16 17 19 21 23 23 25 25 25 25 24
11 9 10 11 12 6 8 7 6 11 13 16 14 9 4 5 10 10 8 5 1 1 1 2 3 4 7 10 10 10 10 13 14 15 17 18 20 21 21 22 22 23 23 22
9 9 7 7 6 5 5 8 8 9 8 4 2 1 1 4 6 6 3 3 4 3 3 4 7 10 11 11 10 11 12 13 14 15 16 17 19 20 20 20 20 20 20 20
14 12 8 7 8 6 6 5 3 2 2 4 5 7 7 8 7 7 7 7 7 8 8 8 9 10 10 9 9 10 12 13 14 15 16 17 18 19 19 19 19 19 19 19
5 9 10 14 8 7 5 4 4 5 6 8 9 11 11 12 11 10 9 8 8 9 9 9 9 9 9 10 12 13 13 15 15 16 17 18 18 18 19 20 20 20 21 20
10 13 8 7 6 6 7 6 7 8 9 9 8 9 10 11 10 9 9 9 10 9 7 7 7 8 9 10 11 12 13 14 14 15 16 17 18 19 20 20 21 22 22 22

GFSCGP_700_spd_111.txt.gz
Wind_Speed
17 22 28 27 23 23 28 32 37 44 39 35 43 41 44 49 38 29 19 26 25 27 34 38 42 42 40 33 29 28 25 24 25 28 30 31 33 36 39 41 42 44 45 45
16 30 25 25 27 28 30 35 40 45 40 29 37 42 40 44 51 35 26 31 29 30 35 38 36 35 29 24 28 28 22 22 24 25 27 29 31 32 36 38 42 44 45 46
25 25 9 21 27 27 33 34 35 36 35 40 39 48 43 41 46 41 37 26 38 38 39 35 33 32 24 24 27 21 20 22 24 25 26 28 30 32 34 37 40 43 47 50
28 28 27 25 29 24 34 27 30 32 30 25 17 19 54 49 43 31 39 30 35 42 34 39 45 23 16 24 19 14 18 21 23 24 25 26 29 31 33 35 37 40 44 49
39 27 21 22 25 22 25 23 23 26 32 30 40 16 59 24 30 23 34 28 28 32 35 40 31 18 24 19 13 12 15 19 22 24 26 26 26 30 33 33 34 37 41 47
32 31 32 35 33 30 27 28 31 31 22 13 33 25 42 30 25 25 4 28 39 31 33 35 22 22 23 19 16 15 16 18 21 24 26 28 29 29 30 30 31 34 39 43
26 33 40 36 36 34 25 18 4 4 5 6 12 12 31 22 21 24 28 29 31 35 33 25 21 22 27 18 19 22 26 26 27 26 26 28 30 31 30 27 28 27 30 32
9 8 13 23 26 16 20 17 9 5 2 5 13 7 9 14 14 25 40 39 29 25 24 20 15 15 18 20 22 24 28 31 31 31 28 29 30 31 31 29 27 26 29 31
10 11 11 15 11 17 11 20 15 14 22 9 11 16 14 17 11 25 29 26 20 15 14 11 14 15 18 19 25 30 33 33 32 30 29 28 29 29 30 30 29 29 29 30
24 15 17 11 10 14 21 4 8 8 3 4 6 5 13 18 9 22 20 18 15 12 5 6 10 14 17 23 29 34 36 35 32 29 28 27 27 28 30 30 28 27 27 25
30 21 6 9 18 19 21 26 13 8 8 2 3 4 16 15 16 15 11 6 8 6 4 10 18 21 25 30 34 35 35 34 31 28 26 27 27 29 29 29 30 28 26 24
30 19 12 15 10 11 15 23 25 10 4 3 7 3 15 16 13 8 9 5 7 12 19 25 26 26 27 30 32 33 33 32 30 28 25 26 27 27 31 29 30 30 27 27
27 12 6 4 15 18 22 15 16 15 8 6 4 1 6 8 12 15 3 8 15 18 25 28 28 28 28 28 30 30 30 29 27 26 25 26 26 26 28 28 29 31 29 29
12 11 12 6 6 3 9 20 19 15 11 7 6 2 3 7 12 7 9 11 15 21 27 28 28 27 26 28 28 27 27 27 25 25 24 25 25 25 23 25 25 27 31 31
21 15 16 10 9 3 9 4 15 16 13 9 8 11 14 16 14 13 16 18 19 23 27 26 26 25 24 25 24 24 24 23 22 21 20 21 22 23 23 24 23 24 29 32
27 14 18 20 12 10 9 9 7 8 7 8 8 9 8 9 12 14 16 20 25 26 23 21 21 22 21 20 20 20 19 17 16 17 18 19 20 20 21 23 22 22 23 20
17 16 10 6 15 10 8 13 13 11 8 10 15 11 14 14 13 16 21 25 27 24 22 21 21 18 15 16 15 13 11 11 12 14 16 16 17 18 17 16 16 16 18 18
18 12 10 4 13 5 7 14 14 16 11 9 13 15 16 17 19 22 26 24 22 19 17 17 16 14 13 11 7 5 6 8 9 11 14 17 18 19 21 20 18 14 15 14
11 13 7 5 10 7 6 10 10 11 15 16 16 19 22 23 24 21 18 16 14 13 13 12 12 12 9 6 4 4 4 7 8 11 15 18 19 20 22 24 27 28 27 24
15 16 11 11 3 5 10 12 7 5 13 11 13 14 15 16 18 14 10 10 11 11 8 7 6 4 2 2 2 3 4 7 11 14 17 20 20 21 22 25 26 28 28 29
17 17 17 15 8 4 15 15 11 6 9 7 10 13 17 19 17 11 8 8 5 3 3 3 2 2 3 3 5 6 8 12 13 15 17 16 19 21 22 24 24 26 26 25
18 15 12 14 7 6 13 8 7 8 11 14 15 12 8 6 7 8 5 3 2 2 2 3 4 5 5 6 9 11 10 12 15 16 18 19 20 20 22 23 23 24 24 24
13 13 13 11 12 7 8 7 9 9 7 5 4 2 3 5 7 7 2 3 5 5 6 6 6 8 7 7 10 13 13 14 15 17 17 18 19 20 21 22 22 22 23 23
16 17 9 11 10 7 5 6 5 4 2 2 4 5 7 8 8 8 9 10 10 9 8 8 8 8 10 12 13 13 14 14 16 16 17 18 19 20 20 21 21 22 22 23
13 17 15 15 11 8 8 6 6 5 6 7 9 11 12 14 14 13 12 11 10 9 9 9 10 11 11 12 12 13 13 14 15 17 17 17 18 18 18 20 20 21 22 22
11 12 12 10 7 9 6 8 8 8 9 9 9 9 11 12 12 12 11 11 10 10 11 11 11 11 10 9 10 12 14 15 16 16 16 18 19 21 22 23 23 23 23 24

GFSCGP_700_spd_117.txt.gz
Wind_Speed
23 27 30 21 19 20 22 25 24 23 20 26 30 42 43 41 40 35 31 27 26 29 35 37 40 40 41 48 49 46 41 36 36 37 38 37 39 38 41 42 40 40 41 42
23 31 23 21 22 23 22 26 28 25 19 24 31 46 41 39 36 26 24 22 25 32 30 33 32 35 43 47 46 43 40 39 39 38 38 37 38 34 37 39 41 40 40 42
28 12 11 14 15 19 23 24 25 29 23 24 29 45 36 39 18 27 19 18 18 24 24 29 31 35 43 40 39 38 38 38 38 37 35 34 38 34 31 35 37 38 40 41
19 22 22 24 23 19 25 20 24 25 28 19 17 15 45 17 23 20 21 17 13 24 29 32 33 38 42 32 30 34 33 31 31 28 28 37 36 31 30 29 31 33 37 40
18 13 13 14 15 15 29 25 22 23 26 28 20 9 21 18 20 27 25 17 10 15 31 36 33 37 40 44 29 27 25 25 25 25 23 29 32 31 29 29 30 31 34 36
33 29 21 16 15 18 23 22 21 25 20 7 11 18 7 17 23 21 24 17 19 20 35 34 36 38 37 32 29 33 25 23 23 24 28 35 36 34 33 33 32 31 33 33
30 36 29 29 29 25 23 18 4 4 2 5 5 5 6 15 20 28 19 17 19 25 34 32 31 30 26 25 19 20 23 19 25 27 28 32 33 31 30 34 33 32 32 33
9 7 12 18 24 24 21 21 8 5 3 3 3 6 6 12 19 15 8 9 6 3 3 5 10 13 11 11 14 16 16 17 22 27 29 29 30 31 31 33 33 31 32 33
8 10 12 13 9 12 13 18 16 9 6 3 6 6 5 4 3 6 7 9 10 10 12 5 3 4 4 5 10 11 15 19 24 26 28 28 30 32 33 35 34 33 32 33
22 21 20 15 13 13 22 12 7 8 3 5 6 7 11 8 6 2 1 4 9 8 10 27 21 27 23 12 12 11 15 17 21 24 27 28 30 33 35 37 36 33 33 33
32 26 16 19 26 27 22 20 11 10 7 4 2 5 12 9 7 7 5 4 6 12 16 23 24 21 24 21 18 21 22 23 23 25 27 28 30 30 31 31 34 34 33 32
26 19 23 31 27 19 31 30 34 15 7 8 4 6 11 9 4 5 5 2 7 8 10 13 19 23 23 23 24 22 22 23 23 23 24 26 27 26 27 26 27 30 31 33
23 16 7 11 20 31 27 33 31 28 17 16 7 6 13 10 9 11 13 8 7 9 12 17 22 25 26 25 25 24 24 22 22 21 20 20 21 23 24 24 24 26 28 30
26 26 22 17 15 8 24 30 34 28 20 20 26 18 13 14 16 13 17 15 13 13 17 21 22 26 28 23 21 21 20 17 16 16 16 16 17 18 19 20 20 23 26 27
25 26 28 29 30 20 22 25 29 32 34 21 22 25 20 19 21 22 20 18 16 18 20 22 25 24 21 19 18 17 16 14 13 13 12 12 13 14 15 16 16 17 19 21
27 21 21 27 26 19 18 17 19 23 36 34 30 21 22 22 23 23 23 21 19 20 21 23 22 19 16 15 13 12 11 10 9 9 9 10 11 12 15 17 17 17 18 19
24 24 21 22 20 22 19 25 24 21 26 28 26 27 22 24 23 24 21 19 18 19 18 16 15 14 13 11 9 8 8 8 8 7 6 7 9 11 13 16 19 21 23 26
25 26 20 7 9 7 13 19 27 28 25 20 19 17 17 19 20 20 21 18 19 17 13 11 9 8 8 6 7 8 9 9 8 7 7 8 10 12 14 16 18 21 24 25
22 21 11 6 9 12 11 17 23 23 21 25 26 25 22 19 21 20 18 18 15 13 11 9 7 5 4 6 6 7 8 7 5 5 9 13 12 11 13 15 16 18 20 21
20 17 20 9 4 6 8 15 16 15 18 20 20 20 19 20 22 17 15 13 12 10 6 3 2 3 5 6 6 7 6 6 9 9 8 11 12 14 15 16 18 19 21 22
21 21 22 15 8 7 14 12 15 12 8 8 13 16 18 19 16 15 15 13 9 6 3 1 3 5 6 6 7 9 9 8 7 9 11 12 13 14 16 18 19 19 21 21
27 19 17 17 8 10 11 16 17 11 8 8 10 13 17 18 18 17 14 9 5 5 5 5 7 8 7 7 7 8 7 6 8 10 11 13 15 17 18 19 19 20 20 19
21 26 19 17 14 13 7 17 15 16 11 11 13 14 14 14 12 10 9 7 9 8 8 8 9 8 7 7 7 8 6 7 8 10 12 13 15 16 17 18 19 19 19 20
21 19 19 19 19 17 23 14 16 12 12 11 9 8 9 10 9 11 9 10 10 10 11 10 9 8 8 7 6 6 6 8 9 11 13 14 15 16 16 17 18 19 20 21
21 21 22 23 20 15 19 18 15 13 12 9 7 8 9 11 12 12 12 13 13 13 12 11 10 9 7 5 5 5 6 9 12 13 15 16 17 18 20 21 23 24 25 25
19 22 21 19 19 16 11 14 13 12 12 10 7 7 12 14 14 14 15 14 14 13 13 12 11 8 5 4 4 6 8 11 13 15 17 18 20 22 24 25 27 28 29 30

GFSCGP_700_spd_120.txt.gz
Wind_Speed
24 29 31 21 19 22 21 20 23 26 22 28 31 33 29 28 23 26 16 20 23 24 26 30 30 28 29 33 35 35 34 34 35 36 35 34 33 34 34 37 40 40 38 37
26 33 23 21 23 23 21 21 24 25 17 28 32 36 28 11 11 12 18 16 19 22 24 26 28 26 24 26 31 33 36 37 37 36 35 34 33 34 35 36 40 40 39 39
26 16 10 14 14 20 23 21 21 21 24 24 32 27 3 13 11 13 17 12 13 19 23 26 26 24 24 26 33 36 37 38 36 34 32 33 34 35 32 37 41 37 38 39
19 22 26 26 25 19 22 18 16 19 20 12 15 11 21 12 12 18 16 17 16 15 18 21 21 25 28 29 34 36 36 40 32 32 30 33 34 33 37 36 34 33 33 35
14 13 11 14 11 12 22 17 17 19 20 21 19 10 13 18 17 16 21 21 19 18 19 23 26 30 28 33 36 36 34 37 16 22 27 32 28 36 34 34 32 34 32 33
25 24 18 16 12 10 12 14 17 18 19 9 18 20 13 15 15 12 17 24 19 19 23 28 29 35 34 31 36 34 33 30 33 25 23 25 26 30 34 39 36 35 32 34
27 30 30 31 29 25 25 18 4 3 2 6 6 9 18 20 19 14 17 17 16 15 20 23 24 26 26 27 32 44 45 42 25 18 22 22 24 31 32 32 33 31 30 29
6 5 7 15 28 26 20 22 10 5 3 3 7 8 9 11 9 9 8 6 6 8 10 14 19 20 18 13 8 11 9 13 19 20 23 23 28 29 31 32 34 33 31 31
7 6 4 7 6 16 13 24 23 15 11 3 8 12 17 16 9 3 2 5 7 5 7 6 10 17 14 16 19 12 10 11 13 19 22 24 27 30 33 35 36 34 34 32
20 13 14 13 16 15 24 9 8 10 3 5 6 10 17 15 14 10 7 5 8 6 9 10 11 14 16 16 15 18 17 18 19 21 23 24 25 30 32 33 32 31 33 34
33 27 15 15 22 24 22 22 15 11 9 4 2 8 14 17 11 10 11 8 7 5 6 8 12 15 19 18 14 17 16 20 24 27 29 30 28 28 29 30 30 30 30 29
27 17 32 35 25 23 25 26 24 14 7 12 5 12 9 13 13 12 11 11 10 9 9 11 14 19 23 24 24 19 21 22 22 22 23 25 24 25 26 26 25 25 25 27
24 14 11 10 18 24 30 31 32 31 30 30 7 8 16 19 18 14 14 15 14 13 14 16 19 22 24 26 24 20 21 22 23 21 21 20 19 20 21 22 22 22 23 23
27 28 23 18 12 8 16 23 23 32 23 20 31 24 17 20 21 18 16 16 17 16 15 18 22 25 25 21 18 18 18 17 17 16 15 14 14 15 14 13 14 16 17 19
29 33 31 32 32 27 28 34 29 29 39 25 21 26 33 29 25 17 17 19 19 18 17 21 23 26 23 17 15 15 15 14 11 10 8 8 8 7 8 11 14 16 18 21
32 31 29 28 27 25 28 31 29 28 33 32 27 30 27 26 21 22 22 21 20 21 21 22 23 23 19 15 12 10 9 8 9 9 9 7 5 4 6 10 12 15 18 20
29 24 22 21 24 21 19 36 31 34 30 26 30 35 36 34 27 25 25 21 21 22 21 21 20 17 15 13 11 8 6 6 7 8 6 5 4 6 10 10 13 13 14 17
37 32 24 15 13 11 17 22 21 26 36 33 25 27 26 27 26 24 23 21 21 20 19 17 15 14 12 8 4 3 4 6 6 5 4 7 12 10 9 12 13 13 15 17
43 26 15 7 12 16 25 19 16 24 30 32 28 28 24 20 23 24 25 19 19 19 15 13 10 8 6 3 1 1 3 4 3 6 11 10 7 9 10 11 12 14 16 17
20 19 23 12 5 6 11 13 20 21 29 24 24 26 24 25 25 23 18 18 18 14 12 9 7 6 5 3 2 3 4 6 7 5 6 8 10 11 12 14 15 17 18 20
26 26 28 21 11 11 15 14 15 15 13 11 20 23 20 19 16 17 18 18 15 12 10 9 7 6 5 5 7 7 7 6 5 7 9 11 12 12 13 15 17 19 21 22
30 21 18 19 11 11 17 15 18 16 15 9 10 11 14 15 17 17 16 15 13 12 11 10 8 8 8 7 6 6 6 4 7 8 10 12 13 13 16 18 19 20 21 22
22 22 21 19 15 15 5 11 15 21 12 10 10 12 13 16 16 16 15 13 13 13 12 12 12 11 9 8 7 6 5 6 7 9 10 11 13 15 16 17 18 20 21 22
26 23 29 19 23 20 18 17 13 14 13 13 13 12 12 12 11 11 14 14 13 14 15 15 13 11 10 8 6 5 5 6 8 9 11 13 15 17 19 21 22 23 23 23
22 20 22 23 22 16 14 19 23 18 15 13 12 11 10 9 11 14 12 13 14 16 16 14 13 12 9 7 5 5 5 6 9 11 13 16 19 22 24 24 26 27 27 27
18 20 19 20 16 19 17 12 16 17 15 12 10 8 10 13 13 12 14 15 15 15 14 14 13 10 8 6 5 4 5 8 10 13 16 20 22 24 25 27 27 29 30 30

GFSCGP_700_spd_123.txt.gz
Wind_Speed
23 26 24 17 16 20 21 22 24 25 20 25 23 27 24 25 23 16 16 17 18 22 22 22 23 26 27 29 30 29 29 24 22 24 29 32 35 35 33 31 30 29 30 32
25 29 19 18 20 20 21 23 26 24 13 21 22 28 26 11 9 17 14 15 22 21 23 23 22 23 24 24 25 25 25 26 27 29 33 36 38 36 33 32 30 30 32 36
26 16 10 14 15 18 17 20 22 20 20 21 19 4 10 8 17 17 15 21 18 20 24 25 25 24 22 20 21 22 24 27 30 34 34 36 36 36 31 30 28 30 33 37
18 21 24 21 21 21 22 20 15 15 15 7 11 7 18 19 21 19 18 19 17 21 22 24 24 24 22 24 26 26 25 28 32 36 36 35 29 34 30 28 30 29 31 38
11 11 13 19 20 16 14 12 13 14 15 18 9 9 10 17 19 21 16 15 17 18 16 18 20 25 25 25 24 32 30 28 31 35 40 38 38 30 25 27 29 29 35 38
22 20 16 14 12 11 9 6 9 14 13 8 10 14 8 11 11 14 18 17 15 14 15 17 19 22 26 31 30 36 34 32 32 41 40 42 32 27 22 27 27 31 37 37
23 26 24 24 19 17 15 7 3 3 3 5 4 9 19 26 26 20 13 10 11 12 14 14 15 17 18 20 26 30 30 34 36 32 35 30 26 25 27 30 28 36 34 36
15 7 15 17 22 17 17 18 9 6 4 1 7 9 10 17 19 19 8 4 6 10 10 13 13 15 16 16 18 19 19 16 23 25 23 27 25 30 29 26 33 35 31 35
11 9 11 10 8 12 13 17 19 13 13 5 10 18 27 27 26 20 10 2 4 5 7 9 11 9 11 13 13 16 16 16 11 11 13 18 20 20 22 29 31 29 32 35
14 8 12 14 13 13 18 7 7 12 4 6 7 11 17 21 20 14 10 6 4 6 5 5 8 12 14 17 18 17 17 15 16 14 17 21 25 24 23 25 27 32 34 33
26 19 14 17 21 22 20 19 15 11 9 4 6 10 16 14 13 11 12 10 11 9 8 9 11 14 17 20 22 23 20 20 18 18 19 20 24 27 24 24 25 29 30 30
23 14 21 30 25 21 22 24 25 13 7 11 6 23 19 19 16 15 14 14 14 13 11 13 15 16 18 22 26 23 19 18 18 20 19 17 19 20 21 21 21 23 23 23
13 18 13 16 19 22 25 29 30 29 22 23 9 17 24 15 22 20 19 17 15 16 16 16 18 20 22 24 24 21 17 16 18 17 16 15 12 15 15 15 15 15 16 17
19 23 21 18 8 7 15 24 23 24 17 19 31 34 36 26 22 21 20 17 16 18 19 19 19 21 24 26 22 18 17 16 13 13 12 10 9 8 8 6 6 7 10 15
27 29 27 33 32 26 25 28 30 30 33 25 44 31 29 34 37 25 26 21 16 19 20 20 21 23 26 25 20 18 16 15 12 10 9 10 10 7 4 3 5 8 10 10
25 30 24 33 34 31 35 37 34 32 33 35 35 40 37 29 28 24 22 22 20 21 21 22 22 24 25 23 19 15 12 10 9 9 10 9 7 5 2 7 6 8 10 11
23 25 26 25 21 18 17 37 37 36 36 37 34 37 32 31 30 24 22 20 20 19 22 22 22 24 23 20 16 11 8 6 6 7 6 5 2 4 8 7 8 10 11 13
30 29 20 20 17 12 25 24 26 27 26 25 29 31 32 24 22 23 23 22 22 23 21 20 21 21 20 16 12 8 4 4 6 6 2 6 11 8 7 9 9 11 11 12
37 31 27 21 17 23 15 17 19 18 28 27 25 29 32 27 22 24 22 20 22 24 18 18 19 18 15 12 7 5 1 2 3 6 10 7 5 6 8 9 10 11 13 14
30 39 40 21 12 8 20 16 18 18 30 24 27 29 28 26 26 22 24 25 22 18 17 17 17 14 12 8 5 3 6 4 3 2 2 3 5 7 9 10 12 13 15 18
20 29 33 14 7 12 20 16 17 11 20 15 9 19 21 21 21 21 18 18 19 18 16 16 14 12 10 8 7 7 7 3 2 1 4 7 9 10 12 14 16 18 20 22
22 14 15 15 10 14 18 18 20 19 17 14 12 13 17 19 18 17 17 17 18 17 16 15 12 12 11 11 9 7 5 2 1 4 6 9 11 13 14 15 15 16 17 18
23 28 25 18 16 20 11 11 10 12 17 12 10 9 10 13 14 15 15 17 17 17 15 14 15 14 15 13 11 8 5 3 3 5 8 9 11 12 13 14 15 16 17 17
26 22 27 22 25 22 17 16 15 13 13 13 16 14 13 13 14 15 17 17 16 15 16 17 17 17 15 13 11 8 6 4 5 7 8 10 12 13 14 15 16 18 18 20
25 23 26 28 27 23 21 16 19 19 18 14 13 12 12 13 13 14 14 15 16 17 18 20 19 17 15 12 10 8 5 3 5 7 8 11 13 15 17 19 21 22 22 23
18 20 20 23 18 18 16 15 15 17 20 19 15 12 11 12 12 13 16 17 17 19 20 19 18 17 14 12 10 7 4 3 4 7 10 12 14 17 20 21 22 21 22 23

GFSCGP_700_spd_126.txt.gz
Wind_Speed
18 17 18 14 15 15 16 12 15 15 15 16 13 16 16 20 22 24 22 18 21 22 23 26 26 26 27 27 28 27 26 25 23 21 23 27 31 35 38 39 38 36 33 29
20 21 16 21 21 21 16 14 17 15 11 13 14 18 17 23 22 15 12 20 19 19 23 22 24 25 27 27 28 28 28 28 24 23 24 27 31 35 37 38 38 38 35 31
18 11 11 16 16 17 13 15 14 14 14 15 13 20 14 16 13 13 20 16 19 24 21 23 26 27 27 26 26 23 25 25 25 23 25 28 31 34 37 35 35 35 34 34
16 20 23 23 17 14 14 13 12 10 9 8 4 8 13 17 16 20 18 17 18 20 23 25 25 24 23 21 21 18 18 25 26 24 26 29 31 28 35 37 34 33 34 34
10 15 14 16 14 14 11 13 6 8 10 14 14 11 10 17 16 14 13 12 14 18 17 15 12 11 12 14 17 21 26 29 26 28 29 33 35 31 33 36 38 35 31 35
16 17 13 10 11 10 10 6 6 8 9 10 16 17 9 11 12 12 12 13 13 9 6 6 10 13 14 15 16 18 20 23 26 28 35 34 34 38 38 40 40 42 35 37
18 22 21 19 11 13 11 7 5 6 5 6 3 11 22 13 16 15 14 14 8 5 2 6 7 9 11 12 14 16 18 20 19 21 28 31 35 38 37 42 45 51 40 29
16 9 21 20 22 11 16 15 9 6 7 7 4 10 6 14 15 19 18 13 10 7 4 5 8 8 9 12 14 16 18 19 20 18 17 15 19 26 29 33 29 33 40 35
10 9 11 13 13 18 12 16 18 20 18 12 20 21 23 26 21 15 16 11 12 9 5 5 6 8 10 13 16 17 20 21 20 20 20 17 17 18 16 19 21 22 25 28
10 9 10 16 15 15 14 10 6 12 7 14 14 19 20 19 17 14 15 13 14 12 10 7 8 10 13 16 19 22 24 21 21 20 21 22 21 22 20 21 20 20 22 26
14 14 10 18 20 18 19 18 13 13 17 10 14 16 11 8 17 13 14 16 15 15 13 12 12 13 15 17 21 24 26 23 21 21 22 21 20 22 19 19 22 23 20 22
20 12 23 24 19 22 25 23 24 22 18 16 18 28 21 22 17 16 19 20 18 17 16 17 15 16 17 20 23 25 26 23 20 20 19 18 16 16 13 14 12 13 12 14
19 14 19 24 18 20 27 30 30 29 25 25 13 13 17 21 24 22 23 23 22 19 19 21 20 19 20 22 24 26 23 21 20 20 18 15 11 10 10 7 6 4 4 5
13 16 18 21 12 4 14 22 25 25 25 25 31 27 28 25 32 29 23 26 25 23 21 25 23 22 23 23 25 26 22 21 19 17 14 11 11 11 10 6 2 2 4 4
17 22 22 27 26 24 23 23 23 27 30 30 33 31 34 25 30 31 23 30 23 23 24 25 24 23 23 24 25 24 21 18 16 13 10 11 11 11 9 4 5 5 6 7
29 26 22 32 28 27 31 35 36 34 36 36 35 44 31 29 26 34 28 30 23 25 24 22 24 23 23 23 25 23 19 16 12 10 8 9 9 8 4 4 5 6 7 9
19 18 17 28 23 25 27 39 36 39 34 34 36 37 28 28 32 26 20 26 25 24 26 19 21 23 22 23 23 20 15 12 9 8 7 7 3 4 7 5 5 8 9 9
26 21 21 25 18 15 29 23 26 26 28 29 31 32 26 22 24 25 23 22 25 21 21 21 22 21 21 21 20 14 11 9 6 4 2 4 5 4 3 4 5 6 8 9
29 27 22 20 25 29 28 24 27 25 28 22 23 24 24 31 30 26 23 21 25 23 22 23 22 21 20 19 14 9 8 5 2 3 3 2 2 2 4 6 6 7 9 11
29 32 33 31 24 20 35 26 29 25 31 24 21 22 29 25 28 25 23 26 23 21 23 25 20 19 18 14 10 9 6 7 5 3 2 3 3 4 6 6 8 10 12 13
12 21 35 38 32 27 30 23 23 15 20 15 16 17 15 18 22 23 19 20 22 23 22 20 18 17 16 12 10 9 10 7 4 2 2 2 2 5 7 9 11 12 13 14
20 13 16 30 18 15 11 21 24 23 19 18 14 14 15 16 18 18 19 20 21 20 19 18 17 16 14 12 11 11 11 8 4 3 2 1 3 6 8 10 11 12 13 14
20 29 23 15 11 11 12 9 13 15 14 14 13 11 10 11 13 16 16 17 19 20 19 19 18 17 16 14 15 13 10 6 4 3 1 3 5 7 9 11 11 12 12 12
20 21 26 22 29 30 26 21 16 15 14 14 16 15 14 13 14 15 17 19 19 19 19 19 19 18 18 17 15 13 10 7 6 4 1 2 5 7 9 9 10 11 11 12
18 20 21 30 27 24 20 18 18 18 19 18 15 13 13 13 15 16 18 18 18 20 20 21 20 20 19 17 15 12 11 9 6 3 1 4 6 7 8 10 11 12 14 16
26 27 21 16 15 18 20 18 19 18 16 17 19 17 14 15 16 15 16 17 18 20 21 21 21 21 19 17 15 14 11 7 4 1 2 5 7 9 10 11 13 15 16 18

GFSCGP_700_spd_129.txt.gz
Wind_Speed
20 19 22 21 20 21 16 15 17 18 16 16 20 19 17 18 19 13 11 21 24 23 26 26 25 27 27 26 27 28 27 26 25 24 26 29 32 34 34 35 41 44 41 40
16 24 21 17 19 18 17 17 19 19 18 18 20 21 20 19 17 20 18 21 17 21 22 24 27 25 26 28 29 30 29 28 27 26 26 27 31 33 36 32 34 42 41 40
23 8 19 21 17 18 19 20 19 18 16 20 24 26 28 21 25 15 16 20 21 19 21 21 23 27 29 29 30 31 30 28 26 24 24 24 27 29 33 37 39 36 37 40
24 24 17 18 21 17 20 20 16 15 15 15 5 13 6 17 14 11 17 19 19 16 18 21 25 25 26 25 25 25 26 26 25 24 25 24 25 25 28 30 34 37 36 37
22 19 24 24 23 19 19 13 12 12 14 17 21 20 21 15 19 14 12 12 14 16 21 20 19 19 16 13 11 12 14 17 18 23 24 24 24 27 30 32 34 33 37 33
26 15 18 17 16 18 10 10 10 11 14 17 24 26 18 19 18 14 12 12 15 14 15 16 13 10 9 9 10 11 13 15 17 19 20 21 25 29 33 35 36 37 37 40
23 24 17 17 17 14 17 12 8 13 11 11 6 10 20 8 12 10 13 14 14 13 15 14 11 10 10 11 14 16 18 19 21 22 23 22 22 21 24 29 34 37 42 42
29 23 27 23 24 14 23 20 13 10 10 11 4 8 6 10 12 13 17 15 14 14 15 14 12 11 12 13 16 18 21 23 25 24 23 23 22 23 22 22 21 23 25 27
23 24 18 14 21 22 17 24 20 23 24 17 21 23 8 20 20 9 10 13 15 16 17 16 14 13 13 15 16 18 21 24 25 25 25 24 25 25 24 25 24 25 25 27
15 14 15 16 17 17 20 10 12 15 7 17 20 23 19 18 16 8 9 12 15 18 19 19 17 15 15 16 18 20 22 25 25 24 24 24 23 25 24 24 24 24 27 28
14 14 14 17 21 18 22 21 19 16 25 12 14 18 4 8 10 9 12 13 14 19 21 22 21 19 18 18 20 22 24 25 25 24 22 22 23 22 21 19 19 18 18 19
21 12 21 23 16 20 26 27 26 25 24 24 26 30 9 7 8 11 14 23 20 20 26 25 24 23 21 20 22 23 24 25 24 23 22 22 21 20 17 15 14 12 11 11
14 13 16 21 22 23 26 31 28 30 29 35 21 18 5 14 10 13 14 20 20 19 27 27 26 25 25 23 23 25 26 26 24 22 21 20 19 16 14 15 13 10 6 4
19 18 21 25 29 15 15 30 31 33 33 32 36 35 30 18 16 14 19 25 25 22 27 27 29 27 27 26 25 25 24 27 22 20 18 18 16 14 14 14 12 7 3 3
22 22 27 32 32 22 20 18 20 25 28 25 28 27 29 25 24 30 22 30 32 27 27 27 31 31 27 26 25 24 24 24 20 17 16 15 14 13 13 12 7 2 3 4
25 25 25 35 27 30 30 30 34 31 33 34 33 35 30 30 31 27 24 36 29 21 25 30 31 29 25 25 23 22 23 21 16 14 13 13 12 11 9 5 3 4 4 5
28 31 29 33 29 29 29 44 34 36 38 37 41 39 34 33 28 24 23 33 25 21 26 28 29 28 23 22 22 21 19 16 13 11 11 10 9 5 3 3 6 6 6 6
21 19 18 14 15 13 23 22 29 31 34 32 34 32 33 31 27 23 24 33 29 26 27 27 25 23 19 20 21 19 16 12 9 9 8 5 3 1 3 5 6 5 6 7
26 25 22 17 21 24 24 22 18 21 30 27 24 27 27 23 27 29 33 32 28 26 24 24 23 22 19 20 19 16 13 9 8 5 4 3 4 4 7 6 5 5 5 5
28 30 30 24 20 18 33 28 28 21 28 26 26 26 23 28 32 28 30 31 28 24 21 27 18 21 22 19 16 13 10 9 8 7 6 4 5 5 5 4 4 4 6 7
9 21 34 34 27 32 39 31 22 19 35 19 16 18 18 23 27 28 27 20 21 22 22 20 21 23 19 16 13 11 10 10 9 7 4 5 5 4 4 4 4 6 7 9
17 13 19 24 29 23 22 12 25 26 24 20 18 17 21 23 21 21 21 20 19 21 20 23 23 21 17 14 12 11 12 12 9 6 5 6 5 4 4 5 6 7 9 10
33 32 29 22 16 14 10 15 16 13 23 23 23 20 16 16 16 17 18 19 19 20 23 24 21 19 17 14 13 14 13 11 9 7 6 5 5 5 5 6 7 9 10 11
25 23 26 18 24 26 26 22 18 20 22 20 17 19 19 18 17 16 16 17 18 20 21 22 22 19 17 15 15 15 13 11 9 8 6 5 5 5 6 7 9 10 10 11
16 17 24 24 22 25 26 19 17 22 21 21 22 22 16 17 19 18 17 17 18 19 21 23 21 19 17 18 17 15 13 11 9 8 6 5 6 6 8 9 10 11 11 12
19 24 24 24 21 20 14 15 17 21 21 22 23 22 20 18 17 17 17 18 19 20 22 22 20 19 20 19 17 16 14 12 10 8 6 6 6 8 10 10 11 12 12 13